[[{"header":{"parameterUnit":"m.s-1","parameterCategory":1,"la1":30.6,"la2":29.2853,"lo1":-89.7004,"lo2":-87.6739,"dy":0.0162,"dx":0.0183,"nx":112,"ny":82,"refTime":"2026-05-15T12:00:00:Z","depth":0,"parameterNumber":2,"parameterNumberName":"U-component_of_WINDS"},"data":[0.0,0.0,0.0,0.0,0.0,0.0,0.0,0.0,0.0,0.0,0.0,0.0,0.0,0.0,0.0,0.0,0.0,0.0,0.0,0.0,0.0,0.0,0.0,0.0,0.0,0.0,0.0,0.0,0.0,0.0,0.0,0.0,0.0,0.0,0.0,0.0,0.0,0.0,0.0,0.0,0.0,0.0,0.0,0.0,0.0,0.0,0.0,0.0,0.0,0.0,0.0,0.0,0.0,0.0,0.0,0.0,0.0,0.0,0.0,0.0,0.0,0.0,0.0,0.0,0.0,0.0,0.0,0.0,0.0,0.0,0.0,0.0,0.0,0.0,0.0,0.0,0.0,0.0,0.0,0.0,0.0,0.0,0.0,0.0,0.0,0.0,0.0,0.0,0.0,0.0,-3.968,-4.2727,-4.6214,-4.7957,-4.7186,-4.625,-4.3351,-3.786,0.0,0.0,0.0,0.0,0.0,0.0,0.0,0.0,0.0,0.0,0.0,0.0,0.0,0.0,0.0,0.0,0.0,0.0,0.0,0.0,0.0,0.0,0.0,0.0,0.0,0.0,0.0,0.0,0.0,0.0,0.0,0.0,0.0,0.0,0.0,0.0,0.0,0.0,0.0,0.0,0.0,0.0,0.0,0.0,0.0,0.0,0.0,0.0,0.0,0.0,0.0,0.0,0.0,0.0,0.0,0.0,0.0,0.0,0.0,0.0,0.0,0.0,0.0,0.0,0.0,0.0,0.0,0.0,0.0,0.0,0.0,0.0,0.0,0.0,0.0,0.0,0.0,0.0,0.0,0.0,0.0,0.0,0.0,0.0,0.0,0.0,0.0,0.0,0.0,0.0,0.0,0.0,0.0,0.0,0.0,0.0,0.0,0.0,0.0,0.0,0.0,0.0,0.0,0.0,-3.99,-4.5755,-4.7516,-4.7957,-4.7186,-4.5718,-4.2763,-3.7823,0.0,0.0,0.0,0.0,0.0,0.0,0.0,0.0,0.0,0.0,0.0,0.0,0.0,0.0,0.0,0.0,0.0,0.0,0.0,0.0,0.0,0.0,0.0,0.0,0.0,0.0,0.0,0.0,0.0,0.0,0.0,0.0,0.0,0.0,0.0,0.0,0.0,0.0,0.0,0.0,0.0,0.0,0.0,0.0,0.0,0.0,0.0,0.0,0.0,0.0,0.0,0.0,0.0,0.0,0.0,0.0,0.0,0.0,0.0,0.0,0.0,0.0,0.0,0.0,0.0,0.0,0.0,0.0,0.0,0.0,0.0,0.0,0.0,0.0,0.0,0.0,0.0,0.0,0.0,0.0,0.0,0.0,0.0,0.0,0.0,0.0,0.0,0.0,0.0,0.0,0.0,0.0,0.0,0.0,0.0,0.0,0.0,0.0,0.0,0.0,0.0,0.0,0.0,-3.8072,-4.0926,-4.6146,-4.6708,-4.6654,-4.663,-4.4453,-4.1506,-3.7756,-3.4316,0.0,0.0,0.0,0.0,0.0,0.0,0.0,0.0,0.0,0.0,0.0,0.0,0.0,0.0,0.0,0.0,0.0,0.0,0.0,0.0,0.0,0.0,0.0,0.0,0.0,0.0,0.0,0.0,0.0,0.0,0.0,0.0,0.0,0.0,0.0,0.0,0.0,0.0,0.0,0.0,0.0,0.0,0.0,0.0,0.0,0.0,0.0,0.0,0.0,0.0,0.0,0.0,0.0,0.0,0.0,0.0,0.0,0.0,0.0,0.0,0.0,0.0,0.0,0.0,0.0,0.0,0.0,0.0,0.0,0.0,0.0,0.0,0.0,0.0,0.0,0.0,0.0,0.0,0.0,0.0,0.0,0.0,0.0,0.0,0.0,0.0,0.0,0.0,0.0,0.0,0.0,0.0,0.0,0.0,0.0,0.0,0.0,0.0,0.0,0.0,0.0,0.0,-4.0487,-4.2272,-4.5538,-4.5515,-4.533,-4.5422,-4.2923,-4.0042,-3.7062,-3.306,0.0,0.0,0.0,0.0,0.0,0.0,0.0,0.0,0.0,0.0,0.0,0.0,0.0,0.0,0.0,0.0,0.0,0.0,0.0,0.0,0.0,0.0,0.0,0.0,0.0,0.0,0.0,0.0,0.0,0.0,0.0,0.0,0.0,0.0,0.0,0.0,0.0,0.0,0.0,0.0,0.0,0.0,0.0,0.0,0.0,0.0,0.0,0.0,0.0,0.0,0.0,0.0,0.0,0.0,0.0,0.0,0.0,0.0,0.0,0.0,0.0,0.0,0.0,0.0,0.0,0.0,0.0,0.0,0.0,0.0,0.0,0.0,0.0,0.0,0.0,0.0,0.0,0.0,0.0,0.0,0.0,0.0,0.0,0.0,0.0,0.0,0.0,0.0,0.0,0.0,0.0,0.0,0.0,0.0,0.0,0.0,0.0,0.0,0.0,0.0,0.0,0.0,-4.0719,-4.3944,-4.4321,-4.4901,-4.4746,-4.3336,-4.1161,-3.846,-3.5208,-3.1422,0.0,0.0,0.0,0.0,0.0,0.0,0.0,0.0,0.0,0.0,0.0,0.0,0.0,0.0,0.0,0.0,0.0,0.0,0.0,0.0,0.0,0.0,0.0,0.0,0.0,0.0,0.0,0.0,0.0,0.0,0.0,0.0,0.0,0.0,0.0,0.0,0.0,0.0,0.0,0.0,0.0,0.0,0.0,0.0,0.0,0.0,0.0,0.0,0.0,0.0,0.0,0.0,0.0,0.0,0.0,0.0,0.0,0.0,0.0,0.0,0.0,0.0,0.0,0.0,0.0,0.0,0.0,0.0,0.0,0.0,0.0,0.0,0.0,0.0,0.0,0.0,0.0,0.0,0.0,0.0,0.0,0.0,0.0,0.0,0.0,0.0,0.0,0.0,0.0,0.0,0.0,0.0,0.0,0.0,0.0,0.0,0.0,0.0,0.0,0.0,0.0,0.0,-3.8261,-4.1186,0.0,-4.2871,-4.2673,-4.2463,-4.0481,-3.7791,-3.4323,0.0,0.0,0.0,0.0,0.0,0.0,0.0,0.0,0.0,0.0,0.0,0.0,0.0,0.0,0.0,0.0,0.0,0.0,0.0,0.0,0.0,0.0,0.0,0.0,0.0,0.0,0.0,0.0,0.0,0.0,0.0,0.0,0.0,0.0,0.0,0.0,0.0,0.0,0.0,0.0,0.0,0.0,0.0,0.0,0.0,0.0,0.0,0.0,0.0,0.0,0.0,0.0,0.0,0.0,0.0,0.0,0.0,0.0,0.0,0.0,0.0,0.0,0.0,0.0,0.0,0.0,0.0,0.0,0.0,0.0,0.0,0.0,0.0,0.0,0.0,0.0,0.0,0.0,0.0,0.0,0.0,0.0,0.0,0.0,0.0,0.0,0.0,0.0,0.0,0.0,0.0,0.0,0.0,0.0,0.0,0.0,0.0,0.0,0.0,0.0,0.0,0.0,-3.3736,-3.7183,-3.989,0.0,-4.1339,-4.118,-4.1116,-3.8932,-3.6261,-3.3104,0.0,0.0,0.0,0.0,0.0,0.0,0.0,0.0,0.0,0.0,0.0,0.0,0.0,0.0,0.0,0.0,0.0,0.0,0.0,0.0,0.0,0.0,0.0,0.0,0.0,0.0,0.0,0.0,0.0,0.0,0.0,0.0,0.0,0.0,0.0,0.0,0.0,0.0,0.0,0.0,0.0,0.0,0.0,0.0,0.0,0.0,0.0,0.0,0.0,0.0,0.0,0.0,0.0,0.0,0.0,0.0,0.0,0.0,0.0,0.0,0.0,0.0,0.0,0.0,0.0,0.0,0.0,0.0,0.0,0.0,0.0,0.0,0.0,0.0,0.0,0.0,0.0,0.0,0.0,0.0,0.0,0.0,0.0,0.0,0.0,0.0,0.0,0.0,0.0,0.0,0.0,0.0,0.0,0.0,0.0,0.0,0.0,0.0,0.0,0.0,0.0,0.0,-3.322,-3.7956,-4.0899,-4.018,-4.073,-4.0595,-3.9106,-3.6231,-3.3558,0.0,0.0,0.0,0.0,0.0,0.0,0.0,0.0,0.0,0.0,0.0,0.0,0.0,0.0,0.0,0.0,0.0,0.0,0.0,0.0,0.0,0.0,0.0,0.0,0.0,0.0,0.0,0.0,0.0,0.0,0.0,0.0,0.0,0.0,0.0,0.0,0.0,0.0,0.0,0.0,0.0,0.0,0.0,0.0,0.0,0.0,0.0,0.0,0.0,0.0,0.0,0.0,0.0,0.0,0.0,0.0,0.0,0.0,0.0,0.0,0.0,0.0,0.0,0.0,0.0,0.0,0.0,0.0,0.0,0.0,0.0,0.0,0.0,0.0,0.0,0.0,0.0,0.0,0.0,0.0,0.0,0.0,0.0,0.0,0.0,0.0,0.0,0.0,0.0,0.0,0.0,0.0,0.0,0.0,0.0,0.0,0.0,0.0,0.0,0.0,0.0,0.0,0.0,-3.3152,-3.7077,-3.9749,-4.0079,-4.0282,-4.002,-3.9073,-3.7212,-3.4472,-3.0683,0.0,0.0,0.0,0.0,0.0,0.0,0.0,0.0,0.0,0.0,0.0,0.0,0.0,0.0,0.0,0.0,0.0,0.0,0.0,0.0,0.0,0.0,0.0,0.0,0.0,0.0,0.0,0.0,0.0,0.0,0.0,0.0,0.0,0.0,0.0,0.0,0.0,0.0,0.0,0.0,0.0,0.0,0.0,0.0,0.0,0.0,0.0,0.0,0.0,0.0,0.0,0.0,0.0,0.0,0.0,0.0,0.0,0.0,0.0,0.0,0.0,0.0,0.0,0.0,0.0,0.0,0.0,0.0,0.0,0.0,0.0,0.0,0.0,0.0,0.0,0.0,0.0,0.0,0.0,0.0,0.0,0.0,0.0,0.0,0.0,0.0,0.0,0.0,0.0,0.0,0.0,0.0,0.0,0.0,0.0,0.0,0.0,0.0,0.0,0.0,0.0,0.0,-3.266,-3.5989,-3.8387,-3.9116,-3.9156,-3.8785,-3.7757,-3.6605,-3.4054,-2.9661,0.0,0.0,0.0,0.0,0.0,0.0,0.0,0.0,0.0,0.0,0.0,0.0,0.0,0.0,0.0,0.0,0.0,0.0,0.0,0.0,0.0,0.0,0.0,0.0,0.0,0.0,0.0,0.0,0.0,0.0,0.0,0.0,0.0,0.0,0.0,0.0,0.0,0.0,0.0,0.0,0.0,0.0,0.0,0.0,0.0,0.0,0.0,0.0,0.0,0.0,0.0,0.0,0.0,0.0,0.0,0.0,0.0,0.0,0.0,0.0,0.0,0.0,0.0,0.0,0.0,0.0,0.0,0.0,0.0,0.0,0.0,0.0,0.0,0.0,0.0,0.0,0.0,0.0,0.0,0.0,0.0,0.0,0.0,0.0,0.0,0.0,0.0,0.0,0.0,0.0,0.0,0.0,0.0,0.0,0.0,0.0,0.0,0.0,0.0,0.0,0.0,0.0,-3.1906,-3.4833,-3.6982,-3.7726,-3.7758,-3.715,-3.5806,-3.4947,-3.2773,-2.8658,0.0,0.0,0.0,0.0,0.0,0.0,0.0,0.0,0.0,0.0,0.0,0.0,0.0,0.0,0.0,0.0,0.0,0.0,0.0,0.0,0.0,0.0,0.0,0.0,0.0,0.0,0.0,0.0,0.0,0.0,0.0,0.0,0.0,0.0,0.0,0.0,0.0,0.0,0.0,0.0,0.0,0.0,0.0,0.0,0.0,0.0,0.0,0.0,0.0,0.0,0.0,0.0,0.0,0.0,0.0,0.0,0.0,0.0,0.0,0.0,-3.0831,0.0,0.0,0.0,0.0,0.0,0.0,0.0,0.0,0.0,0.0,0.0,0.0,0.0,0.0,0.0,0.0,0.0,0.0,0.0,0.0,0.0,0.0,0.0,0.0,0.0,0.0,0.0,0.0,0.0,0.0,0.0,0.0,0.0,0.0,0.0,0.0,0.0,0.0,0.0,0.0,0.0,-3.13,-3.4182,-3.6414,-3.7694,-3.7338,-3.6662,-3.5774,-3.4526,-3.2453,-2.9293,-2.6955,0.0,0.0,0.0,0.0,0.0,0.0,0.0,0.0,0.0,0.0,0.0,0.0,0.0,0.0,0.0,0.0,0.0,0.0,0.0,0.0,0.0,0.0,0.0,0.0,0.0,0.0,0.0,0.0,0.0,0.0,0.0,0.0,0.0,0.0,0.0,0.0,0.0,0.0,0.0,0.0,0.0,0.0,0.0,0.0,0.0,0.0,0.0,0.0,0.0,0.0,0.0,0.0,0.0,0.0,0.0,0.0,0.0,0.0,0.0,0.0,-3.184,0.0,0.0,0.0,0.0,0.0,0.0,0.0,0.0,0.0,0.0,0.0,0.0,0.0,0.0,0.0,0.0,0.0,0.0,0.0,0.0,0.0,0.0,0.0,0.0,0.0,0.0,0.0,0.0,0.0,0.0,0.0,0.0,0.0,0.0,0.0,0.0,0.0,0.0,0.0,0.0,-3.0106,-3.2632,-3.4581,-3.5605,-3.5417,-3.492,-3.4208,-3.3498,-3.1889,-2.9144,-2.7433,0.0,0.0,0.0,0.0,0.0,0.0,0.0,0.0,0.0,0.0,0.0,0.0,0.0,0.0,0.0,0.0,0.0,0.0,0.0,0.0,0.0,0.0,0.0,0.0,0.0,0.0,0.0,0.0,0.0,0.0,0.0,0.0,0.0,0.0,0.0,0.0,0.0,0.0,0.0,0.0,0.0,0.0,0.0,0.0,0.0,0.0,0.0,0.0,0.0,0.0,0.0,0.0,0.0,0.0,-3.6712,-3.7111,-3.6586,-3.6609,-3.688,-3.4684,-3.3991,-3.4256,0.0,0.0,0.0,0.0,0.0,0.0,0.0,0.0,0.0,0.0,0.0,0.0,0.0,0.0,0.0,0.0,0.0,0.0,0.0,0.0,0.0,0.0,0.0,0.0,0.0,-3.1424,-3.0913,0.0,0.0,0.0,0.0,0.0,0.0,0.0,0.0,0.0,0.0,0.0,0.0,-2.9042,-3.1192,-3.2766,-3.3425,-3.3395,-3.3095,-3.2557,-3.2378,-3.133,-2.8936,-2.789,-2.626,0.0,0.0,0.0,0.0,0.0,0.0,0.0,0.0,0.0,0.0,0.0,0.0,0.0,0.0,0.0,0.0,0.0,0.0,0.0,0.0,0.0,0.0,0.0,0.0,0.0,0.0,0.0,0.0,0.0,0.0,0.0,0.0,-3.2792,-3.2842,0.0,0.0,0.0,0.0,0.0,0.0,0.0,0.0,0.0,0.0,0.0,0.0,0.0,0.0,-3.6508,-3.8191,-3.9044,-3.9044,-4.0074,-4.0322,-3.9973,-3.9898,-3.9647,-3.9195,-3.8415,0.0,-3.4552,-3.3386,0.0,0.0,0.0,0.0,0.0,0.0,0.0,0.0,0.0,0.0,0.0,0.0,0.0,0.0,0.0,0.0,0.0,0.0,0.0,0.0,0.0,0.0,-3.3252,-3.2153,-3.3017,-3.3604,0.0,-2.9355,-2.7165,-2.6153,0.0,0.0,0.0,0.0,0.0,0.0,0.0,0.0,-2.9282,-3.1269,-3.2766,-3.3425,-3.2976,-3.2617,-3.2497,-3.1959,-3.1002,-2.9535,-2.8809,-2.7455,-2.5385,-2.3486,0.0,0.0,0.0,0.0,0.0,0.0,0.0,0.0,0.0,0.0,0.0,0.0,0.0,0.0,0.0,0.0,0.0,0.0,0.0,0.0,0.0,0.0,0.0,0.0,0.0,0.0,0.0,0.0,0.0,-3.2943,-3.3897,-3.3571,-3.337,-3.2667,0.0,0.0,0.0,0.0,0.0,0.0,0.0,0.0,0.0,-3.6157,-3.7287,-3.8266,-3.9044,-4.0099,-4.0777,-4.1078,-4.158,-4.1831,-4.1882,-4.158,-4.1128,-4.0601,-4.0049,-3.8743,-3.6885,-3.4851,-3.3244,-3.1964,0.0,0.0,0.0,0.0,0.0,0.0,-3.1797,0.0,0.0,0.0,0.0,0.0,0.0,0.0,0.0,0.0,0.0,0.0,0.0,0.0,0.0,-3.2947,-3.3378,-3.3631,-3.2744,-3.1575,-3.0103,0.0,-2.732,-2.6063,-2.3251,0.0,0.0,0.0,0.0,0.0,-2.9382,-3.0971,-3.2049,-3.2318,-3.2108,-3.1929,-3.1929,-3.1301,-3.0552,-2.9681,-2.8966,-2.7859,-2.6243,-2.4986,-2.352,0.0,0.0,0.0,0.0,0.0,0.0,0.0,0.0,0.0,0.0,0.0,0.0,0.0,0.0,0.0,0.0,0.0,0.0,0.0,0.0,0.0,0.0,0.0,0.0,0.0,0.0,0.0,0.0,-3.4198,-3.5152,-3.46,-3.5152,-3.47,0.0,0.0,0.0,0.0,0.0,0.0,-3.5705,-3.6684,-3.7713,-3.8818,-3.9823,-4.0576,-4.1153,-4.1555,-4.1957,-4.2414,-4.2414,-4.264,-4.2961,-4.2615,-4.1982,-4.125,-4.0902,-4.0099,-3.8894,-3.6533,-3.5152,-3.4374,-3.2842,-3.2164,0.0,-3.2491,-3.239,-3.224,-3.3621,-3.347,-3.2566,-3.2164,0.0,-2.9202,-2.8446,0.0,0.0,0.0,0.0,-3.078,-3.1797,0.0,-3.3387,-3.3298,-3.3467,-3.3487,-3.2916,-3.2958,-3.2384,0.0,-2.9816,-2.9026,-2.5704,0.0,0.0,0.0,0.0,-2.8543,-2.9654,-3.0821,-3.1511,-3.1511,-3.1511,-3.1421,-3.1241,-3.0791,-3.0163,-2.9385,-2.8876,-2.8068,-2.6901,-2.6213,-2.5016,-2.3242,0.0,0.0,0.0,0.0,0.0,0.0,0.0,0.0,0.0,0.0,0.0,0.0,0.0,0.0,0.0,0.0,0.0,0.0,0.0,0.0,0.0,0.0,0.0,0.0,0.0,0.0,0.0,0.0,0.0,-3.6355,-3.7186,0.0,0.0,0.0,0.0,-3.6078,-3.6204,-3.6958,-3.8617,-3.922,-4.0023,-4.1075,-4.1731,-4.2363,-4.2861,-4.2886,-4.2911,-4.2936,-4.2936,-4.2961,-4.2986,-4.2961,-4.2359,-4.1275,-4.125,-4.0676,-3.9546,-3.8341,-3.7211,-3.6179,-3.5002,-3.4223,-3.3771,-3.3796,-3.3796,-3.3847,-3.4474,-3.4299,-3.3796,-3.3771,-3.2315,-3.0507,-3.0471,-2.9705,0.0,0.0,-3.0147,-3.0727,-3.1322,-3.2599,-3.3622,-3.2988,-3.3603,-3.4158,-3.3514,-3.3233,-3.2857,0.0,-3.166,-3.0943,-2.9535,0.0,-2.8397,-2.8397,-2.9026,-2.9714,-3.0372,-3.1062,-3.1511,-3.1511,-3.1511,-3.1241,-3.0612,-3.0522,-2.9983,-2.8727,-2.8607,-2.8278,-2.7585,-2.6926,-2.5914,-2.4545,-2.2622,0.0,0.0,0.0,0.0,0.0,0.0,0.0,0.0,0.0,0.0,0.0,0.0,0.0,0.0,0.0,0.0,0.0,0.0,0.0,0.0,0.0,0.0,0.0,0.0,0.0,0.0,0.0,0.0,-3.8517,-3.9471,0.0,-3.7563,-3.7387,-3.7688,-3.8442,-3.917,-4.0124,-4.1455,-4.2032,-4.2509,-4.2911,-4.3112,-4.3137,-4.2986,-4.2986,-4.2986,-4.2986,-4.2986,-4.2986,-4.2986,-4.2986,-4.2384,-4.1275,-4.1275,-4.0701,-3.9672,-3.9245,-3.8642,-3.7913,-3.6734,-3.6182,-3.5981,-3.5629,-3.5525,-3.555,-3.5705,-3.5403,-3.4776,-3.3721,-3.2842,-3.2064,-3.1336,-3.0834,-3.0633,-3.1185,-3.1486,-3.1763,-3.234,-3.2929,-3.3181,-3.2552,-3.2441,-3.2306,-3.1695,-3.1729,-3.1809,-3.1591,-3.2213,-3.2228,-3.0462,-3.0342,-3.0193,-2.9355,-2.9774,-3.0402,-3.1062,-3.1361,-3.1511,-3.1511,-3.1511,-3.1241,-3.0552,-3.0133,-2.9355,-2.8034,-2.753,-2.6991,-2.6333,-2.6093,-2.5525,-2.4634,-2.352,-2.1964,0.0,0.0,0.0,0.0,0.0,0.0,0.0,0.0,0.0,0.0,0.0,0.0,0.0,0.0,0.0,0.0,0.0,0.0,0.0,0.0,0.0,0.0,0.0,0.0,0.0,0.0,-4.0174,-3.9998,-4.1279,-4.153,-3.9873,-3.9873,-4.0275,-4.1028,-4.158,-4.2384,-4.3489,-4.389,-4.3991,-4.3815,-4.379,-4.3539,-4.2986,-4.2986,-4.2986,-4.2986,-4.2986,-4.2986,-4.2961,-4.2785,-4.2208,-4.1275,-4.11,-4.0551,-3.9697,-3.9697,-3.9471,-3.9069,-3.8115,-3.7638,-3.7387,-3.6883,-3.6556,-3.6405,-3.6405,-3.6006,-3.5307,-3.4274,-3.3646,-3.3219,-3.2466,-3.2114,-3.2039,-3.239,-3.2516,-3.2591,-3.3011,-3.3111,-3.2993,-3.2591,-3.1938,-3.1286,-3.0959,-3.1048,-3.1204,-3.1204,-3.2103,-3.2528,-3.1544,-3.1368,-3.119,-3.0673,-3.0731,-3.1002,-3.1451,-3.1511,-3.1511,-3.1511,-3.1511,-3.1152,-3.0283,-2.9624,-2.8783,-2.7675,-2.6752,-2.6153,-2.5944,-2.5734,-2.5262,-2.4605,-2.352,-2.2203,-2.0688,0.0,0.0,0.0,0.0,0.0,0.0,0.0,0.0,0.0,0.0,0.0,0.0,0.0,0.0,0.0,0.0,0.0,0.0,0.0,0.0,0.0,0.0,0.0,-3.7211,-3.9647,-4.115,-4.0701,-4.2534,-4.3237,-4.1576,-4.1932,-4.274,-4.374,-4.3338,-4.3514,-4.4593,-4.4644,-4.4392,-4.384,-4.3815,-4.3539,-4.2986,-4.2986,-4.2986,-4.2986,-4.2986,-4.2961,-4.2936,-4.2464,-4.1856,-4.1225,-4.0752,-4.0199,-3.9697,-3.9697,-3.9697,-3.9647,-3.9094,-3.8517,-3.7965,-3.7387,-3.6835,-3.6405,-3.6405,-3.6006,-3.5508,-3.5508,-3.4781,-3.3947,-3.3897,-3.352,-3.3093,-3.3093,-3.3111,-3.3111,-3.3111,-3.3111,-3.3111,-3.3111,-3.2215,-3.1411,-3.1386,-3.1267,-3.1156,-3.1156,-3.137,-3.1875,-3.2887,-3.1987,-3.1404,-3.2288,-3.187,0.0,-3.1424,-3.1453,-3.1482,-3.1482,-3.1452,-3.0943,-2.9657,-2.8966,-2.8278,-2.756,-2.6303,-2.5884,-2.6512,-2.5884,-2.5232,-2.4552,-2.267,-2.1356,-2.0661,0.0,0.0,0.0,0.0,0.0,0.0,0.0,0.0,0.0,0.0,0.0,0.0,0.0,0.0,0.0,0.0,0.0,0.0,0.0,0.0,0.0,-3.7513,-3.9421,-3.9572,-4.1279,-4.276,-4.3413,-4.4392,-4.4844,-4.4392,-4.4091,-4.4066,-4.4367,-4.4644,-4.492,-4.5246,-4.5246,-4.4995,-4.4418,-4.4016,-4.3539,-4.2986,-4.2986,-4.2986,-4.2986,-4.2986,-4.2816,-4.2439,-4.2288,-4.163,-4.0727,-4.0576,-4.0199,-3.9697,-3.9697,-3.9697,-3.9647,-3.9094,-3.8768,-3.8517,-3.7538,-3.6835,-3.6405,-3.6405,-3.6304,-3.6081,-3.5633,-3.5282,-3.4906,-3.4148,-3.3796,-3.3596,-3.3194,-3.3111,-3.3111,-3.3111,-3.3111,-3.3111,-3.3111,-3.2516,-3.1863,-3.1461,-3.1073,-3.0661,-3.0254,-3.0215,-3.0666,-3.1827,-3.1378,-3.0807,-3.0584,0.0,0.0,-2.969,-3.0238,-3.0628,-3.0628,-3.0717,-3.0236,-2.8849,-2.8643,-2.7683,0.0,-2.5509,-2.5442,-2.5143,-2.4507,-2.3859,-2.3233,-2.2222,-2.1154,0.0,0.0,0.0,0.0,0.0,0.0,0.0,0.0,0.0,0.0,0.0,0.0,0.0,0.0,0.0,0.0,0.0,0.0,0.0,0.0,0.0,0.0,-3.9647,-4.1455,-4.2133,-4.3062,-4.3991,-4.4869,-4.5472,-4.5824,-4.5824,-4.5321,-4.5095,-4.5321,-4.5422,-4.5598,-4.5824,-4.5623,-4.5221,-4.4644,-4.4091,-4.3539,-4.2986,-4.2986,-4.2986,-4.2986,-4.2735,-4.2514,-4.2187,-4.1735,-4.1128,0.0,-4.0275,-3.9998,-3.9697,-3.9697,-3.9697,0.0,0.0,0.0,0.0,0.0,-3.6681,-3.6405,-3.6405,-3.6405,-3.6355,-3.5981,-3.5683,-3.5332,-3.45,-3.4073,-3.3796,-3.3244,-3.3111,-3.3111,-3.3111,-3.3111,-3.3111,-3.3111,-3.2641,-3.2064,-3.1512,-3.0984,-3.0457,-2.9905,0.0,0.0,-3.0734,-3.069,-3.0453,-3.0256,-2.9683,-2.9247,0.0,-2.9442,-2.9752,-2.9752,-2.9833,-2.9318,-2.8024,-2.7708,0.0,0.0,0.0,-2.4404,-2.3791,-2.3386,0.0,0.0,0.0,0.0,0.0,0.0,0.0,0.0,-2.1216,-2.1301,0.0,0.0,0.0,0.0,0.0,0.0,0.0,0.0,0.0,0.0,0.0,0.0,0.0,0.0,0.0,0.0,-4.1284,-4.2718,-4.4435,-4.4469,-4.4561,-4.5321,-4.5824,-4.6125,-4.6125,-4.5673,-4.5598,-4.6075,-4.5673,-4.5598,-4.61,0.0,0.0,0.0,0.0,-4.3463,-4.2986,-4.2986,-4.2986,-4.2961,-4.2464,-4.2162,-4.2087,-4.0978,-4.0475,-4.04,-3.9898,-3.9697,-3.9697,-3.9697,-3.9697,-3.9697,-3.9622,-3.8944,-3.7889,-3.6835,-3.6455,0.0,0.0,0.0,0.0,-3.6405,-3.6031,-3.5483,-3.4856,-3.4374,-3.3872,-3.3244,-3.3111,-3.3111,-3.3111,-3.3111,-3.3111,-3.3111,-3.2692,-3.2139,-3.1512,-3.1035,-3.0507,-2.9905,-2.9804,-2.9804,-2.9804,-2.9956,-3.0147,-3.044,-2.9935,0.0,-2.8798,-2.8812,-2.8844,-2.8844,0.0,0.0,-2.7171,-2.6538,-2.5905,-2.519,-2.4119,-2.3267,-2.2713,-2.269,-2.264,-2.2585,-2.2585,-2.2782,-2.3198,-2.3329,-2.3356,-2.3253,-2.1634,-2.1829,0.0,0.0,0.0,0.0,0.0,0.0,0.0,0.0,0.0,0.0,0.0,0.0,0.0,0.0,0.0,-3.9159,-4.0458,-4.2317,-4.4969,-4.3752,-4.3128,-4.4594,-4.4895,-4.4945,-4.4945,-4.4844,-4.4844,-4.4945,-4.4844,-4.4844,-4.4945,-4.4418,0.0,-4.3966,-4.3413,-4.3087,-4.2986,-4.2986,-4.2986,-4.2961,0.0,0.0,-4.148,-4.0827,-4.0275,-3.9848,-3.9747,-3.9697,-3.9697,-3.9697,-3.9697,-3.9647,-3.9195,-3.8617,-3.7914,-3.7262,-3.6782,-3.6405,-3.6405,-3.6405,-3.6405,-3.6405,-3.6329,-3.6031,-3.5027,-3.465,0.0,-3.3345,-3.3111,-3.3111,-3.3111,-3.3111,-3.3111,-3.3111,-3.2993,-3.2641,-3.1612,-3.1311,-3.0959,-2.998,-2.9804,-2.9804,-2.9804,-2.9454,-2.9022,-2.8656,-2.8129,-2.7601,-2.7037,-2.7537,-2.7966,-2.7966,-2.8089,-2.7673,-2.6417,-2.6244,-2.5486,-2.3815,-2.4014,-2.3924,-2.3267,-2.3259,-2.299,-2.2432,-2.2432,-2.2271,-2.1884,-2.291,-2.3098,-2.2524,-2.2746,-2.3061,0.0,0.0,0.0,0.0,0.0,0.0,0.0,0.0,0.0,0.0,0.0,-3.5866,-3.6299,0.0,-3.9109,-4.0677,-4.1579,-4.2928,-4.5535,-4.4413,-4.3733,-4.4903,-4.4794,-4.4618,-4.4618,-4.4618,-4.4618,-4.4618,-4.4618,-4.4618,-4.4618,-4.4091,-4.379,-4.379,-4.3263,-4.2986,-4.2986,-4.2986,-4.2986,-4.2961,-4.2133,-4.1605,-4.125,-4.0475,-3.9948,-3.9697,-3.9697,-3.9697,-3.9697,-3.9697,-3.9521,-3.922,-3.8668,-3.8266,-3.7914,-3.7086,-3.6656,-3.6405,-3.6405,-3.6405,-3.6405,-3.6405,-3.6405,-3.6204,-3.5052,-3.468,-3.45,-3.3395,-3.3111,-3.3111,-3.3111,-3.3111,-3.3111,-3.3111,-3.3111,-3.2842,-3.1989,-3.1587,-3.116,-3.0357,-2.998,-2.9804,-2.9804,-2.9553,-2.9076,-2.8222,-2.7871,-2.7394,-2.66,-2.685,-2.7095,-2.7095,-2.7203,-2.6778,-2.5536,-2.4962,-2.423,-2.3251,-2.3545,-2.3482,-2.2876,-2.286,-2.2688,-2.2349,-2.2349,-2.2334,-2.2322,-2.293,-2.3085,-2.2723,-2.3088,-2.3465,0.0,0.0,0.0,0.0,0.0,0.0,0.0,-3.3694,-3.5734,-3.7097,-3.6922,-3.7103,-3.8966,-3.8839,-3.9446,-4.2479,-4.2946,-4.3662,-4.5835,-4.4951,-4.4252,-4.4684,-4.4469,-4.4292,-4.4292,-4.4292,-4.4292,-4.4292,-4.4292,-4.4292,-4.4292,-4.389,-4.3639,-4.3639,-4.3212,-4.2986,-4.2986,-4.2986,-4.2911,-4.2811,-4.1806,-4.1225,-4.11,-4.0149,-3.9697,-3.9697,-3.9697,-3.9697,-3.9697,-3.9697,-3.9371,-3.8869,-3.8241,-3.7939,-3.7739,-3.6782,-3.6405,-3.6405,-3.6405,-3.6405,-3.6405,-3.6405,-3.6405,-3.6204,-3.5052,-3.468,-3.45,-3.3395,-3.3111,-3.3111,-3.3111,-3.3111,-3.3111,-3.3111,-3.3111,-3.2918,-3.234,-3.1788,-3.1235,-3.0708,-3.0181,-2.9804,-2.9804,-2.9804,-2.9453,-2.8423,-2.8172,-2.7745,-2.6776,-2.6549,-2.6499,-2.6499,-2.6499,-2.6047,-2.4876,-2.3847,-2.3221,-2.312,-2.3095,-2.292,-2.2468,-2.2472,-2.2472,-2.2472,-2.2472,-2.2669,-2.3095,-2.3095,-2.3095,-2.3095,-2.3095,-2.3454,-3.0916,-3.0363,-3.0856,-3.3273,-3.3817,-3.4536,0.0,-3.7788,-3.8136,-4.0359,-3.9556,-3.8985,-4.0775,-4.1366,-4.1898,-4.2912,-4.2946,-4.3542,-4.531,-4.3731,-4.2257,-4.191,-4.2643,-4.3162,-4.3162,-4.3162,-4.3162,-4.3162,-4.3162,-4.3162,-4.3162,-4.3112,-4.3062,-4.3062,-4.3011,-4.2986,-4.2986,-4.2986,-4.2791,-4.2288,-4.163,-4.1025,-4.0601,-3.9973,-3.9697,-3.9697,-3.9697,-3.9697,-3.9697,-3.9697,-3.9371,-3.8869,-3.8241,-3.7713,-3.7211,-3.6631,-3.6405,-3.6405,-3.6405,-3.6405,-3.6405,-3.6405,-3.6405,-3.6204,-3.5052,-3.468,-3.45,-3.3395,-3.3111,-3.3111,-3.3111,-3.3111,-3.3111,-3.3111,-3.3111,-3.2918,-3.234,-3.1788,-3.1235,-3.0708,-3.0181,-2.9804,-2.9804,-2.9804,-2.9578,-2.8888,-2.8423,-2.7871,-2.7304,-2.6801,-2.6499,-2.6499,-2.6499,-2.6047,-2.4876,-2.4255,-2.3678,-2.3145,-2.3095,-2.307,-2.302,-2.302,-2.302,-2.302,-2.302,-2.3045,-2.3095,-2.3095,-2.3095,-2.3095,-2.3095,-2.3125,-3.4243,-3.4023,-3.3937,-3.4105,-3.5042,-3.6105,-3.6562,-3.8096,-3.9376,-3.9426,-4.0611,-4.1318,-4.0167,-4.0831,-4.1911,-4.2827,-4.2946,-4.3518,-4.5235,-4.4383,-4.3256,-4.2397,-4.275,-4.2625,-4.1672,-4.2432,-4.2986,-4.2986,-4.2986,-4.2986,-4.2986,-4.2986,-4.2986,-4.2986,-4.2986,-4.2986,-4.2986,-4.2986,-4.2766,-4.2213,-4.1605,-4.1,-4.0501,-3.9948,-3.9697,-3.9697,-3.9697,-3.9697,-3.9697,-3.9697,-3.917,-3.8341,-3.809,-3.7462,-3.6732,-3.648,-3.6405,-3.6405,-3.6405,-3.6405,-3.6405,-3.6405,-3.6405,-3.6204,-3.5052,-3.468,-3.45,-3.3395,-3.3111,-3.3111,-3.3111,-3.3111,-3.3111,-3.3111,-3.3111,-3.3061,-3.2767,-3.2014,-3.1336,-3.111,-3.0382,-2.9804,-2.9804,-2.9804,-2.9704,-2.9478,-2.8674,-2.7921,-2.7344,-2.6826,-2.6499,-2.6499,-2.6197,-2.5762,-2.531,-2.4481,-2.3904,-2.3653,-2.3296,-2.3095,-2.3095,-2.3095,-2.3095,-2.3095,-2.3095,-2.3095,-2.3095,-2.3095,-2.3095,-2.3095,-2.3095,-2.3095,-3.5459,-3.5369,-3.5143,-3.4639,-3.602,-3.7458,-3.709,-3.8656,-4.0117,-3.988,-4.0952,-4.165,-4.0698,-4.0974,-4.1936,-4.3373,-4.3639,-4.4037,-4.5069,-4.4769,-4.3794,-4.2301,-4.2388,-4.1923,-4.055,-4.1995,-4.2986,-4.2986,-4.2986,-4.2986,-4.2986,-4.2986,-4.2986,-4.2986,-4.2986,-4.2986,-4.2986,-4.2986,-4.2635,-4.1932,-4.153,-4.0924,-4.0275,-3.9873,-3.9697,-3.9697,-3.9697,-3.9697,-3.9697,-3.9697,-3.9019,-3.8015,-3.8015,-3.7337,-3.6405,-3.6405,-3.6405,-3.6405,-3.6405,-3.6405,-3.6405,-3.6405,-3.6405,-3.6204,-3.5052,-3.468,-3.45,-3.3395,-3.3111,-3.3111,-3.3111,-3.3111,-3.3111,-3.3111,-3.3111,-3.3111,-3.3111,-3.219,-3.1386,-3.1386,-3.0532,-2.9804,-2.9804,-2.9804,-2.9804,-2.9804,-2.8825,-2.7971,-2.757,-2.6927,-2.6499,-2.6499,-2.6122,-2.5762,-2.5611,-2.4883,-2.4305,-2.4029,-2.3602,-2.3271,-2.312,-2.3095,-2.3095,-2.3095,-2.3095,-2.3095,-2.3095,-2.3095,-2.3195,-2.3346,-2.3346,-2.3421,-3.2482,-3.2264,-3.291,-3.5795,-3.7462,-3.9021,-4.1518,-4.0883,-4.064,-4.3761,-4.064,-3.8747,-4.3551,-4.3114,-4.2808,-4.5076,-4.5413,-4.5237,-4.4719,-4.4166,-4.2878,-4.0201,-4.0783,-4.0958,0.0,-4.1773,-4.2986,-4.2986,-4.2986,-4.2986,-4.2986,-4.2986,-4.2986,-4.2986,-4.2986,-4.2986,-4.2986,-4.2986,-4.2434,-4.13,-4.13,-4.0777,-3.9722,-3.9697,-3.9697,-3.9697,-3.9697,-3.9697,-3.9697,-3.9697,-3.9019,-3.8015,-3.8015,-3.7337,-3.6405,-3.6405,-3.6405,-3.6405,-3.6405,-3.6405,-3.6405,-3.6405,-3.6405,-3.6204,-3.5052,-3.468,-3.45,-3.3395,-3.3111,-3.3111,-3.3111,-3.3111,-3.3111,-3.3111,-3.3111,-3.3111,-3.3111,-3.219,-3.1386,-3.1386,-3.0532,-2.9804,-2.9804,-2.9804,-2.9804,-2.9804,-2.8825,-2.8097,-2.8072,-2.7178,-2.6499,-2.6499,-2.6474,-2.6248,-2.5636,-2.5561,-2.5109,-2.4079,-2.3979,-2.3728,-2.312,-2.3095,-2.3095,-2.3095,-2.3095,-2.3095,-2.3095,-2.3095,-2.3396,-2.3979,-2.3979,-2.4255,-3.6933,-3.7652,-3.8327,-3.894,-3.8912,-3.8994,-4.0159,-4.0072,-3.9808,-4.0171,-4.0364,-4.0435,-4.0306,-4.0734,-4.1552,-4.3056,-4.389,-4.4292,-4.4116,-4.4242,-4.3412,-4.1071,-4.1429,0.0,0.0,0.0,0.0,-4.2911,-4.269,-4.264,-4.2961,-4.2986,-4.2986,-4.2986,-4.2986,-4.2986,-4.2986,-4.2665,-4.2057,-4.1275,-4.0601,-4.0049,-3.9697,-3.9697,-3.9697,-3.9697,-3.9697,-3.9697,-3.9697,-3.9697,-3.9245,-3.8542,-3.8165,-3.7563,-3.6908,-3.6531,-3.6405,-3.6405,-3.6405,-3.6405,-3.6405,-3.6405,-3.6405,-3.6204,-3.5052,-3.468,-3.45,-3.3395,-3.3111,-3.3111,-3.3111,-3.3111,-3.3111,-3.3111,-3.3111,-3.3111,-3.3111,-3.219,-3.1386,-3.1386,-3.0532,-2.9804,-2.9804,-2.9804,-2.9654,-2.9277,-2.8574,-2.7846,-2.7153,-2.6725,-2.6499,-2.6499,-2.6499,-2.6424,-2.6223,-2.5812,-2.5435,-2.5084,-2.4732,-2.4424,-2.4224,-2.4224,-2.4224,-2.4224,-2.3904,-2.3703,-2.3703,-2.3703,-2.3803,-2.4004,-2.4381,-2.4632,-3.9047,-3.9804,-4.0245,-4.0693,-4.0292,-4.002,-4.0884,-4.0514,-3.9859,-3.9314,-3.9866,-4.009,-3.8873,-3.917,-4.0174,-4.1936,-4.2585,-4.3137,-4.3714,-4.394,-4.3438,-4.1831,-4.1756,-4.1656,0.0,0.0,0.0,-4.261,-4.259,-4.2665,-4.2961,-4.2986,-4.2986,-4.2986,-4.2986,-4.2942,-4.274,-4.2389,-4.1781,-4.0974,-4.0124,-3.9413,-3.8921,-3.9465,-3.9413,-3.8921,-3.9465,-3.9697,-3.9697,-3.9697,-3.9245,-3.8517,-3.814,-3.7538,-3.6883,-3.6531,-3.6405,-3.6405,-3.6405,-3.6405,-3.6405,-3.6405,-3.6405,-3.6204,-3.5052,-3.468,-3.45,-3.3395,-3.3111,-3.3111,-3.3111,-3.3111,-3.3111,-3.3111,-3.3111,-3.3111,-3.3111,-3.219,-3.1386,-3.1386,-3.0532,-2.9804,-2.9804,-2.9804,-2.9603,-2.8988,-2.8448,-2.777,-2.6901,-2.6625,-2.6499,-2.6499,-2.6499,-2.6499,-2.6499,-2.6147,-2.5812,-2.5611,-2.5285,-2.5008,-2.48,-2.48,-2.48,-2.48,-2.4481,-2.4305,-2.4305,-2.4305,-2.4381,-2.4582,-2.4933,-2.5209,-3.8857,-3.869,-3.8832,-4.0946,-4.1364,-4.1715,-4.3348,-4.1997,-4.0586,-4.1106,-3.9087,-3.7705,-3.9164,-3.8617,-3.8793,-4.1559,-4.163,-4.1932,-4.3539,-4.3338,-4.2811,-4.2288,-4.1681,-4.158,-4.2112,0.0,0.0,-4.2137,0.0,-4.2911,-4.2986,-4.2986,-4.2986,-4.2986,-4.2986,-4.271,-4.2213,-4.2162,-4.153,-4.0475,-3.9896,-3.8844,-3.7583,-3.8973,-3.8792,-3.7583,-3.9077,-3.9697,-3.9697,-3.9697,-3.9044,-3.804,-3.8015,-3.7337,-3.6455,-3.6405,-3.6405,-3.6405,-3.6405,-3.6405,-3.6405,-3.6405,-3.638,-3.6179,-3.5052,-3.4655,-3.4449,-3.337,-3.3111,-3.3111,-3.3111,-3.3111,-3.3111,-3.3111,-3.3111,-3.3111,-3.3111,-3.2215,-3.1411,-3.1411,-3.0532,-2.9804,-2.9804,-2.9804,-2.9603,-2.9013,-2.8499,-2.7946,-2.7344,-2.6826,-2.6499,-2.6499,-2.6499,-2.6499,-2.6499,-2.6499,-2.6273,-2.5661,-2.5636,-2.541,-2.4901,-2.4876,-2.4876,-2.4876,-2.485,-2.4825,-2.4825,-2.4825,-2.5109,-2.5586,-2.5636,-2.5971,-4.0447,-4.1181,-4.188,-4.245,-4.1379,-4.0634,-4.2227,-4.0605,-3.8875,-3.9387,-3.7967,-3.6478,-3.6038,-3.6433,-3.7287,-3.8818,-4.0676,-4.2233,-4.3062,-4.3413,-4.3237,-4.2313,-4.2087,-4.1831,-4.158,-4.1656,0.0,0.0,-4.1907,-4.2108,-4.2936,-4.2986,-4.2986,-4.2986,-4.2986,-4.271,-4.2213,-4.1354,-4.0576,-3.9898,-3.8631,-3.7849,-3.7506,-3.7902,-3.7849,-3.7583,-3.9077,-3.9697,-3.9697,-3.9697,-3.927,-3.8617,-3.8191,-3.7588,-3.6983,-3.6556,-3.6405,-3.6405,-3.6405,-3.6405,-3.6405,-3.6405,-3.6081,-3.5583,-3.4926,-3.4424,-3.3972,-3.3269,-3.3111,-3.3111,-3.3111,-3.3111,-3.3111,-3.3111,-3.3111,-3.3111,-3.3111,-3.2516,-3.1888,-3.1461,-3.0532,-2.9804,-2.9804,-2.9804,-2.9754,-2.9603,-2.9076,-2.8373,-2.7394,-2.6826,-2.6499,-2.6499,-2.6499,-2.6499,-2.6499,-2.6499,-2.6424,-2.6273,-2.6273,-2.6223,-2.6072,-2.6072,-2.6072,-2.6072,-2.5611,-2.541,-2.541,-2.541,-2.546,-2.5611,-2.6072,-2.6348,-4.1756,-4.2509,-4.2986,-4.2986,-4.1923,-4.0918,-4.1068,-3.9519,-3.7873,-3.7167,-3.5931,-3.4675,-3.3796,-3.4324,-3.5475,-3.7036,-3.9271,-4.1207,-4.2489,-4.3087,-4.3212,-4.264,-4.2564,-4.2409,-4.2082,-4.2108,-4.2313,0.0,-4.2233,-4.2333,-4.2936,-4.2986,-4.2986,-4.2986,-4.2986,-4.261,-4.1806,-4.0701,-3.9661,-3.8739,-3.7902,-3.6811,-3.5595,-3.6271,-3.6541,-3.6595,0.0,-3.9077,-3.9697,-3.9697,-3.922,-3.8467,-3.814,-3.7513,-3.6784,-3.6531,-3.6405,-3.6405,-3.6405,-3.6405,-3.6405,-3.6405,-3.6157,-3.5755,-3.4951,-3.45,-3.4098,-3.3294,-3.3111,-3.3111,-3.3111,-3.3111,-3.3111,-3.3111,-3.3111,-3.3111,-3.3111,-3.2616,-3.1989,-3.121,-3.0557,-3.008,-2.9829,-2.9804,-2.9804,-2.9804,-2.9302,-2.8662,-2.8072,-2.7318,-2.6776,-2.6524,-2.6499,-2.6499,-2.6499,-2.6499,-2.6499,-2.6499,-2.6499,-2.6499,-2.6499,-2.6499,-2.6499,-2.6499,-2.6172,-2.5963,-2.5963,-2.5963,-2.5963,-2.6021,-2.6348,-2.6499,-4.271,-4.2986,-4.2986,-4.2986,-4.2459,-4.1584,-3.9948,-3.8592,-3.7086,-3.4951,-3.3571,-3.2591,-3.2089,-3.2516,-3.3696,-3.5927,-3.7713,-3.9698,-4.1911,-4.2615,-4.2886,-4.2961,-4.2986,-4.2986,-4.2986,-4.259,-4.2514,-4.2936,-4.2986,-4.2986,-4.2986,-4.2986,-4.2936,-4.2861,-4.2811,-4.2258,-4.1175,-4.0199,-3.8973,-3.753,-3.7293,-3.5759,-3.3134,-3.4403,-3.5013,-3.5123,0.0,0.0,-3.9413,-3.9645,-3.8918,-3.7742,-3.8041,-3.729,-3.6168,-3.6386,-3.648,-3.6405,-3.6405,-3.6405,-3.6405,-3.6405,-3.6355,-3.6128,-3.5127,-3.4726,-3.4399,-3.3445,-3.3144,-3.3111,-3.3111,-3.3111,-3.3111,-3.3111,-3.3111,-3.3111,-3.3111,-3.2616,-3.1913,-3.0909,-3.0658,-3.0432,-2.988,-2.9804,-2.9804,-2.9804,-2.9377,-2.8988,-2.8888,-2.7971,-2.7128,-2.665,-2.6524,-2.6499,-2.6499,-2.6499,-2.6499,-2.6499,-2.6499,-2.6499,-2.6499,-2.6499,-2.6499,-2.6499,-2.6499,-2.6499,-2.6499,-2.6499,-2.6499,-2.6499,-2.6499,-2.6499,-4.2811,-4.2986,-4.2986,-4.2986,-4.1882,-4.0475,-3.9295,-3.7437,-3.5433,-3.3721,-3.2114,-3.1009,-3.0909,-3.1712,-3.3093,-3.5282,-3.7487,-3.9698,-4.1911,-4.2288,-4.2514,-4.2911,-4.2986,-4.2986,-4.2986,-4.2942,0.0,0.0,0.0,-4.2986,-4.2986,-4.2986,-4.2816,-4.2363,-4.1856,-4.1304,-4.0676,-4.0023,-3.8973,-3.7477,-3.6271,-3.4792,-3.3134,-3.336,-3.3473,-3.362,0.0,0.0,-3.7979,-3.9181,-3.8382,-3.6515,-3.8115,-3.7097,-3.492,-3.6475,-3.6807,-3.6405,-3.6405,-3.6405,-3.6405,-3.6405,-3.6056,-3.5608,-3.5408,-3.4731,-3.3997,-3.3796,-3.342,-3.3111,-3.3111,-3.3111,-3.3111,-3.3111,-3.3111,-3.3111,-3.3111,-3.2616,-3.2014,-3.1386,-3.0909,-3.0432,-2.988,-2.9804,-2.9804,-2.9804,-2.9704,-2.9478,-2.8938,-2.7971,-2.7243,-2.7178,-2.6776,-2.6499,-2.6499,-2.6499,-2.6499,-2.6499,-2.6499,-2.6499,-2.6499,-2.6499,-2.6499,-2.6499,-2.6499,-2.6499,-2.6499,-2.6499,-2.6499,-2.6499,-2.6499,-2.6499,-4.2911,-4.3187,-4.3338,-4.3062,-4.1731,-3.9998,-3.8064,-3.5855,-3.3621,-3.1386,-3.0055,-2.9227,-2.8925,-3.0256,-3.1813,-3.3169,-3.5253,-3.7688,-4.0475,-4.0877,-4.1404,-4.2811,-4.2986,-4.2986,-4.2986,-4.2986,-4.2986,0.0,0.0,-4.2986,-4.2986,-4.2986,-4.2766,-4.2238,-4.163,-4.1025,-4.0526,-3.9244,-3.7796,-3.6325,-3.4847,-3.336,-3.1977,-3.1977,-3.2358,-3.3247,0.0,0.0,-3.7583,-3.8243,-3.8145,-3.751,-3.7678,-3.714,-3.6358,-3.6992,-3.701,-3.6712,-3.5718,-3.5379,-3.5379,-3.5379,-3.5637,-3.5906,-3.5583,-3.4931,-3.4274,-3.3972,-3.3495,-3.3111,-3.3111,-3.3111,-3.3111,-3.3111,-3.3111,-3.3111,-3.3111,-3.2867,-3.2416,-3.1562,-3.1185,-3.0758,-2.993,-2.9804,-2.9804,-2.9804,-2.9804,-2.9704,-2.9428,-2.8649,-2.7921,-2.7379,-2.7077,-2.6801,-2.6524,-2.6499,-2.6499,-2.6499,-2.6499,-2.6499,-2.6499,-2.6499,-2.6499,-2.6499,-2.6499,-2.6499,-2.6499,-2.6499,-2.6499,-2.6499,-2.6499,-2.6499,-4.2986,-4.3388,-4.3664,-4.3112,-4.1656,-3.9647,-3.6985,-3.4575,-3.2139,-2.9439,-2.8398,-2.7821,-2.7519,-2.89,-3.0357,-3.1235,-3.3068,-3.5529,-3.8868,-3.9546,-4.0475,-4.2559,-4.2911,-4.2986,-4.2986,-4.2986,0.0,0.0,0.0,0.0,-4.2986,-4.2861,-4.2559,-4.2007,-4.1455,-4.0718,-3.9879,-3.8277,-3.6595,-3.4792,-3.362,-3.2322,-3.0898,-3.0898,-3.1556,-3.2701,0.0,0.0,0.0,-3.6918,-3.722,-3.7467,-3.702,-3.6943,-3.712,-3.7317,-3.7116,-3.6528,-3.4968,-3.419,-3.397,-3.397,-3.4872,-3.5926,-3.5762,-3.5282,-3.4776,-3.4223,-3.3671,-3.3219,-3.3119,-3.3111,-3.3111,-3.3111,-3.3111,-3.3111,-3.3111,-3.3111,-3.2792,-3.1763,-3.1461,-3.1085,-3.0131,-2.988,-2.9804,-2.9804,-2.9804,-2.9804,-2.9804,-2.9402,-2.8725,-2.7745,-2.7519,-2.7243,-2.6725,-2.6675,-2.6625,-2.6499,-2.6499,-2.6499,-2.6499,-2.6499,-2.6499,-2.6499,-2.6499,-2.6499,-2.6499,-2.6499,-2.6499,-2.6499,-2.6499,-2.6499,-4.2986,-4.3388,-4.3664,-4.3112,-4.1354,-3.917,-3.691,-3.4274,-3.1662,-2.9364,-2.8097,-2.7494,-2.7946,-2.8197,-2.9001,-3.106,-3.2416,-3.4399,-3.7688,-3.9044,-4.0325,-4.2087,-4.2715,-4.2986,-4.2986,-4.2986,0.0,0.0,0.0,0.0,0.0,-4.2564,-4.1982,-4.1376,-4.0877,-3.9643,-3.7814,-3.7607,-3.6085,-3.3304,-3.3191,-3.2322,-3.0898,-3.0898,-3.0937,-3.117,0.0,0.0,0.0,-3.4958,-3.4505,-3.3289,-3.6286,-3.608,-3.4491,-3.6995,-3.6825,-3.53,-3.4601,-3.3552,-3.2482,-3.2482,-3.3453,-3.4824,-3.5951,-3.5906,-3.5307,-3.4756,-3.4248,-3.3696,-3.3219,-3.3111,-3.3111,-3.3111,-3.3111,-3.3111,-3.3111,-3.3111,-3.2893,-3.2265,-3.1738,-3.121,-3.0633,-3.0131,-2.9804,-2.9804,-2.9804,-2.9804,-2.9804,-2.9754,-2.9478,-2.8813,-2.8323,-2.7821,-2.7243,-2.7253,-2.7027,-2.6524,-2.6499,-2.6499,-2.6499,-2.6499,-2.6499,-2.6499,-2.6499,-2.6499,-2.6499,-2.6499,-2.6499,-2.6499,-2.6499,-2.6499,-4.2384,-4.3137,-4.3589,-4.271,-4.1078,-3.9019,-3.6436,-3.3928,-3.1587,-2.9339,-2.8047,-2.7379,-2.757,-2.762,-2.8122,-2.9654,-3.0281,-3.1738,-3.5052,-3.6207,-3.7688,-4.035,-4.1455,-4.2258,0.0,0.0,0.0,0.0,0.0,0.0,0.0,-4.1047,-4.0488,-3.9898,-4.0273,-3.9516,-3.753,-3.6595,-3.5123,-3.3077,-3.2207,-3.1498,-3.0898,-3.0898,-3.0898,-3.0995,0.0,0.0,0.0,-3.3733,-3.4016,-3.4196,-3.4648,-3.5134,-3.5556,-3.5489,-3.5372,-3.4902,-3.2712,-3.1593,-3.1235,-3.2028,-3.2682,-3.3403,-3.4775,-3.5122,-3.4956,-3.4731,-3.4098,-3.3345,-3.3187,-3.3111,-3.3111,-3.3111,-3.3111,-3.3111,-3.3111,-3.3111,-3.2893,-3.2315,-3.2039,-3.1612,-3.0758,-3.0432,-3.0181,-2.9854,-2.9804,-2.9804,-2.9804,-2.9804,-2.9704,-2.9478,-2.895,-2.8247,-2.7344,-2.7293,-2.7077,-2.6524,-2.6499,-2.6499,-2.6499,-2.6499,-2.6499,-2.6499,-2.6499,-2.6499,-2.6499,-2.6499,-2.6499,-2.6499,-2.6499,-2.6499,-4.1731,-4.261,-4.3137,-4.2414,-4.0676,-3.8542,-3.606,-3.3696,-3.1304,-2.8906,-2.7952,-2.7398,-2.6901,-2.7179,-2.777,-2.8549,-2.8938,-3.0231,-3.3244,-3.4274,-3.578,-3.8617,-3.9948,-4.1053,0.0,-4.2685,0.0,0.0,0.0,0.0,0.0,-3.8942,-3.8897,-3.8911,-3.9779,-3.9185,-3.6865,-3.5836,-3.4348,-3.2416,-3.1383,-3.0898,-3.0898,-3.0898,-3.0898,0.0,0.0,0.0,0.0,-3.2473,-3.3042,-3.3901,-3.3212,-3.3912,-3.526,-3.4095,-3.3776,-3.3645,-3.1129,-3.0068,-2.9859,-3.0824,-3.1367,-3.1876,-3.2905,-3.3743,-3.4354,-3.4135,-3.3587,-3.3111,-3.3111,-3.3111,-3.3111,-3.3111,-3.3111,-3.3111,-3.3111,-3.3111,-3.2943,-3.2541,-3.234,-3.1913,-3.1009,-3.0708,-3.0432,-2.988,-2.9804,-2.9804,-2.9804,-2.9804,-2.9804,-2.9804,-2.9428,-2.8725,-2.762,-2.7519,-2.7218,-2.6524,-2.6499,-2.6499,-2.6499,-2.6499,-2.6499,-2.6499,-2.6499,-2.6499,-2.6499,-2.6499,-2.6499,-2.6499,-2.6499,-2.6499,-4.1,-4.1756,-4.2213,-4.2213,-4.0074,-3.7588,-3.5884,-3.3395,-3.0627,-2.7867,-2.774,-2.7568,-2.5946,-2.6968,-2.8097,-2.8122,-2.9051,-3.0557,-3.281,-3.4022,-3.5353,-3.701,-3.8265,-3.932,-4.0425,-4.2032,0.0,0.0,0.0,0.0,0.0,0.0,-3.7315,-3.8832,-3.9435,-3.8319,-3.5343,-3.5288,-3.381,-3.0937,-3.0898,-3.0898,-3.0898,-3.0898,0.0,0.0,0.0,0.0,0.0,-3.0937,-3.0957,-3.1073,-3.2035,-3.244,-3.2535,-3.3033,-3.2315,-3.1043,-3.0475,-2.9408,-2.8335,-2.8335,-2.925,-3.0307,-3.0307,-3.1895,-3.3577,-3.2888,-3.2893,-3.3111,-3.3111,-3.3111,-3.3111,-3.3111,-3.3111,-3.3111,-3.3111,-3.3111,-3.3111,-3.3111,-3.2591,-3.2039,-3.1486,-3.0959,-3.0432,-2.988,-2.9804,-2.9804,-2.9804,-2.9804,-2.9804,-2.9804,-2.9779,-2.9327,-2.8197,-2.8097,-2.762,-2.6575,-2.6499,-2.6499,-2.6499,-2.6499,-2.6499,-2.6499,-2.6499,-2.6499,-2.6499,-2.6499,-2.6499,-2.6499,-2.6499,-2.6499,-3.8291,-3.9195,-3.9774,-3.8994,-3.7863,-3.6358,-3.4324,-3.2284,-3.0277,-2.8259,-2.7066,-2.6356,-2.6231,-2.6306,-2.7029,-2.8937,-2.9553,-3.0432,-3.224,-3.4053,-3.5708,-3.7036,-3.9848,-4.1806,0.0,0.0,0.0,0.0,0.0,0.0,0.0,0.0,-3.6342,-3.6848,-3.8713,-3.8267,-3.5343,-3.5288,-3.381,-3.0898,-3.0898,-3.0898,-3.0898,-3.0898,0.0,0.0,0.0,0.0,0.0,-3.0898,-3.0898,-3.0898,-3.0923,-3.1274,-3.173,-3.064,-3.0387,-3.0412,-2.9311,-2.8654,-2.8441,-2.9355,-2.9964,-3.0307,-3.0307,-3.1024,-3.1756,-3.1687,-3.2377,-3.3111,-3.3111,-3.3111,-3.3111,-3.3111,-3.3111,-3.3111,-3.3111,-3.3111,-3.3111,-3.3111,-3.2943,-3.2616,-3.2064,-3.1813,-3.1411,-3.0482,-3.0357,-3.0206,-2.9854,-2.9804,-2.9804,-2.9804,-2.9804,-2.9478,-2.8687,-2.8674,-2.8373,-2.762,-2.7243,-2.7052,-2.7052,-2.67,-2.6675,-2.7052,-2.7052,-2.7253,-2.7595,-2.7595,-2.7394,-2.7077,-2.7394,-2.7193,-3.6182,-3.7236,-3.7863,-3.7312,-3.6307,-3.5072,-3.3488,-3.1461,-2.9421,-2.7602,-2.6405,-2.5678,-2.5639,-2.5798,-2.6695,-2.8825,-2.9327,-3.0105,-3.1964,-3.3596,-3.5328,-3.7262,-4.0199,0.0,0.0,0.0,0.0,0.0,0.0,0.0,0.0,0.0,-3.5804,-3.5681,-3.775,-3.7713,-3.5343,-3.4736,-3.3247,-3.0898,-3.0898,-3.0898,-3.0898,0.0,0.0,0.0,0.0,0.0,0.0,-3.0898,-3.0898,-3.082,-3.0215,-3.0346,-3.0669,-2.9213,-2.9033,-2.9408,-2.8601,-2.8301,-2.8441,-2.925,-2.9565,-2.9525,-2.9361,-2.9682,-3.0189,-3.0629,-3.1567,-3.25,-3.2982,-3.3111,-3.3111,-3.3111,-3.3111,-3.3111,-3.3111,-3.3111,-3.3111,-3.3111,-3.3111,-3.2893,-3.2315,-3.2215,-3.1913,-3.1035,-3.0909,-3.0708,-3.0181,-3.0105,-3.003,-2.9804,-2.9804,-2.9654,-2.9277,-2.9013,-2.8662,-2.8147,-2.7795,-2.7595,-2.7595,-2.7268,-2.7278,-2.7595,-2.7595,-2.777,-2.8097,-2.8097,-2.7921,-2.7595,-2.7946,-2.7745,0.0,-3.5629,-3.6229,-3.6659,-3.5228,-3.3571,-3.3018,-3.0741,0.0,-2.6205,-2.5659,-2.5249,-2.4457,-2.5492,-2.6887,-2.8113,-2.8775,-2.9854,-3.2039,-3.2993,-3.4675,-3.7864,-3.9697,0.0,0.0,0.0,0.0,0.0,0.0,0.0,0.0,0.0,0.0,-3.5146,-3.6487,-3.6595,-3.5288,-3.3845,-3.2358,-3.0898,-3.0898,-3.0898,-3.0898,0.0,0.0,0.0,0.0,0.0,0.0,-3.0898,-3.0879,-3.0762,-2.9902,-2.9551,-2.9434,-2.8594,-2.8301,-2.8301,-2.8301,-2.8301,-2.8301,-2.8301,-2.8301,-2.8223,-2.7885,-2.8268,-2.8936,-2.9653,-3.0468,-3.1356,-3.2525,-3.2896,-3.2939,-3.2853,-3.2982,-3.3068,-3.2982,-3.3025,-3.3111,-3.3111,-3.3111,-3.2893,-3.2365,-3.2265,-3.2089,-3.1537,-3.1461,-3.126,-3.0733,-3.0633,-3.0407,-2.9905,-2.9804,-2.9804,-2.9804,-2.9302,-2.8737,-2.8247,-2.8197,-2.8172,-2.8172,-2.8122,-2.8122,-2.8172,-2.8197,-2.8222,-2.8222,-2.8222,-2.8197,-2.8172,-2.8197,-2.8172,-3.1587,0.0,-3.3119,-3.2817,-3.2365,-3.1838,0.0,-2.9114,-2.6871,-2.5976,-2.4209,-2.3329,-2.5085,-2.5418,-2.652,-3.0055,-3.0733,-3.1436,-3.3244,-3.5805,-3.8266,-4.0272,-4.1656,-4.2283,0.0,0.0,0.0,0.0,0.0,0.0,0.0,0.0,0.0,-3.3642,-3.3957,-3.4515,-3.5288,-3.3845,-3.2358,-3.0898,-3.0898,-3.0898,-3.0898,0.0,0.0,0.0,0.0,0.0,0.0,-3.0898,-3.0684,-3.0312,-2.9785,-2.9375,-2.9004,-2.8496,-2.8301,-2.8301,-2.8301,-2.8301,-2.8301,-2.8301,-2.8301,-2.8281,-2.8184,-2.8439,-2.8788,-2.8667,-2.9171,-2.9897,-3.0192,-3.0956,-3.14,-3.0508,-3.1733,-3.2828,-3.1865,-3.2413,-3.3111,-3.3111,-3.3111,-3.3043,-3.2893,-3.2867,-3.2692,-3.2114,-3.2014,-3.1813,-3.1286,-3.0859,-3.0557,-3.0432,-3.0055,-2.9804,-2.9804,-2.9679,-2.9528,-2.9402,-2.8976,-2.8687,-2.8687,-2.8323,-2.8298,-2.8687,-2.9176,-2.9402,-2.9402,-2.9402,-2.9176,-2.8712,-2.9202,-2.8925,-3.0231,-3.121,-3.2014,-3.1146,-3.0793,-3.0391,-2.9323,-2.7241,-2.5314,-2.4614,-2.2917,-2.2312,-2.4692,-2.4613,-2.5435,-2.9189,-3.0237,-3.1625,-3.463,-3.7236,-3.9496,-4.11,-4.1856,0.0,0.0,0.0,0.0,0.0,0.0,0.0,0.0,0.0,0.0,0.0,-3.3077,-3.3473,-3.4292,-3.2815,-3.171,-3.0898,-3.0898,-3.0898,-3.0898,0.0,0.0,0.0,0.0,0.0,-3.0879,-3.0664,-3.043,-3.0137,-2.9512,-2.9121,-2.8867,-2.8437,-2.8301,-2.8301,-2.8301,-2.8301,-2.8301,-2.8301,-2.8301,-2.8301,-2.8301,-2.8145,-2.8025,-2.8403,-2.8514,-2.868,-2.9258,-2.9852,-3.0214,-2.9555,-3.0866,-3.2064,-3.1356,-3.2196,-3.3111,-3.3111,-3.3111,-3.3111,-3.3111,-3.3111,-3.2968,-3.2641,-3.2616,-3.2416,-3.1838,-3.1512,-3.116,-3.0658,-3.0357,-3.0055,-2.9804,-2.9804,-2.9804,-2.9804,-2.9503,-2.9327,-2.9327,-2.9026,-2.9026,-2.9327,-2.9628,-2.9804,-2.9804,-2.9804,-2.9628,-2.9327,-2.9654,-2.9453,-2.9754,-3.0748,-3.1512,-3.0555,-2.982,-2.9038,-2.7706,-2.5773,-2.3987,-2.3227,-2.2149,-2.197,-2.4127,-2.4025,-2.4605,-2.762,-2.9089,-3.1448,-3.5968,-3.7618,-3.8953,-4.0628,-4.0877,0.0,0.0,0.0,0.0,0.0,0.0,0.0,0.0,0.0,0.0,0.0,-3.2737,-3.2737,-3.2737,-3.1498,-3.0898,-3.0898,-3.0898,-3.0898,-3.0898,-3.0898,0.0,0.0,0.0,0.0,-3.0762,-3.0351,-3.0117,-2.9922,-2.9199,-2.8887,-2.8789,-2.8418,-2.8301,-2.8301,-2.8301,-2.8301,-2.8301,-2.8301,-2.8301,-2.8301,-2.8301,-2.7695,-2.7216,-2.8266,-2.7952,-2.7531,-2.8588,-2.9004,-2.9096,-2.8866,-2.9897,-3.0843,-3.0687,-3.1777,-3.281,-3.281,-3.281,-3.281,-3.281,-3.2655,-3.2612,-3.2785,-3.281,-3.2721,-3.2373,-3.2265,-3.1863,-3.0959,-3.0708,-3.0432,-2.9955,-2.9854,-2.9804,-2.9804,-2.9804,-2.9804,-2.9804,-2.9804,-2.9804,-2.9804,-2.9804,-2.9804,-2.9804,-2.9804,-2.9804,-2.9804,-2.9804,-2.9804,-2.9654,-2.9805,-2.9858,-2.988,-2.8709,-2.7599,-2.7917,-2.6002,-2.4156,-2.4008,-2.2818,-2.2547,-2.4978,-2.5209,-2.5955,-2.8567,-3.016,-3.2591,0.0,0.0,-3.6572,-3.8503,0.0,0.0,0.0,0.0,0.0,0.0,0.0,0.0,0.0,0.0,0.0,0.0,0.0,-3.1208,-3.1208,-3.0995,-3.0898,-3.0898,-3.0898,-3.0898,-3.0898,-3.0898,-3.0898,0.0,0.0,0.0,-3.0293,-3.0234,-2.9766,-2.9101,-2.8965,-2.8711,-2.8379,-2.832,-2.8301,-2.8301,-2.8301,-2.8301,-2.8301,-2.8301,-2.8301,-2.8301,-2.8301,-2.7695,-2.7063,-2.7196,-2.6685,-2.6014,-2.6207,-2.7078,-2.7579,-2.6524,-2.8028,-2.9396,-2.8355,-2.9897,-3.1488,-3.1488,-3.1488,-3.1488,-3.1488,-3.0643,-3.0305,-3.1356,-3.1488,-3.184,-3.2857,-3.2516,-3.2164,-3.1989,-3.116,-3.0583,-3.0507,-3.0055,-2.9804,-2.9804,-2.9804,-2.9804,-2.9804,-2.9804,-2.9804,-2.9804,-2.9804,-2.9804,-2.9804,-2.9804,-2.9804,-2.9804,-2.9804,-2.9804,-2.8246,-2.7917,-2.7824,-2.8257,-2.8,-2.7401,-2.6367,-2.5157,-2.4169,-2.3685,-2.308,-2.3199,-2.5116,-2.5341,-2.6218,-2.9321,-3.0543,-3.231,-3.5606,-3.5344,-3.5373,0.0,0.0,0.0,0.0,0.0,0.0,0.0,0.0,0.0,0.0,0.0,0.0,0.0,0.0,0.0,-3.0898,-3.0898,-3.0898,-3.0898,-3.0898,-3.0898,-3.0898,-3.0898,-3.0762,0.0,0.0,-3.0273,-2.9844,-2.9609,-2.9277,-2.8906,-2.8672,-2.8457,-2.8301,-2.8301,-2.8301,-2.8301,-2.8301,-2.8301,-2.8301,-2.8301,-2.8301,-2.8262,-2.8027,-2.7519,-2.6973,-2.6738,-2.623,-2.5693,-2.5693,-2.6159,-2.6428,-2.582,-2.7125,-2.8262,-2.772,-2.9004,-3.0214,-3.0214,-3.0214,-3.0214,-3.0214,-2.9761,-2.9579,-3.0124,-3.0214,-3.0687,-3.1909,-3.1821,-3.1792,-3.2156,-3.1763,-3.1235,-3.0658,-3.0382,-3.0105,-2.9804,-2.9804,-2.9804,-2.9804,-2.9804,-2.9804,-2.9804,-2.9804,-2.9804,-2.9804,-2.9804,-2.9804,-2.9804,-2.9804,-2.9804,-2.7141,-2.6546,-2.6302,-2.6552,-2.6832,-2.6716,-2.5525,-2.4815,-2.4316,-2.3965,-2.3906,-2.4256,-2.5292,-2.5611,-2.6784,-3.0099,-3.0722,-3.1716,-3.427,-3.3999,0.0,0.0,0.0,0.0,0.0,0.0,0.0,0.0,0.0,0.0,0.0,0.0,0.0,0.0,0.0,0.0,-3.0898,-3.0898,-3.0898,-3.0898,-3.0898,-3.0898,-3.0879,-3.0781,-3.0527,-3.0195,-3.0098,-2.9805,-2.9394,-2.9062,-2.8867,-2.875,-2.8418,-2.8301,-2.8301,-2.8301,-2.8301,-2.8301,-2.8301,-2.8301,-2.8301,-2.8301,-2.8301,-2.8203,-2.7845,-2.7363,-2.6934,-2.6504,-2.6074,-2.5693,-2.5693,-2.5693,-2.5693,-2.5693,-2.6428,-2.7173,-2.7173,-2.8143,-2.9004,-2.9004,-2.9004,-2.9004,-2.9004,-2.8727,-2.8634,-2.8958,-2.9004,-2.951,-3.1,-3.1223,-3.152,-3.2314,-3.229,-3.1788,-3.0708,-3.0507,-3.0256,-2.9829,-2.9804,-2.9804,-2.9804,-2.9804,-2.9804,-2.9804,-2.9804,-2.9804,-2.9804,-2.9804,-2.9804,-2.9804,-2.9804,-2.9804,-2.7579,-2.6783,-2.5964,-2.5295,-2.4331,-2.4272,-2.7071,-2.6013,-2.4746,-2.5918,-2.6152,-2.6084,-2.5761,-2.6671,-2.8416,-3.127,-3.0903,-3.1406,-3.477,0.0,0.0,0.0,0.0,0.0,0.0,0.0,0.0,0.0,0.0,0.0,0.0,0.0,0.0,0.0,0.0,0.0,-3.0898,-3.0898,-3.0898,-3.0898,-3.0898,-3.0898,-3.0879,-3.0449,-3.0234,-3.0176,-2.9785,-2.9375,-2.8965,-2.8926,-2.8691,-2.834,-2.8301,-2.8301,-2.8301,-2.8301,-2.8301,-2.8301,-2.8301,-2.8301,-2.8301,-2.8301,-2.8301,-2.8203,-2.7845,-2.7363,-2.6934,-2.6504,-2.6074,-2.5693,-2.5693,-2.5693,-2.5693,-2.5693,-2.5791,-2.5839,-2.5839,-2.6839,-2.772,-2.772,-2.772,-2.772,-2.772,-2.6764,-2.638,-2.7531,-2.772,-2.8588,-3.0911,-3.1223,-3.1665,-3.2889,-3.2541,-3.1788,-3.0708,-3.0156,-2.9829,-2.9804,-2.9804,-2.9804,-2.9804,-2.9804,-2.9804,-2.9804,-2.9804,-2.9804,-2.9804,-2.9804,-2.9804,-2.9804,-2.9804,-2.9804,-2.6732,-2.6283,-2.5946,-2.5337,-2.4557,-2.4434,-2.6176,-2.6488,-2.666,-2.7422,-2.7578,-2.7519,-2.7363,-2.793,-2.8908,-3.0244,-3.0554,-3.1069,0.0,0.0,0.0,0.0,0.0,0.0,0.0,0.0,0.0,0.0,0.0,0.0,0.0,0.0,0.0,0.0,0.0,0.0,0.0,-3.0898,-3.0742,-3.0469,-3.0762,-3.0742,-3.0449,-3.0273,-2.9902,-2.9394,-2.9238,-2.8926,-2.8535,-2.8535,-2.8437,-2.8301,-2.8301,-2.8301,-2.8301,-2.8301,-2.8301,-2.8301,-2.8301,-2.8301,-2.8301,-2.8301,-2.8301,-2.8164,-2.748,-2.7148,-2.6875,-2.6172,-2.581,-2.5693,-2.5693,-2.5693,-2.5693,-2.5693,-2.5693,-2.5693,-2.5693,-2.6062,-2.6428,-2.6428,-2.6428,-2.6428,-2.6428,-2.6014,-2.5868,-2.6332,-2.6428,-2.703,-2.8727,-2.8958,-2.9442,-3.0687,-3.0308,-2.9981,-2.9963,-2.9488,-2.9355,-2.9765,-2.9804,-2.9804,-2.9804,-2.9804,-2.9804,-2.9804,-2.9804,-2.9804,-2.9804,-2.9804,-2.9804,-2.9804,-2.9804,-2.9804,-2.6467,-2.6256,-2.6244,-2.538,-2.5145,-2.5325,-2.6123,-2.6934,-2.7734,-2.8691,-2.8574,-2.834,-2.8457,-2.873,-2.9062,0.0,-3.0312,0.0,0.0,0.0,0.0,0.0,0.0,0.0,0.0,0.0,0.0,0.0,0.0,0.0,0.0,0.0,0.0,0.0,0.0,0.0,0.0,-3.0547,-3.0312,-3.0,-3.0332,-3.0312,-3.0,-2.9863,-2.9473,-2.8906,-2.8769,-2.8555,-2.8301,-2.8301,-2.8301,-2.8301,-2.8301,-2.8301,-2.8301,-2.8301,-2.8301,-2.8301,-2.8301,-2.8301,-2.8301,-2.8301,-2.8203,-2.7949,-2.7246,-2.6914,-2.666,-2.5888,-2.5693,-2.5693,-2.5693,-2.5693,-2.5693,-2.5693,-2.5693,-2.5693,-2.5693,-2.5693,-2.5693,-2.5693,-2.5693,-2.5693,-2.5693,-2.5693,-2.5693,-2.5693,-2.5693,-2.6159,-2.7458,-2.76,-2.8049,-2.9258,-2.8925,-2.8811,-2.9253,-2.8981,-2.8994,-2.9441,-2.9347,-2.9404,-2.9804,-2.9443,-2.9287,-2.9287,-2.9287,-2.9287,-2.9287,-2.9624,-2.9804,-2.9804,-2.9804,-2.988,-2.6997,-2.6957,-2.6932,-2.5249,-2.5769,-2.6872,-2.7574,-2.7344,-2.7637,-2.9766,-2.9199,-2.8437,-2.8848,-2.8926,-2.9062,-2.9512,-3.0312,0.0,0.0,0.0,0.0,0.0,0.0,0.0,0.0,0.0,0.0,0.0,0.0,0.0,0.0,0.0,0.0,0.0,0.0,0.0,0.0,-2.9785,-2.9626,-2.957,-2.957,-2.957,-2.9607,-2.9121,-2.8926,-2.8887,-2.8476,-2.8301,-2.8301,-2.8301,-2.8301,-2.8301,-2.8301,-2.8301,-2.8301,-2.8301,-2.8301,-2.8301,-2.8301,-2.8301,-2.8301,-2.8301,-2.8008,-2.763,-2.7148,-2.6719,-2.6289,-2.581,-2.5693,-2.5693,-2.5693,-2.5693,-2.5693,-2.5693,-2.5693,-2.5693,-2.5693,-2.5693,-2.5693,-2.5693,-2.5693,-2.5693,-2.5693,-2.5693,-2.5693,-2.5693,-2.5693,-2.6159,-2.741,-2.7579,-2.8049,-2.9235,-2.888,-2.8589,-2.8589,-2.8727,-2.8769,-2.881,-2.8353,-2.8609,-2.974,-2.8688,-2.8084,-2.8084,-2.8084,-2.8084,-2.8084,-2.9248,-2.9804,-2.9804,-2.9804,-3.0105,-2.7419,-2.7627,-2.7894,-2.6468,-2.7423,-2.8631,-2.8548,-2.8457,-2.8789,-3.0371,-3.0117,-2.9668,-2.9805,-2.9824,0.0,-3.0,0.0,0.0,0.0,0.0,0.0,0.0,0.0,0.0,0.0,0.0,0.0,0.0,0.0,0.0,0.0,0.0,0.0,0.0,0.0,0.0,0.0,0.0,-2.9707,-2.9121,-2.9121,-2.9121,-2.9101,-2.8984,-2.8769,-2.8476,-2.834,-2.8301,-2.8301,-2.8301,-2.8301,-2.8301,-2.8301,-2.8301,-2.8301,-2.8301,-2.8301,-2.8301,-2.8301,-2.8301,-2.8301,-2.8301,-2.8008,-2.763,-2.7148,-2.6719,-2.6289,-2.581,-2.5693,-2.5693,-2.5693,-2.5693,-2.5693,-2.5693,-2.5693,-2.5693,-2.5693,-2.5693,-2.5693,-2.5693,-2.5693,-2.5693,-2.5693,-2.5693,-2.5693,-2.5693,-2.5693,-2.5839,-2.6207,-2.6235,-2.638,-2.6744,-2.6669,-2.6728,-2.7207,-2.7293,-2.7502,-2.8017,-2.7625,-2.7772,-2.8569,-2.7585,-2.6953,-2.6953,-2.7723,-2.8084,-2.8084,-2.9248,-2.9804,-2.9804,-3.0181,-3.0457,-2.8674,-2.916,-2.9624,-2.9183,-3.0088,-3.0969,-3.0411,-2.9996,-2.9922,-3.0723,-3.0527,-3.0195,-3.0195,-3.0195,0.0,0.0,0.0,0.0,0.0,0.0,0.0,0.0,0.0,0.0,0.0,0.0,0.0,0.0,0.0,0.0,0.0,0.0,0.0,0.0,0.0,0.0,0.0,0.0,0.0,-2.8672,-2.8672,-2.8672,-2.8672,-2.8672,-2.8535,-2.8301,-2.8301,-2.8301,-2.8301,-2.8301,-2.8301,-2.8301,-2.8301,-2.8301,-2.8301,-2.8301,-2.8301,-2.8301,-2.8301,-2.8301,-2.8301,-2.8301,-2.7891,-2.7363,-2.709,-2.6602,-2.6074,-2.5771,-2.5693,-2.5693,-2.5693,-2.5693,-2.5693,-2.5693,-2.5693,-2.5693,-2.5693,-2.5693,-2.5693,-2.5693,-2.5693,-2.5693,-2.5693,-2.5693,-2.5693,-2.5693,-2.5693,-2.5693,-2.5693,-2.5693,-2.5693,-2.5693,-2.5693,-2.5847,-2.6263,-2.6527,-2.6876,-2.73,-2.6933,-2.6886,-2.7295,-2.6329,-2.5797,-2.5797,-2.6438,-2.7012,-2.7481,-2.8171,-2.891,-2.9804,-2.9673,-3.0084,-3.0142,-3.0909,-3.1622,-3.2498,-3.3126,-3.3403,-3.2629,-3.1751,-3.1054,-3.0957,-3.0547,-3.0254,-3.0254,-3.0254,-3.0254,0.0,0.0,0.0,0.0,0.0,0.0,0.0,0.0,0.0,0.0,0.0,0.0,0.0,0.0,0.0,0.0,0.0,0.0,0.0,0.0,0.0,0.0,0.0,0.0,0.0,-2.8301,-2.8301,-2.8301,-2.8301,-2.8301,-2.8301,-2.8301,-2.8301,-2.8301,-2.8301,-2.8301,-2.8301,-2.8301,-2.8301,-2.8301,-2.8301,-2.8301,-2.8301,-2.8301,-2.8301,-2.8281,-2.8242,-2.7676,-2.7012,-2.6973,-2.6337,-2.5693,-2.5693,-2.5693,-2.5693,-2.5693,-2.5693,-2.5693,-2.5693,-2.5693,-2.5693,-2.5693,-2.5693,-2.5693,-2.5693,-2.5693,-2.5693,-2.5693,-2.5693,-2.5693,-2.5693,-2.5693,-2.5693,-2.5693,-2.5693,-2.5693,-2.5693,-2.5693,-2.5693,-2.5693,-2.6283,-2.6625,-2.6625,-2.6256,-2.6007,-2.6007,-2.5222,-2.4742,-2.4742,-2.4828,-2.5359,-2.6426,-2.6509,-2.7574,-2.9543,-2.8698,-2.9334,-2.9189,-3.0306,-3.1622,-3.2498,-3.3572,-3.4123,-3.3189,-3.2788,-3.2322,-3.1112,-3.082,-3.0742,-3.0742,-3.0742,0.0,0.0,0.0,0.0,0.0,0.0,0.0,0.0,0.0,0.0,0.0,0.0,0.0,0.0,0.0,0.0,0.0,0.0,0.0,0.0,0.0,0.0,-2.8437,-2.8672,-2.8613,0.0,-2.8301,-2.8301,-2.8301,-2.8301,-2.8301,-2.8301,-2.8301,-2.8301,-2.8301,-2.8301,-2.8301,-2.8301,-2.8301,-2.8301,-2.8301,-2.8301,-2.8301,-2.8301,-2.8301,-2.8301,-2.8242,-2.791,-2.7441,-2.6953,-2.6621,-2.6152,-2.5693,-2.5693,-2.5693,-2.5693,-2.5693,-2.5693,-2.5693,-2.5693,-2.5693,-2.5693,-2.5693,-2.5693,-2.5693,-2.5693,-2.5693,-2.5693,-2.5693,-2.5693,-2.5693,-2.5693,-2.5693,-2.5693,-2.5693,-2.5693,-2.5693,-2.5693,-2.5693,-2.5693,-2.5693,-2.5838,-2.5924,-2.5924,-2.5535,-2.5344,-2.5344,-2.4762,-2.4485,-2.4485,-2.5016,-2.5397,-2.5657,-2.6535,-2.7211,-2.7736,-2.9197,-2.9672,-2.9829,-3.1135,-3.2714,-3.4715,-3.5453,-3.5543,-3.5263,-3.4125,-3.2851,-3.2092,-3.1383,-3.0898,-3.0898,0.0,0.0,0.0,0.0,0.0,0.0,0.0,0.0,0.0,0.0,0.0,0.0,0.0,0.0,0.0,0.0,0.0,0.0,0.0,0.0,0.0,0.0,0.0,-2.8301,-2.8516,-2.8516,-2.8301,-2.8301,-2.8301,-2.8301,-2.8301,-2.8301,-2.8301,-2.8301,-2.8301,-2.8301,-2.8301,-2.8301,-2.8301,-2.8301,-2.8301,-2.8301,-2.8301,-2.8301,-2.8301,-2.8301,-2.8164,-2.7949,-2.7787,-2.7226,-2.668,-2.6465,-2.6074,-2.5693,-2.5693,-2.5693,-2.5693,-2.5693,-2.5693,-2.5693,-2.5693,-2.5693,-2.5693,-2.5693,-2.5693,-2.5693,-2.5693,-2.5693,-2.5693,-2.5693,-2.5693,-2.5693,-2.5693,-2.5693,-2.5693,-2.5693,-2.5693,-2.5693,-2.5693,-2.5693,-2.5693,-2.5693,-2.5693,-2.5693,-2.5693,-2.5527,-2.5391,-2.5391,-2.5176,-2.4844,-2.4414,-2.4571,-2.5009,-2.5748,-2.5606,-2.6152,-2.7407,-2.803,-2.8432,-3.0181,-3.1913,-3.3947,-3.6985,-3.7389,-3.7124,-3.7345,-3.555,-3.3733,-3.3191,-3.194,-3.0898,-3.0898,0.0,0.0,0.0,0.0,0.0,0.0,0.0,0.0,0.0,0.0,0.0,0.0,0.0,0.0,0.0,0.0,0.0,0.0,0.0,0.0,0.0,0.0,-2.8359,-2.8301,-2.8301,-2.8301,-2.8301,-2.8301,-2.8301,-2.8301,-2.8301,-2.8301,-2.8301,-2.8301,-2.8301,-2.8301,-2.8301,-2.8301,-2.8301,-2.8301,-2.8301,-2.8301,-2.8301,-2.8301,-2.8301,-2.8301,-2.8027,-2.7708,-2.763,-2.7031,-2.6367,-2.6289,-2.6016,-2.5693,-2.5693,-2.5693,-2.5693,-2.5693,-2.5693,-2.5693,-2.5693,-2.5752,-2.5791,-2.5713,-2.5693,-2.5693,-2.5693,-2.5693,-2.5693,-2.5693,-2.5693,-2.5693,-2.5693,-2.5693,-2.5693,-2.5693,-2.5693,-2.5693,-2.5693,-2.5693,-2.5693,-2.5693,-2.5693,-2.5693,-2.5693,-2.5693,-2.5693,-2.5693,-2.5693,-2.5343,-2.4668,-2.4219,-2.466,-2.5912,-2.466,-2.5137,-2.7259,-2.6653,-2.6998,-2.7745,-3.0758,-3.4248,-3.6157,-3.7591,-3.8285,-3.71,-3.6879,-3.6194,-3.362,-3.194,-3.0898,0.0,0.0,0.0,0.0,0.0,0.0,0.0,0.0,0.0,0.0,0.0,0.0,0.0,0.0,0.0,0.0,0.0,0.0,0.0,0.0,-2.8809,-2.8398,-2.8672,0.0,-2.8301,-2.8301,-2.8301,-2.8301,-2.8301,-2.8301,-2.8301,-2.8301,-2.8301,-2.8301,-2.8301,-2.8301,-2.8301,-2.8301,-2.8301,-2.8301,-2.8301,-2.8301,-2.8301,-2.8301,-2.8301,-2.8301,-2.8301,-2.8027,-2.765,-2.7226,-2.6777,-2.6309,-2.5937,-2.5732,-2.5693,-2.5693,-2.5693,-2.5693,-2.5693,-2.5693,-2.5693,-2.5693,-2.6035,-2.6191,-2.5771,-2.5693,-2.5693,-2.5693,-2.5693,-2.5693,-2.5693,-2.5693,-2.5693,-2.5693,-2.5693,-2.5693,-2.5693,-2.5693,-2.5693,-2.5693,-2.5693,-2.5693,-2.5693,-2.5693,-2.5693,-2.5693,-2.5693,-2.5693,-2.5693,-2.5693,-2.5635,-2.5518,-2.5117,-2.5016,-2.5216,-2.5016,-2.511,-2.5478,-2.6801,-2.6934,-2.9001,-3.1461,-3.3997,-3.6282,-3.7387,-3.7841,-3.7515,-3.697,-3.6302,-3.5282,-3.3292,0.0,0.0,0.0,0.0,0.0,0.0,0.0,0.0,0.0,0.0,0.0,0.0,0.0,0.0,0.0,0.0,0.0,0.0,0.0,0.0,-2.9043,-2.8828,-2.8652,-2.8594,0.0,-2.8301,-2.8301,-2.8301,-2.8301,-2.8301,-2.8301,-2.8301,-2.8301,-2.8301,-2.8301,-2.8301,-2.8301,-2.8301,-2.8301,-2.8301,-2.8301,-2.8301,-2.8301,-2.8301,-2.8301,-2.8301,-2.8301,-2.8301,-2.7851,-2.7266,-2.709,-2.6562,-2.5996,-2.5752,-2.5693,-2.5693,-2.5693,-2.5693,-2.5752,-2.6035,-2.6094,-2.6152,-2.6387,-2.6602,-2.668,-2.6484,-2.6269,-2.6035,-2.5732,-2.5937,-2.6035,-2.5732,-2.5693,-2.5693,-2.5693,-2.5693,-2.5693,-2.5693,-2.5693,-2.5693,-2.5693,-2.5693,-2.5693,-2.5693,-2.5693,-2.5693,-2.5693,-2.5693,-2.5693,-2.5693,-2.5693,-2.5693,-2.5693,-2.5293,-2.5195,-2.5449,-2.5195,-2.5195,-2.5449,-2.6204,-2.6255,-2.9377,-3.106,-3.2516,-3.5403,-3.6458,-3.6935,-3.7638,-3.7071,-3.6384,0.0,-3.4668,0.0,0.0,0.0,0.0,0.0,0.0,0.0,0.0,0.0,0.0,0.0,0.0,0.0,0.0,0.0,0.0,0.0,0.0,0.0,-2.9219,-2.8945,-2.8769,-2.8769,-2.8457,-2.8301,-2.8301,-2.8301,-2.8301,-2.8301,-2.8301,-2.8301,-2.8301,-2.8301,-2.8301,-2.8301,-2.8301,-2.8301,-2.8301,-2.8301,-2.8301,-2.8301,-2.8301,-2.8301,-2.8301,-2.8301,-2.8301,-2.8301,-2.8301,-2.7812,-2.7187,-2.7187,-2.668,-2.5986,-2.5888,-2.5898,-2.583,-2.5713,-2.5771,-2.5977,-2.6309,-2.6465,-2.6621,-2.6934,-2.709,-2.7148,-2.7031,-2.6777,-2.6445,-2.6083,-2.6328,-2.6406,-2.5977,-2.5898,-2.581,-2.5713,-2.5693,-2.5693,-2.5693,-2.5693,-2.5693,-2.5693,-2.5693,-2.5693,-2.5693,-2.5693,-2.5693,-2.5693,-2.5693,-2.5693,-2.5693,-2.5693,-2.5693,-2.5693,-2.541,-2.541,-2.5693,-2.541,-2.541,-2.5693,-2.5693,-2.5693,-2.6716,-2.7921,-2.9151,-3.2466,-3.4474,-3.5859,-3.6985,-3.7589,-3.7494,-3.6108,0.0,0.0,0.0,0.0,0.0,0.0,0.0,0.0,0.0,0.0,0.0,0.0,0.0,0.0,0.0,0.0,0.0,0.0,0.0,0.0,-2.8359,-2.834,-2.832,-2.832,-2.8301,-2.8301,-2.8301,-2.8301,-2.8301,-2.8301,-2.8301,-2.8301,-2.8301,-2.8301,-2.8301,-2.8301,-2.8301,-2.8301,-2.8301,-2.8301,-2.8301,-2.8301,-2.8301,-2.8301,-2.8301,-2.8301,-2.8301,-2.8301,-2.8301,-2.8008,-2.7689,-2.7689,-2.7324,-2.6875,-2.6465,-2.6348,-2.6269,-2.581,-2.6035,-2.6367,-2.6387,-2.668,-2.6992,-2.7012,-2.7324,-2.7519,-2.7109,-2.6992,-2.6973,-2.6953,-2.6973,-2.6855,-2.6426,-2.6348,-2.6211,-2.5752,-2.5693,-2.5693,-2.5693,-2.5693,-2.5693,-2.5693,-2.5693,-2.5693,-2.5693,-2.5693,-2.5693,-2.5693,-2.5693,-2.5693,-2.5693,-2.5693,-2.5693,-2.5693,-2.5674,-2.5674,-2.5693,-2.5674,-2.5674,-2.5693,-2.5693,-2.5693,-2.6323,-2.7419,-2.8649,-3.0934,-3.2742,-3.4148,-3.4901,-3.6056,-3.6891,-3.6727,0.0,0.0,0.0,0.0,0.0,0.0,0.0,0.0,0.0,0.0,0.0,0.0,0.0,0.0,0.0,0.0,0.0,0.0,0.0,0.0,-2.8301,-2.8301,-2.8301,-2.8301,-2.8301,-2.8301,-2.8301,-2.8301,-2.8301,-2.8301,-2.8301,-2.8301,-2.8301,-2.8301,-2.8301,-2.8301,-2.8301,-2.8301,-2.8301,-2.8301,-2.8301,-2.8301,-2.8301,-2.8301,-2.8301,-2.8301,-2.8301,-2.8301,-2.8301,-2.8027,-2.7728,-2.7728,-2.7363,-2.6992,-2.6836,-2.6602,-2.6406,-2.6523,-2.6484,-2.6523,-2.707,-2.7324,-2.75,-2.7773,-2.7949,-2.8027,-2.7871,-2.7832,-2.7676,-2.7129,-2.7246,-2.7305,-2.6855,-2.6797,-2.6738,-2.6582,-2.6512,-2.6465,-2.6191,-2.6152,-2.6055,-2.5713,-2.5693,-2.5693,-2.5693,-2.5693,-2.5693,-2.5693,-2.5693,-2.5693,-2.5693,-2.5693,-2.5693,-2.5693,-2.5693,-2.5693,-2.5693,-2.5693,-2.5693,-2.5693,-2.5693,-2.5693,-2.5468,-2.644,-2.7795,-3.0055,-3.116,-3.2164,-3.4022,-3.5002,-3.573,-3.6483,0.0,0.0,0.0,0.0,0.0,0.0,0.0,0.0,0.0,0.0,0.0,0.0,0.0,0.0,0.0,0.0,0.0,0.0,0.0,0.0,-2.8301,-2.8301,-2.8301,-2.8301,-2.8301,-2.8301,-2.8301,-2.8301,-2.8301,-2.8301,-2.8301,-2.8301,-2.8301,-2.8301,-2.8301,-2.8301,-2.8301,-2.8301,-2.8301,-2.8301,-2.8301,-2.8301,-2.8301,-2.8301,-2.8301,-2.8301,-2.8301,-2.8301,-2.8301,-2.8105,-2.7871,-2.7871,-2.7676,-2.7422,-2.7285,-2.7031,-2.6855,-2.6973,-2.6914,-2.6953,-2.7571,-2.7826,-2.7949,-2.8223,-2.8301,-2.8301,-2.8301,-2.8301,-2.8125,-2.7559,-2.7676,-2.7734,-2.7305,-2.7226,-2.7187,-2.7031,-2.7012,-2.6914,-2.6641,-2.6602,-2.6426,-2.5996,-2.5908,-2.5849,-2.5693,-2.5693,-2.5693,-2.5693,-2.5693,-2.5693,-2.5693,-2.5693,-2.5693,-2.5693,-2.5693,-2.5693,-2.5693,-2.5693,-2.5693,-2.5693,-2.5693,-2.5693,0.0,0.0,0.0,-2.9628,-2.9615,-2.9941,-3.4304,-3.4525,-3.4098,-3.5207,0.0,0.0,0.0,0.0,0.0,0.0,0.0,0.0,0.0,0.0,0.0,0.0,0.0,0.0,0.0,0.0,0.0,0.0,0.0,-2.8301,-2.8301,-2.8301,-2.8301,-2.8301,-2.8301,-2.8301,-2.8301,-2.8301,-2.8301,-2.8301,-2.8301,-2.8301,-2.8301,-2.8301,-2.8301,-2.8301,-2.8301,-2.8301,-2.8301,-2.8301,-2.8301,-2.8301,-2.8301,-2.8301,-2.8301,-2.8301,-2.8301,-2.8301,-2.8301,-2.8301,-2.8301,-2.8301,-2.8301,-2.8223,-2.7865,-2.7728,-2.763,-2.7168,-2.7344,-2.7728,-2.7728,-2.7988,-2.8301,-2.8301,-2.8301,-2.8301,-2.8301,-2.8301,-2.8301,-2.8301,-2.8301,-2.8164,-2.7754,-2.7728,-2.7539,-2.7109,-2.7051,-2.7051,-2.7031,-2.7031,-2.6875,-2.6426,-2.6387,-2.6211,-2.5732,-2.5693,-2.5693,-2.5693,-2.5693,-2.5693,-2.5693,-2.5693,-2.5693,-2.5693,-2.5693,-2.5693,-2.5693,-2.5693,-2.5693,-2.5693,-2.5693,-2.5693,-2.4104,0.0,0.0,0.0,0.0,0.0,0.0,0.0,0.0,0.0,0.0,0.0,0.0,0.0,0.0,0.0,0.0,0.0,0.0,0.0,0.0,0.0,0.0,0.0,0.0,0.0,0.0,0.0,0.0,-2.8301,-2.8301,-2.8301,-2.8301,-2.8301,-2.8301,-2.8301,-2.8301,-2.8301,-2.8301,-2.8301,-2.8301,-2.8301,-2.8301,-2.8301,-2.8301,-2.8301,-2.8301,-2.8301,-2.8301,-2.8301,-2.8301,-2.8301,-2.8301,-2.8301,-2.8301,-2.8301,-2.8301,-2.8301,-2.8301,-2.8301,-2.8301,-2.8301,-2.8301,-2.8262,-2.8164,-2.791,-2.7695,-2.7891,-2.7812,-2.7787,-2.8047,-2.8203,-2.8301,-2.8301,-2.8301,-2.8301,-2.8301,-2.8301,-2.8301,-2.8301,-2.8301,-2.8262,-2.8144,-2.8125,-2.8086,-2.7949,-2.793,-2.7832,-2.7519,-2.748,-2.7207,-2.6465,-2.6387,-2.6211,-2.5732,-2.5693,-2.5693,-2.5693,-2.5693,-2.5693,-2.5693,-2.5693,-2.5693,-2.5693,-2.5693,-2.5693,-2.5693,-2.5693,-2.5693,-2.5693,-2.5693,-2.5693,-2.4556,-2.4732,-2.531,-2.5979,0.0,0.0,0.0,-2.9453,0.0,0.0,0.0,0.0,0.0,0.0,0.0,0.0,0.0,0.0,0.0,0.0,0.0,0.0,0.0,0.0,0.0,0.0,0.0,0.0,-2.8301,-2.8301,-2.8301,-2.8301,-2.8301,-2.8301,-2.8301,-2.8301,-2.8301,-2.8301,-2.8301,-2.8301,-2.8301,-2.8301,-2.8301,-2.8301,-2.8301,-2.8301,-2.8301,-2.8301,-2.8301,-2.8301,-2.8301,-2.8301,-2.8301,-2.8301,-2.8301,-2.8301,-2.8301,-2.8301,-2.8301,-2.8301,-2.8301,-2.8301,-2.8301,-2.8301,-2.8301,-2.8125,-2.7988,-2.8223,-2.8125,-2.7988,-2.8223,-2.8301,-2.8301,-2.8301,-2.8301,-2.8301,-2.8301,-2.8301,-2.8301,-2.8301,-2.8301,-2.8301,-2.8301,-2.8301,-2.8301,-2.8301,-2.8301,-2.8203,-2.7949,-2.793,-2.7598,-2.6738,-2.6641,-2.6406,-2.5732,-2.5693,-2.5693,-2.5693,-2.5693,-2.5693,-2.5693,-2.5693,-2.5693,-2.5693,-2.5693,-2.5693,-2.5693,-2.5693,-2.5693,-2.5693,-2.5693,-2.5693,-2.5385,-2.5485,-2.6214,-2.757,-2.654,0.0,-2.9829,-2.9628,-2.9402,0.0,0.0,0.0,0.0,0.0,0.0,0.0,0.0,0.0,0.0,0.0,0.0,0.0,0.0,0.0,0.0,0.0,0.0,-2.832,-2.8301,-2.8301,-2.8301,-2.8301,-2.8301,-2.8301,-2.8301,-2.8301,-2.8301,-2.8301,-2.8301,-2.8301,-2.8301,-2.8301,-2.8301,-2.8301,-2.8301,-2.8301,-2.8301,-2.8301,-2.8301,-2.8301,-2.8301,-2.8301,-2.8301,-2.8301,-2.8301,-2.8301,-2.8301,-2.8301,-2.8301,-2.8301,-2.8301,-2.8301,-2.8301,-2.8301,-2.8301,-2.8301,-2.8301,-2.8301,-2.8301,-2.8301,-2.8301,-2.8301,-2.8301,-2.8301,-2.8301,-2.8301,-2.8301,-2.8301,-2.8301,-2.8301,-2.8301,-2.8301,-2.8301,-2.8301,-2.8301,-2.8301,-2.8301,-2.8301,-2.8301,-2.8262,-2.793,-2.7168,-2.7012,-2.6641,-2.583,-2.5713,-2.5693,-2.5693,-2.5693,-2.5693,-2.5693,-2.5693,-2.5693,-2.5693,-2.5693,-2.5693,-2.5693,-2.5693,-2.5693,-2.5693,-2.5693,-2.5693,-2.6992,-2.7193,-2.7469,-2.6952,0.0,0.0,-2.6314,-2.654,-2.7379,0.0,0.0,0.0,0.0,0.0,0.0,0.0,0.0,0.0,0.0,0.0,0.0,0.0,0.0,0.0,0.0,0.0,-2.875,-2.832,-2.8301,-2.8301,-2.8301,-2.8301,-2.8301,-2.8301,-2.8301,-2.8301,-2.8301,-2.8301,-2.8301,-2.8301,-2.8301,-2.8301,-2.8301,-2.8301,-2.8301,-2.8301,-2.8301,-2.8301,-2.8301,-2.8301,-2.8301,-2.8301,-2.8301,-2.8301,-2.8301,-2.8301,-2.8301,-2.8301,-2.8301,-2.8301,-2.8301,-2.8301,-2.8301,-2.8301,-2.8301,-2.8301,-2.8301,-2.8301,-2.8301,-2.8301,-2.8301,-2.8301,-2.8301,-2.8301,-2.8301,-2.8301,-2.8301,-2.8301,-2.8301,-2.8301,-2.8301,-2.8301,-2.8301,-2.8301,-2.8301,-2.8301,-2.8301,-2.8301,-2.8301,-2.7988,-2.7767,-2.7559,-2.6914,-2.6445,-2.6269,-2.5937,-2.5693,-2.5693,-2.5693,-2.5693,-2.5693,-2.5693,-2.5693,-2.5693,-2.5693,-2.5693,-2.5693,-2.5693,-2.5693,-2.5693,-2.5693,-2.5693,-2.7996,-2.7896,-2.8047,-2.777,0.0,0.0,0.0,-2.644,-2.659,-2.8549,0.0,0.0,0.0,0.0,0.0,0.0,0.0,0.0,0.0,0.0,0.0,0.0,0.0,0.0,0.0,0.0,-2.875,-2.832,-2.8301,-2.8301,-2.8301,-2.8301,-2.8301,-2.8301,-2.8301,-2.8301,-2.8301,-2.8301,-2.8301,-2.8301,-2.8301,-2.8301,-2.8301,-2.8301,-2.8301,-2.8301,-2.8301,-2.8301,-2.8301,-2.8301,-2.8301,-2.8301,-2.8301,-2.8301,-2.8301,-2.8301,-2.8301,-2.8301,-2.8301,-2.8301,-2.8301,-2.8301,-2.8301,-2.8301,-2.8301,-2.8301,-2.8301,-2.8301,-2.8301,-2.8301,-2.8301,-2.8301,-2.8301,-2.8301,-2.8301,-2.8301,-2.8301,-2.8301,-2.8301,-2.8301,-2.8301,-2.8301,-2.8301,-2.8301,-2.8301,-2.8301,-2.8301,-2.8301,-2.8301,-2.793,-2.763,-2.7363,-2.6777,-2.6309,-2.6074,-2.5859,-2.5693,-2.5693,-2.5693,-2.5693,-2.5693,-2.5693,-2.5693,-2.5693,-2.5693,-2.5693,-2.5693,-2.5693,-2.5693,-2.5693,-2.5693,-2.5693,0.0,0.0,0.0,0.0,0.0,-2.7695,0.0,0.0,0.0,-2.8574,0.0,0.0,0.0,0.0,0.0,0.0,0.0,0.0,0.0,0.0,0.0,0.0,0.0,0.0,0.0,0.0,-2.8398,-2.8301,-2.8066,-2.8027,-2.8281,-2.8301,-2.8301,-2.8301,-2.8301,-2.8301,-2.8301,-2.8301,-2.8301,-2.8301,-2.8301,-2.8301,-2.8301,-2.8301,-2.8301,-2.8301,-2.8301,-2.8301,-2.8301,-2.8301,-2.8301,-2.8301,-2.8301,-2.8301,-2.8301,-2.8301,-2.8301,-2.8301,-2.8301,-2.8301,-2.8301,-2.8301,-2.8301,-2.8301,-2.8301,-2.8301,-2.8301,-2.8301,-2.8301,-2.8301,-2.8301,-2.8301,-2.8301,-2.8301,-2.8301,-2.8301,-2.8301,-2.8301,-2.8301,-2.8301,-2.8301,-2.8301,-2.8301,-2.8301,-2.8301,-2.8301,-2.8301,-2.8262,-2.8184,-2.7871,-2.75,-2.707,-2.6641,-2.625,-2.5898,-2.5732,-2.5693,-2.5693,-2.5693,-2.5693,-2.5693,-2.5693,-2.5693,-2.5693,-2.5693,-2.5693,-2.5693,-2.5693,-2.5693,-2.5693,-2.5693,-2.5693,0.0,0.0,0.0,0.0,-3.0256,0.0,0.0,0.0,-2.7494,-2.6314,0.0,0.0,0.0,0.0,0.0,0.0,0.0,0.0,0.0,0.0,0.0,0.0,0.0,0.0,0.0,0.0,0.0,-2.8203,-2.7246,-2.709,-2.8242,-2.8301,-2.8301,-2.8301,-2.8301,-2.8301,-2.8301,-2.8301,-2.8301,-2.8301,-2.8301,-2.8301,-2.8301,-2.8301,-2.8301,-2.8301,-2.8301,-2.8301,-2.8301,-2.8301,-2.8301,-2.8301,-2.8301,-2.8301,-2.8301,-2.8301,-2.8301,-2.8301,-2.8301,-2.8301,-2.8301,-2.8301,-2.8301,-2.8301,-2.8301,-2.8301,-2.8301,-2.8301,-2.8301,-2.8301,-2.8301,-2.8301,-2.8301,-2.8301,-2.8301,-2.8301,-2.8301,-2.8301,-2.8301,-2.8301,-2.8301,-2.8301,-2.8301,-2.8301,-2.8301,-2.8301,-2.8301,-2.8164,-2.7793,-2.7748,-2.75,-2.707,-2.6641,-2.6367,-2.6328,-2.5957,-2.5693,-2.5693,-2.5693,-2.5693,-2.5693,-2.5693,-2.5693,-2.5693,-2.5693,-2.5693,-2.5693,-2.5693,-2.5693,-2.5693,-2.5693,-2.5693,0.0,0.0,0.0,0.0,0.0,0.0,-2.762,0.0,-2.664,0.0,0.0,0.0,0.0,0.0,0.0,0.0,0.0,0.0,0.0,0.0,0.0,0.0,0.0,0.0,0.0,0.0,0.0,0.0,0.0,-2.6836,-2.7871,-2.8164,-2.8301,-2.8301,-2.8301,-2.8301,-2.8301,-2.8301,-2.8301,-2.8301,-2.8301,-2.8301,-2.8301,-2.8301,-2.8301,-2.8301,-2.8301,-2.8301,-2.8301,-2.8301,-2.8301,-2.8301,-2.8301,-2.8301,-2.8301,-2.8301,-2.8301,-2.8301,-2.8301,-2.8301,-2.8301,-2.8301,-2.8301,-2.8301,-2.8301,-2.8301,-2.8301,-2.8301,-2.8301,-2.8301,-2.8301,-2.8301,-2.8301,-2.8301,-2.8301,-2.8301,-2.8301,-2.8301,-2.8301,-2.8301,-2.8301,-2.8301,-2.8301,-2.8301,-2.8301,-2.8301,-2.8301,-2.8223,-2.8047,-2.7812,-2.75,-2.707,-2.6641,-2.6387,-2.6387,-2.623,-2.6211,-2.6465,-2.625,-2.5996,-2.5693,-2.5693,-2.5693,-2.5693,-2.5693,-2.5693,-2.5693,-2.5693,-2.5693,-2.5693,-2.5693,-2.5693,-3.239,0.0,0.0,0.0,0.0,0.0,0.0,0.0,0.0,0.0,0.0,0.0,0.0,0.0,0.0,0.0,0.0,0.0,0.0,0.0,0.0,0.0,0.0,0.0,0.0,0.0,0.0,0.0,0.0,0.0,-2.765,-2.7949,-2.8184,-2.8281,-2.8301,-2.8301,-2.8301,-2.8301,-2.8301,-2.8301,-2.8301,-2.8301,-2.8301,-2.8301,-2.8301,-2.8301,-2.8301,-2.8301,-2.8301,-2.8301,-2.8301,-2.8301,-2.8301,-2.8301,-2.8301,-2.8301,-2.8301,-2.8301,-2.8301,-2.8301,-2.8301,-2.8301,-2.8301,-2.8301,-2.8301,-2.8301,-2.8301,-2.8301,-2.8301,-2.8301,-2.8301,-2.8301,-2.8301,-2.8301,-2.8301,-2.8301,-2.8301,-2.8301,-2.8301,-2.8301,-2.8301,-2.8301,-2.8301,-2.8301,-2.8301,-2.8301,-2.8301,-2.8262,-2.8125,-2.7949,-2.7617,-2.707,-2.6855,-2.668,-2.6562,-2.6562,-2.6699,-2.6992,-2.6621,-2.625,-2.5937,-2.5752,-2.5693,-2.5693,-2.5693,-2.5693,-2.5693,-2.5693,-2.5693,-2.5693,-2.5693,-2.5693,0.0,0.0,0.0,-3.0633,0.0,0.0,0.0,0.0,-2.8637,0.0,0.0,0.0,0.0,0.0,-2.8612,-2.8147,0.0,0.0,0.0,0.0,0.0,0.0,0.0,0.0,0.0,0.0,0.0,0.0,0.0,0.0,-2.7591,-2.7728,-2.7924,-2.8281,-2.8301,-2.8301,-2.8301,-2.8301,-2.8301,-2.8301,-2.8301,-2.8301,-2.8301,-2.8301,-2.8301,-2.8301,-2.8301,-2.8301,-2.8301,-2.8301,-2.8301,-2.8301,-2.8301,-2.8301,-2.8301,-2.8301,-2.8301,-2.8301,-2.8301,-2.8301,-2.8301,-2.8301,-2.8301,-2.8301,-2.8301,-2.8301,-2.8301,-2.8301,-2.8301,-2.8301,-2.8301,-2.8301,-2.8301,-2.8301,-2.8301,-2.8301,-2.8301,-2.8301,-2.8301,-2.8301,-2.8301,-2.8301,-2.8301,-2.8301,-2.8301,-2.8301,-2.8301,-2.8144,-2.7787,-2.8027,-2.7949,-2.7109,-2.7383,-2.7461,-2.7031,-2.6992,-2.6992,-2.7012,-2.6621,-2.6387,-2.6367,-2.5957,-2.5693,-2.5693,-2.5693,-2.5693,-2.5693,-2.5693,-2.5693,-2.5693,-2.5693,-2.5693,0.0,0.0,-3.5177,-3.2616,0.0,0.0,0.0,0.0,0.0,0.0,0.0,0.0,0.0,0.0,-2.9327,-2.8712,-2.8348,0.0,0.0,0.0,0.0,0.0,0.0,0.0,0.0,0.0,0.0,0.0,0.0,0.0,0.0,-2.7415,-2.7787,-2.7924,-2.8144,-2.8301,-2.8301,-2.8301,-2.8301,-2.8301,-2.8301,-2.8301,-2.8301,-2.8301,-2.8301,-2.8301,-2.8301,-2.8301,-2.8301,-2.8301,-2.8301,-2.8301,-2.8301,-2.8301,-2.8301,-2.8301,-2.8301,-2.8301,-2.8301,-2.8301,-2.8301,-2.8301,-2.8301,-2.8301,-2.8301,-2.8301,-2.8301,-2.8301,-2.8301,-2.8301,-2.8301,-2.8301,-2.8301,-2.8301,-2.8301,-2.8301,-2.8301,-2.8301,-2.8301,-2.8301,-2.8301,-2.8301,-2.8301,-2.8301,-2.8301,-2.8301,-2.8301,-2.8242,-2.8105,-2.8203,-2.8066,-2.75,-2.763,-2.7669,-2.7461,-2.7695,-2.7734,-2.7461,-2.7051,-2.668,-2.6406,-2.5977,-2.5693,-2.5693,-2.5693,-2.5693,-2.5693,-2.5693,-2.5693,-2.5693,-2.5693,-2.5693,-3.6182,-3.6383,0.0,0.0,-3.3395,0.0,-2.9854,0.0,0.0,0.0,0.0,0.0,0.0,0.0,-3.0457,-2.9905,-2.9026,-2.767,0.0,0.0,0.0,0.0,0.0,0.0,0.0,0.0,-2.4253,-2.4362,0.0,0.0,0.0,0.0,-2.75,-2.7708,-2.8066,-2.8301,-2.8301,-2.8301,-2.8301,-2.8301,-2.8301,-2.8301,-2.8301,-2.8301,-2.8301,-2.8301,-2.8301,-2.8301,-2.8301,-2.8301,-2.8301,-2.8301,-2.8301,-2.8301,-2.8301,-2.8301,-2.8301,-2.8301,-2.8301,-2.8301,-2.8301,-2.8301,-2.8301,-2.8301,-2.8301,-2.8301,-2.8301,-2.8301,-2.8301,-2.8301,-2.8301,-2.8301,-2.8301,-2.8301,-2.8301,-2.8301,-2.8301,-2.8301,-2.8301,-2.8301,-2.8301,-2.8301,-2.8301,-2.8301,-2.8301,-2.8301,-2.8301,-2.8301,-2.8301,-2.8301,-2.8184,-2.791,-2.7891,-2.7891,-2.7891,-2.8144,-2.8184,-2.791,-2.748,-2.7129,-2.6855,-2.6269,-2.5977,-2.5977,-2.5771,-2.5693,-2.5693,-2.5693,-2.5693,-2.5693,-2.5693,-2.5693]},{"header":{"parameterUnit":"m.s-1","parameterCategory":1,"la1":30.6,"la2":29.2853,"lo1":-89.7004,"lo2":-87.6739,"dy":0.0162,"dx":0.0183,"nx":112,"ny":82,"refTime":"2026-05-15T12:00:00:Z","depth":0,"parameterNumber":3,"parameterNumberName":"V-component_of_WINDS"},"data":[0.0,0.0,0.0,0.0,0.0,0.0,0.0,0.0,0.0,0.0,0.0,0.0,0.0,0.0,0.0,0.0,0.0,0.0,0.0,0.0,0.0,0.0,0.0,0.0,0.0,0.0,0.0,0.0,0.0,0.0,0.0,0.0,0.0,0.0,0.0,0.0,0.0,0.0,0.0,0.0,0.0,0.0,0.0,0.0,0.0,0.0,0.0,0.0,0.0,0.0,0.0,0.0,0.0,0.0,0.0,0.0,0.0,0.0,0.0,0.0,0.0,0.0,0.0,0.0,0.0,0.0,0.0,0.0,0.0,0.0,0.0,0.0,0.0,0.0,0.0,0.0,0.0,0.0,0.0,0.0,0.0,0.0,0.0,0.0,0.0,0.0,0.0,0.0,0.0,0.0,1.4442,1.5551,1.682,1.7514,1.7233,1.6834,1.5778,1.3733,0.0,0.0,0.0,0.0,0.0,0.0,0.0,0.0,0.0,0.0,0.0,0.0,0.0,0.0,0.0,0.0,0.0,0.0,0.0,0.0,0.0,0.0,0.0,0.0,0.0,0.0,0.0,0.0,0.0,0.0,0.0,0.0,0.0,0.0,0.0,0.0,0.0,0.0,0.0,0.0,0.0,0.0,0.0,0.0,0.0,0.0,0.0,0.0,0.0,0.0,0.0,0.0,0.0,0.0,0.0,0.0,0.0,0.0,0.0,0.0,0.0,0.0,0.0,0.0,0.0,0.0,0.0,0.0,0.0,0.0,0.0,0.0,0.0,0.0,0.0,0.0,0.0,0.0,0.0,0.0,0.0,0.0,0.0,0.0,0.0,0.0,0.0,0.0,0.0,0.0,0.0,0.0,0.0,0.0,0.0,0.0,0.0,0.0,0.0,0.0,0.0,0.0,0.0,0.0,1.4522,1.671,1.7353,1.7514,1.7233,1.6697,1.5565,1.372,0.0,0.0,0.0,0.0,0.0,0.0,0.0,0.0,0.0,0.0,0.0,0.0,0.0,0.0,0.0,0.0,0.0,0.0,0.0,0.0,0.0,0.0,0.0,0.0,0.0,0.0,0.0,0.0,0.0,0.0,0.0,0.0,0.0,0.0,0.0,0.0,0.0,0.0,0.0,0.0,0.0,0.0,0.0,0.0,0.0,0.0,0.0,0.0,0.0,0.0,0.0,0.0,0.0,0.0,0.0,0.0,0.0,0.0,0.0,0.0,0.0,0.0,0.0,0.0,0.0,0.0,0.0,0.0,0.0,0.0,0.0,0.0,0.0,0.0,0.0,0.0,0.0,0.0,0.0,0.0,0.0,0.0,0.0,0.0,0.0,0.0,0.0,0.0,0.0,0.0,0.0,0.0,0.0,0.0,0.0,0.0,0.0,0.0,0.0,0.0,0.0,0.0,0.0,1.5673,1.6535,1.9351,1.9526,1.9146,1.8368,1.813,1.6769,1.3789,1.3604,0.0,0.0,0.0,0.0,0.0,0.0,0.0,0.0,0.0,0.0,0.0,0.0,0.0,0.0,0.0,0.0,0.0,0.0,0.0,0.0,0.0,0.0,0.0,0.0,0.0,0.0,0.0,0.0,0.0,0.0,0.0,0.0,0.0,0.0,0.0,0.0,0.0,0.0,0.0,0.0,0.0,0.0,0.0,0.0,0.0,0.0,0.0,0.0,0.0,0.0,0.0,0.0,0.0,0.0,0.0,0.0,0.0,0.0,0.0,0.0,0.0,0.0,0.0,0.0,0.0,0.0,0.0,0.0,0.0,0.0,0.0,0.0,0.0,0.0,0.0,0.0,0.0,0.0,0.0,0.0,0.0,0.0,0.0,0.0,0.0,0.0,0.0,0.0,0.0,0.0,0.0,0.0,0.0,0.0,0.0,0.0,0.0,0.0,0.0,0.0,0.0,0.0,1.7973,1.8765,2.1114,2.1164,2.0539,1.9456,1.9223,1.7723,1.4413,1.4289,0.0,0.0,0.0,0.0,0.0,0.0,0.0,0.0,0.0,0.0,0.0,0.0,0.0,0.0,0.0,0.0,0.0,0.0,0.0,0.0,0.0,0.0,0.0,0.0,0.0,0.0,0.0,0.0,0.0,0.0,0.0,0.0,0.0,0.0,0.0,0.0,0.0,0.0,0.0,0.0,0.0,0.0,0.0,0.0,0.0,0.0,0.0,0.0,0.0,0.0,0.0,0.0,0.0,0.0,0.0,0.0,0.0,0.0,0.0,0.0,0.0,0.0,0.0,0.0,0.0,0.0,0.0,0.0,0.0,0.0,0.0,0.0,0.0,0.0,0.0,0.0,0.0,0.0,0.0,0.0,0.0,0.0,0.0,0.0,0.0,0.0,0.0,0.0,0.0,0.0,0.0,0.0,0.0,0.0,0.0,0.0,0.0,0.0,0.0,0.0,0.0,0.0,1.8879,2.0375,2.0491,2.0818,2.0687,1.9921,1.8758,1.7527,1.6092,1.432,0.0,0.0,0.0,0.0,0.0,0.0,0.0,0.0,0.0,0.0,0.0,0.0,0.0,0.0,0.0,0.0,0.0,0.0,0.0,0.0,0.0,0.0,0.0,0.0,0.0,0.0,0.0,0.0,0.0,0.0,0.0,0.0,0.0,0.0,0.0,0.0,0.0,0.0,0.0,0.0,0.0,0.0,0.0,0.0,0.0,0.0,0.0,0.0,0.0,0.0,0.0,0.0,0.0,0.0,0.0,0.0,0.0,0.0,0.0,0.0,0.0,0.0,0.0,0.0,0.0,0.0,0.0,0.0,0.0,0.0,0.0,0.0,0.0,0.0,0.0,0.0,0.0,0.0,0.0,0.0,0.0,0.0,0.0,0.0,0.0,0.0,0.0,0.0,0.0,0.0,0.0,0.0,0.0,0.0,0.0,0.0,0.0,0.0,0.0,0.0,0.0,0.0,1.9811,2.1212,0.0,2.2795,2.2333,2.1287,2.0961,1.9359,1.6051,0.0,0.0,0.0,0.0,0.0,0.0,0.0,0.0,0.0,0.0,0.0,0.0,0.0,0.0,0.0,0.0,0.0,0.0,0.0,0.0,0.0,0.0,0.0,0.0,0.0,0.0,0.0,0.0,0.0,0.0,0.0,0.0,0.0,0.0,0.0,0.0,0.0,0.0,0.0,0.0,0.0,0.0,0.0,0.0,0.0,0.0,0.0,0.0,0.0,0.0,0.0,0.0,0.0,0.0,0.0,0.0,0.0,0.0,0.0,0.0,0.0,0.0,0.0,0.0,0.0,0.0,0.0,0.0,0.0,0.0,0.0,0.0,0.0,0.0,0.0,0.0,0.0,0.0,0.0,0.0,0.0,0.0,0.0,0.0,0.0,0.0,0.0,0.0,0.0,0.0,0.0,0.0,0.0,0.0,0.0,0.0,0.0,0.0,0.0,0.0,0.0,0.0,1.938,2.0824,2.2225,0.0,2.3867,2.3358,2.2266,2.1859,2.0152,1.6595,0.0,0.0,0.0,0.0,0.0,0.0,0.0,0.0,0.0,0.0,0.0,0.0,0.0,0.0,0.0,0.0,0.0,0.0,0.0,0.0,0.0,0.0,0.0,0.0,0.0,0.0,0.0,0.0,0.0,0.0,0.0,0.0,0.0,0.0,0.0,0.0,0.0,0.0,0.0,0.0,0.0,0.0,0.0,0.0,0.0,0.0,0.0,0.0,0.0,0.0,0.0,0.0,0.0,0.0,0.0,0.0,0.0,0.0,0.0,0.0,0.0,0.0,0.0,0.0,0.0,0.0,0.0,0.0,0.0,0.0,0.0,0.0,0.0,0.0,0.0,0.0,0.0,0.0,0.0,0.0,0.0,0.0,0.0,0.0,0.0,0.0,0.0,0.0,0.0,0.0,0.0,0.0,0.0,0.0,0.0,0.0,0.0,0.0,0.0,0.0,0.0,0.0,1.918,2.1914,2.3613,2.314,2.3516,2.3437,2.2578,2.0918,1.9375,0.0,0.0,0.0,0.0,0.0,0.0,0.0,0.0,0.0,0.0,0.0,0.0,0.0,0.0,0.0,0.0,0.0,0.0,0.0,0.0,0.0,0.0,0.0,0.0,0.0,0.0,0.0,0.0,0.0,0.0,0.0,0.0,0.0,0.0,0.0,0.0,0.0,0.0,0.0,0.0,0.0,0.0,0.0,0.0,0.0,0.0,0.0,0.0,0.0,0.0,0.0,0.0,0.0,0.0,0.0,0.0,0.0,0.0,0.0,0.0,0.0,0.0,0.0,0.0,0.0,0.0,0.0,0.0,0.0,0.0,0.0,0.0,0.0,0.0,0.0,0.0,0.0,0.0,0.0,0.0,0.0,0.0,0.0,0.0,0.0,0.0,0.0,0.0,0.0,0.0,0.0,0.0,0.0,0.0,0.0,0.0,0.0,0.0,0.0,0.0,0.0,0.0,0.0,1.9141,2.1406,2.2949,2.3081,2.3198,2.3105,2.2559,2.1484,1.9902,1.7715,0.0,0.0,0.0,0.0,0.0,0.0,0.0,0.0,0.0,0.0,0.0,0.0,0.0,0.0,0.0,0.0,0.0,0.0,0.0,0.0,0.0,0.0,0.0,0.0,0.0,0.0,0.0,0.0,0.0,0.0,0.0,0.0,0.0,0.0,0.0,0.0,0.0,0.0,0.0,0.0,0.0,0.0,0.0,0.0,0.0,0.0,0.0,0.0,0.0,0.0,0.0,0.0,0.0,0.0,0.0,0.0,0.0,0.0,0.0,0.0,0.0,0.0,0.0,0.0,0.0,0.0,0.0,0.0,0.0,0.0,0.0,0.0,0.0,0.0,0.0,0.0,0.0,0.0,0.0,0.0,0.0,0.0,0.0,0.0,0.0,0.0,0.0,0.0,0.0,0.0,0.0,0.0,0.0,0.0,0.0,0.0,0.0,0.0,0.0,0.0,0.0,0.0,1.9819,2.2162,2.3929,2.4383,2.4467,2.4177,2.3536,2.2873,2.128,1.8579,0.0,0.0,0.0,0.0,0.0,0.0,0.0,0.0,0.0,0.0,0.0,0.0,0.0,0.0,0.0,0.0,0.0,0.0,0.0,0.0,0.0,0.0,0.0,0.0,0.0,0.0,0.0,0.0,0.0,0.0,0.0,0.0,0.0,0.0,0.0,0.0,0.0,0.0,0.0,0.0,0.0,0.0,0.0,0.0,0.0,0.0,0.0,0.0,0.0,0.0,0.0,0.0,0.0,0.0,0.0,0.0,0.0,0.0,0.0,0.0,0.0,0.0,0.0,0.0,0.0,0.0,0.0,0.0,0.0,0.0,0.0,0.0,0.0,0.0,0.0,0.0,0.0,0.0,0.0,0.0,0.0,0.0,0.0,0.0,0.0,0.0,0.0,0.0,0.0,0.0,0.0,0.0,0.0,0.0,0.0,0.0,0.0,0.0,0.0,0.0,0.0,0.0,2.0869,2.3661,2.5775,2.6416,2.6438,2.6013,2.5072,2.4527,2.3001,2.016,0.0,0.0,0.0,0.0,0.0,0.0,0.0,0.0,0.0,0.0,0.0,0.0,0.0,0.0,0.0,0.0,0.0,0.0,0.0,0.0,0.0,0.0,0.0,0.0,0.0,0.0,0.0,0.0,0.0,0.0,0.0,0.0,0.0,0.0,0.0,0.0,0.0,0.0,0.0,0.0,0.0,0.0,0.0,0.0,0.0,0.0,0.0,0.0,0.0,0.0,0.0,0.0,0.0,0.0,0.0,0.0,0.0,0.0,0.0,0.0,3.2348,0.0,0.0,0.0,0.0,0.0,0.0,0.0,0.0,0.0,0.0,0.0,0.0,0.0,0.0,0.0,0.0,0.0,0.0,0.0,0.0,0.0,0.0,0.0,0.0,0.0,0.0,0.0,0.0,0.0,0.0,0.0,0.0,0.0,0.0,0.0,0.0,0.0,0.0,0.0,0.0,0.0,2.1562,2.3713,2.5497,2.6393,2.6084,2.5552,2.5049,2.4175,2.2777,2.0751,1.905,0.0,0.0,0.0,0.0,0.0,0.0,0.0,0.0,0.0,0.0,0.0,0.0,0.0,0.0,0.0,0.0,0.0,0.0,0.0,0.0,0.0,0.0,0.0,0.0,0.0,0.0,0.0,0.0,0.0,0.0,0.0,0.0,0.0,0.0,0.0,0.0,0.0,0.0,0.0,0.0,0.0,0.0,0.0,0.0,0.0,0.0,0.0,0.0,0.0,0.0,0.0,0.0,0.0,0.0,0.0,0.0,0.0,0.0,0.0,0.0,3.3921,0.0,0.0,0.0,0.0,0.0,0.0,0.0,0.0,0.0,0.0,0.0,0.0,0.0,0.0,0.0,0.0,0.0,0.0,0.0,0.0,0.0,0.0,0.0,0.0,0.0,0.0,0.0,0.0,0.0,0.0,0.0,0.0,0.0,0.0,0.0,0.0,0.0,0.0,0.0,0.0,2.2227,2.459,2.6415,2.7198,2.6993,2.6614,2.6131,2.5646,2.4469,2.2464,2.0908,0.0,0.0,0.0,0.0,0.0,0.0,0.0,0.0,0.0,0.0,0.0,0.0,0.0,0.0,0.0,0.0,0.0,0.0,0.0,0.0,0.0,0.0,0.0,0.0,0.0,0.0,0.0,0.0,0.0,0.0,0.0,0.0,0.0,0.0,0.0,0.0,0.0,0.0,0.0,0.0,0.0,0.0,0.0,0.0,0.0,0.0,0.0,0.0,0.0,0.0,0.0,0.0,0.0,0.0,4.3848,4.4227,4.3698,4.3629,4.3758,3.9723,3.8251,3.8381,0.0,0.0,0.0,0.0,0.0,0.0,0.0,0.0,0.0,0.0,0.0,0.0,0.0,0.0,0.0,0.0,0.0,0.0,0.0,0.0,0.0,0.0,0.0,0.0,0.0,2.6602,2.5996,0.0,0.0,0.0,0.0,0.0,0.0,0.0,0.0,0.0,0.0,0.0,0.0,2.3101,2.5599,2.7494,2.8047,2.8021,2.777,2.7318,2.7228,2.6289,2.428,2.2787,2.1076,0.0,0.0,0.0,0.0,0.0,0.0,0.0,0.0,0.0,0.0,0.0,0.0,0.0,0.0,0.0,0.0,0.0,0.0,0.0,0.0,0.0,0.0,0.0,0.0,0.0,0.0,0.0,0.0,0.0,0.0,0.0,0.0,3.908,3.914,0.0,0.0,0.0,0.0,0.0,0.0,0.0,0.0,0.0,0.0,0.0,0.0,0.0,0.0,4.3509,4.5514,4.6531,4.6531,4.7758,4.8161,4.7638,4.7549,4.7249,4.6711,4.5478,0.0,4.0815,3.909,0.0,0.0,0.0,0.0,0.0,0.0,0.0,0.0,0.0,0.0,0.0,0.0,0.0,0.0,0.0,0.0,0.0,0.0,0.0,0.0,0.0,0.0,3.0204,2.9206,2.8764,2.8197,0.0,2.4632,2.2744,2.1945,0.0,0.0,0.0,0.0,0.0,0.0,0.0,0.0,2.4354,2.618,2.7494,2.8047,2.767,2.7369,2.7329,2.6876,2.6072,2.4782,2.4067,2.2885,2.1159,1.9533,0.0,0.0,0.0,0.0,0.0,0.0,0.0,0.0,0.0,0.0,0.0,0.0,0.0,0.0,0.0,0.0,0.0,0.0,0.0,0.0,0.0,0.0,0.0,0.0,0.0,0.0,0.0,0.0,0.0,3.926,4.0397,4.0008,3.9768,3.8931,0.0,0.0,0.0,0.0,0.0,0.0,0.0,0.0,0.0,4.309,4.4436,4.5603,4.6531,4.7788,4.8596,4.8955,4.9553,4.9853,4.9912,4.9553,4.9015,4.8386,4.7728,4.6172,4.3958,4.1534,3.9619,3.8093,0.0,0.0,0.0,0.0,0.0,0.0,3.602,0.0,0.0,0.0,0.0,0.0,0.0,0.0,0.0,0.0,0.0,0.0,0.0,0.0,0.0,3.1956,3.1675,3.1293,3.0468,2.8681,2.64,0.0,2.2924,2.187,1.951,0.0,0.0,0.0,0.0,0.0,2.46,2.5988,2.6952,2.7178,2.7002,2.6851,2.6851,2.6323,2.5636,2.485,2.4305,2.3376,2.202,2.0966,1.9736,0.0,0.0,0.0,0.0,0.0,0.0,0.0,0.0,0.0,0.0,0.0,0.0,0.0,0.0,0.0,0.0,0.0,0.0,0.0,0.0,0.0,0.0,0.0,0.0,0.0,0.0,0.0,0.0,4.0756,4.1893,4.1235,4.1893,4.1354,0.0,0.0,0.0,0.0,0.0,0.0,4.2551,4.3718,4.4945,4.6262,4.7459,4.8356,4.9045,4.9523,5.0002,5.0435,5.0435,5.0704,5.1199,5.0674,5.0032,4.9269,4.8745,4.7788,4.6352,4.3539,4.1893,4.0965,3.914,3.8332,0.0,3.8721,3.8601,3.8422,4.0068,3.9888,3.8811,3.8332,0.0,3.4648,3.2724,0.0,0.0,0.0,0.0,3.272,3.3801,0.0,3.4497,3.4256,3.3982,3.3633,3.2988,3.155,2.9416,0.0,2.5297,2.4356,2.1568,0.0,0.0,0.0,0.0,2.3898,2.4883,2.5862,2.6499,2.6499,2.6499,2.6424,2.6273,2.5837,2.531,2.4657,2.423,2.3552,2.2573,2.1995,2.0991,1.9459,0.0,0.0,0.0,0.0,0.0,0.0,0.0,0.0,0.0,0.0,0.0,0.0,0.0,0.0,0.0,0.0,0.0,0.0,0.0,0.0,0.0,0.0,0.0,0.0,0.0,0.0,0.0,0.0,0.0,4.323,4.4317,0.0,0.0,0.0,0.0,4.2901,4.305,4.3947,4.592,4.6741,4.7698,4.906,4.9733,5.0375,5.1079,5.1109,5.1139,5.1169,5.1169,5.1199,5.1229,5.1199,5.0481,4.9299,4.9269,4.8476,4.713,4.5693,4.4347,4.3021,4.1713,4.0786,4.0247,4.0277,4.0277,4.0337,4.1085,4.0876,4.0277,4.0247,3.8512,3.6357,3.6234,3.5245,0.0,0.0,3.569,3.6376,3.6999,3.6927,3.6531,3.6,3.5102,3.4232,3.3661,3.1884,3.0173,0.0,2.7704,2.6021,2.4782,0.0,2.3828,2.3828,2.4356,2.4933,2.5485,2.6122,2.6499,2.6499,2.6499,2.6273,2.5686,2.5611,2.5159,2.4104,2.4004,2.3728,2.3095,2.2543,2.1744,2.0641,1.8982,0.0,0.0,0.0,0.0,0.0,0.0,0.0,0.0,0.0,0.0,0.0,0.0,0.0,0.0,0.0,0.0,0.0,0.0,0.0,0.0,0.0,0.0,0.0,0.0,0.0,0.0,0.0,0.0,4.5903,4.704,0.0,4.4766,4.4556,4.4915,4.5813,4.6681,4.7818,4.9404,5.0092,5.0661,5.1139,5.1379,5.1409,5.1229,5.1229,5.1229,5.1229,5.1229,5.1229,5.1229,5.1229,5.0511,4.9299,4.9299,4.8506,4.7279,4.677,4.6052,4.5083,4.3778,4.312,4.288,4.2462,4.2243,4.2273,4.2551,4.2192,4.1444,4.0187,3.914,3.8212,3.7345,3.6746,3.6507,3.7165,3.7524,3.7853,3.8542,3.8555,3.8339,3.7695,3.691,3.6195,3.5589,3.4025,3.2653,3.2429,2.9777,2.7042,2.5561,2.546,2.5335,2.4632,2.4983,2.5511,2.6122,2.6373,2.6499,2.6499,2.6499,2.6273,2.5636,2.5285,2.4632,2.3471,2.31,2.2648,2.2096,2.1895,2.1418,2.0717,1.9736,1.843,0.0,0.0,0.0,0.0,0.0,0.0,0.0,0.0,0.0,0.0,0.0,0.0,0.0,0.0,0.0,0.0,0.0,0.0,0.0,0.0,0.0,0.0,0.0,0.0,0.0,0.0,4.7878,4.7668,4.9194,4.9494,4.7519,4.7519,4.7997,4.8895,4.9553,5.0511,5.1828,5.2306,5.2426,5.2217,5.2187,5.1887,5.1229,5.1229,5.1229,5.1229,5.1229,5.1229,5.1199,5.099,5.0301,4.9299,4.909,4.8327,4.7309,4.7309,4.704,4.6561,4.5424,4.4855,4.4556,4.3858,4.3469,4.329,4.329,4.291,4.2171,4.0846,4.0098,3.9589,3.8691,3.8272,3.8182,3.8601,3.8751,3.8841,3.9254,3.9373,3.932,3.8841,3.8063,3.7285,3.6896,3.5326,3.3979,3.3979,3.1478,2.8905,2.7481,2.7208,2.6875,2.5795,2.5787,2.6072,2.6449,2.6499,2.6499,2.6499,2.6499,2.6197,2.541,2.4858,2.4098,2.317,2.2447,2.1945,2.1769,2.1594,2.1245,2.0691,1.9736,1.8631,1.7398,0.0,0.0,0.0,0.0,0.0,0.0,0.0,0.0,0.0,0.0,0.0,0.0,0.0,0.0,0.0,0.0,0.0,0.0,0.0,0.0,0.0,0.0,0.0,4.4347,4.7249,4.9149,4.8506,5.069,5.1528,4.9659,4.9972,5.0823,5.2127,5.1648,5.1858,5.3144,5.3204,5.2905,5.2247,5.2217,5.1887,5.1229,5.1229,5.1229,5.1229,5.1229,5.1199,5.1169,5.0495,4.9883,4.9239,4.8566,4.7908,4.7309,4.7309,4.7309,4.7249,4.6591,4.5903,4.5244,4.4556,4.3898,4.329,4.329,4.291,4.241,4.241,4.1542,4.0457,4.0397,3.9948,3.9439,3.9439,3.9373,3.9373,3.9373,3.9373,3.9373,3.9373,3.8392,3.7434,3.7404,3.5654,3.4075,3.4075,3.2913,3.1598,3.0601,2.9503,2.8462,2.7516,2.6921,0.0,2.6602,2.6568,2.6533,2.6533,2.6508,2.6021,2.494,2.4305,2.3728,2.3125,2.2071,2.1719,2.2246,2.1719,2.1219,2.0693,1.9107,1.7999,1.7491,0.0,0.0,0.0,0.0,0.0,0.0,0.0,0.0,0.0,0.0,0.0,0.0,0.0,0.0,0.0,0.0,0.0,0.0,0.0,0.0,0.0,4.4706,4.698,4.716,4.9194,5.096,5.1738,5.2905,5.3443,5.2905,5.2546,5.2516,5.2875,5.3204,5.3533,5.3922,5.3922,5.3623,5.2935,5.2456,5.1887,5.1229,5.1229,5.1229,5.1229,5.1229,5.0913,5.0465,5.0285,4.9613,4.8536,4.8356,4.7908,4.7309,4.7309,4.7309,4.7249,4.6591,4.6202,4.5903,4.4736,4.3898,4.329,4.329,4.317,4.3,4.256,4.2141,4.1692,4.0696,4.0277,4.0038,3.9559,3.9373,3.9373,3.9373,3.9373,3.9373,3.9373,3.8751,3.7973,3.7494,3.6544,3.5663,3.5189,3.4758,3.3835,3.1757,3.0767,3.001,2.9342,0.0,0.0,2.8298,2.7769,2.7397,2.7397,2.6467,2.5767,2.5636,2.4626,2.3644,0.0,2.198,2.1395,2.1144,2.0564,2.0423,2.0782,1.9921,1.9469,0.0,0.0,0.0,0.0,0.0,0.0,0.0,0.0,0.0,0.0,0.0,0.0,0.0,0.0,0.0,0.0,0.0,0.0,0.0,0.0,0.0,0.0,4.7249,4.9404,5.0212,5.1319,5.2426,5.3473,5.4192,5.461,5.461,5.4012,5.3743,5.4012,5.4132,5.4341,5.461,5.4371,5.3892,5.3204,5.2546,5.1887,5.1229,5.1229,5.1229,5.1229,5.093,5.0554,5.0166,4.9628,4.9015,0.0,4.7997,4.7668,4.7309,4.7309,4.7309,0.0,0.0,0.0,0.0,0.0,4.3618,4.329,4.329,4.329,4.323,4.288,4.262,4.2201,4.1115,4.0606,4.0277,3.9619,3.9373,3.9373,3.9373,3.9373,3.9373,3.9373,3.8901,3.8212,3.7554,3.6926,3.6297,3.5639,0.0,0.0,3.3614,3.2482,3.1466,3.0455,2.9813,2.931,0.0,2.8556,2.8233,2.8233,2.7517,2.6865,2.6478,2.5557,0.0,0.0,0.0,2.2167,2.1563,2.1196,0.0,0.0,0.0,0.0,0.0,0.0,0.0,0.0,1.8936,1.8722,0.0,0.0,0.0,0.0,0.0,0.0,0.0,0.0,0.0,0.0,0.0,0.0,0.0,0.0,0.0,0.0,4.9749,5.1249,5.3073,5.335,5.3579,5.4012,5.461,5.497,5.497,5.4431,5.4341,5.491,5.4431,5.4341,5.494,0.0,0.0,0.0,0.0,5.1798,5.1229,5.1229,5.1229,5.1199,5.0495,5.0136,5.0046,4.8835,4.8237,4.8147,4.7549,4.7309,4.7309,4.7309,4.7309,4.7309,4.7219,4.6411,4.5155,4.3898,4.3349,0.0,0.0,0.0,0.0,4.329,4.294,4.2381,4.1632,4.0965,4.0367,3.9619,3.9373,3.9373,3.9373,3.9373,3.9373,3.9373,3.896,3.8302,3.7554,3.6985,3.6357,3.5639,3.5519,3.5519,3.5519,3.4309,3.2828,3.1315,3.0662,0.0,2.9369,2.9192,2.916,2.916,0.0,0.0,2.7409,2.6771,2.6133,2.5466,2.4383,2.3522,2.2862,2.2939,2.2989,2.2933,2.2933,2.3233,2.3918,2.3791,2.3819,2.3974,2.1121,2.0579,0.0,0.0,0.0,0.0,0.0,0.0,0.0,0.0,0.0,0.0,0.0,0.0,0.0,0.0,0.0,5.0008,5.2017,5.3438,5.395,5.4392,5.434,5.35,5.3503,5.3563,5.3563,5.3443,5.3443,5.3563,5.3443,5.3443,5.3563,5.2935,0.0,5.2396,5.1738,5.1349,5.1229,5.1229,5.1229,5.1199,0.0,0.0,4.9434,4.8656,4.7997,4.7489,4.7369,4.7309,4.7309,4.7309,4.7309,4.7249,4.6711,4.6022,4.5185,4.4407,4.3738,4.329,4.329,4.329,4.329,4.329,4.32,4.294,4.1743,4.1294,0.0,3.9738,3.9373,3.9373,3.9373,3.9373,3.9373,3.9373,3.932,3.8901,3.7674,3.7315,3.6896,3.5729,3.5519,3.5519,3.5519,3.4793,3.3981,3.3111,3.243,3.1751,3.1102,3.045,3.0056,3.0056,2.9024,2.8284,2.8082,2.7058,2.6162,2.5595,2.4813,2.4081,2.3522,2.4456,2.4762,2.432,2.432,2.4626,2.523,2.4195,2.45,2.5968,2.3865,2.3011,0.0,0.0,0.0,0.0,0.0,0.0,0.0,0.0,0.0,0.0,0.0,4.5292,4.7627,0.0,5.1084,5.3131,5.4309,5.4945,5.475,5.4359,5.4005,5.3751,5.3384,5.3174,5.3174,5.3174,5.3174,5.3174,5.3174,5.3174,5.3174,5.2546,5.2187,5.2187,5.1558,5.1229,5.1229,5.1229,5.1229,5.1199,5.0212,4.9583,4.9269,4.8237,4.7608,4.7309,4.7309,4.7309,4.7309,4.7309,4.71,4.6741,4.6082,4.5603,4.5185,4.4197,4.3589,4.329,4.329,4.329,4.329,4.329,4.329,4.305,4.1773,4.1422,4.1115,3.9798,3.9373,3.9373,3.9373,3.9373,3.9373,3.9373,3.9373,3.914,3.8123,3.7644,3.7135,3.6178,3.5729,3.5519,3.5519,3.522,3.4651,3.3634,3.3215,3.2647,3.163,3.1161,3.0896,3.0896,3.0278,2.9609,2.899,2.7723,2.691,2.6629,2.6265,2.5795,2.5185,2.5725,2.5928,2.5653,2.5653,2.5977,2.6602,2.5975,2.6151,2.7081,2.6096,2.544,0.0,0.0,0.0,0.0,0.0,0.0,0.0,4.421,4.3542,4.5102,4.7046,4.9125,5.1243,5.2849,5.4292,5.5736,5.5968,5.5759,5.511,5.4168,5.3682,5.4085,5.335,5.2785,5.2785,5.2785,5.2785,5.2785,5.2785,5.2785,5.2785,5.2306,5.2007,5.2007,5.1498,5.1229,5.1229,5.1229,5.1139,5.102,4.9823,4.9239,4.909,4.7848,4.7309,4.7309,4.7309,4.7309,4.7309,4.7309,4.692,4.6219,4.5574,4.5214,4.4975,4.3738,4.329,4.329,4.329,4.329,4.329,4.329,4.329,4.305,4.1773,4.1422,4.1115,3.9798,3.9373,3.9373,3.9373,3.9373,3.9373,3.9373,3.9373,3.923,3.8542,3.7883,3.7225,3.6596,3.5968,3.5519,3.5519,3.5519,3.51,3.3873,3.3574,3.3066,3.1839,3.157,3.1511,3.1511,3.1511,3.0972,2.9711,2.8483,2.7735,2.7615,2.7585,2.7375,2.6836,2.6782,2.6782,2.6782,2.6782,2.7076,2.7585,2.7585,2.7585,2.7585,2.7585,2.728,4.3443,4.3973,4.4582,4.5692,4.5389,4.646,0.0,5.1537,4.9812,5.2242,5.3825,5.4529,5.3743,5.4276,5.5098,5.5798,5.5968,5.5606,5.448,5.4609,5.4576,5.4005,5.2425,5.1439,5.1439,5.1439,5.1439,5.1439,5.1439,5.1439,5.1439,5.1379,5.1319,5.1319,5.1259,5.1229,5.1229,5.1229,5.0883,5.0285,4.9613,4.9,4.8386,4.7638,4.7309,4.7309,4.7309,4.7309,4.7309,4.7309,4.692,4.6219,4.5574,4.4945,4.4347,4.3559,4.329,4.329,4.329,4.329,4.329,4.329,4.329,4.305,4.1773,4.1422,4.1115,3.9798,3.9373,3.9373,3.9373,3.9373,3.9373,3.9373,3.9373,3.923,3.8542,3.7883,3.7225,3.6596,3.5968,3.5519,3.5519,3.5519,3.525,3.4503,3.3873,3.3215,3.2467,3.1869,3.1511,3.1511,3.1511,3.0972,2.9711,2.8906,2.8218,2.7645,2.7585,2.7555,2.7495,2.7495,2.7495,2.7495,2.7495,2.7525,2.7585,2.7585,2.7585,2.7585,2.7585,2.756,4.5753,4.6402,4.7141,4.9507,5.0045,5.0969,5.459,5.3531,5.2254,5.4017,5.4014,5.3968,5.4781,5.4679,5.4744,5.5814,5.5968,5.5575,5.4389,5.408,5.3537,5.2473,5.163,5.1479,5.2154,5.1588,5.1229,5.1229,5.1229,5.1229,5.1229,5.1229,5.1229,5.1229,5.1229,5.1229,5.1229,5.1229,5.0853,5.0196,4.9583,4.897,4.8267,4.7608,4.7309,4.7309,4.7309,4.7309,4.7309,4.7309,4.6681,4.5693,4.5394,4.4646,4.3678,4.3379,4.329,4.329,4.329,4.329,4.329,4.329,4.329,4.305,4.1773,4.1422,4.1115,3.9798,3.9373,3.9373,3.9373,3.9373,3.9373,3.9373,3.9373,3.9313,3.905,3.8153,3.7345,3.7075,3.6207,3.5519,3.5519,3.5519,3.54,3.513,3.4173,3.3275,3.2587,3.1899,3.1511,3.1511,3.1152,3.0702,3.0163,2.9175,2.8487,2.8188,2.7824,2.7585,2.7585,2.7585,2.7585,2.7585,2.7585,2.7585,2.7585,2.7585,2.7585,2.7585,2.7585,2.7585,4.6842,4.8128,4.9496,5.221,5.3402,5.4122,5.4988,5.4571,5.4091,5.4265,5.4099,5.4157,5.4875,5.4621,5.4528,5.539,5.548,5.5114,5.407,5.3354,5.254,5.1544,5.0966,5.1197,5.2489,5.1744,5.1229,5.1229,5.1229,5.1229,5.1229,5.1229,5.1229,5.1229,5.1229,5.1229,5.1229,5.1229,5.081,4.9972,4.9494,4.888,4.7997,4.7519,4.7309,4.7309,4.7309,4.7309,4.7309,4.7309,4.6501,4.5304,4.5304,4.4496,4.329,4.329,4.329,4.329,4.329,4.329,4.329,4.329,4.329,4.305,4.1773,4.1422,4.1115,3.9798,3.9373,3.9373,3.9373,3.9373,3.9373,3.9373,3.9373,3.9373,3.9373,3.8362,3.7404,3.7404,3.6387,3.5519,3.5519,3.5519,3.5519,3.5519,3.4352,3.3335,3.2856,3.2019,3.1511,3.1511,3.1062,3.0702,3.0522,2.9654,2.8966,2.8637,2.8128,2.7794,2.7615,2.7585,2.7585,2.7585,2.7585,2.7585,2.7585,2.7585,2.7705,2.7884,2.7884,2.7974,4.6497,4.863,5.1287,5.2326,5.3501,5.4454,5.4847,5.5758,5.5936,5.368,5.5936,5.731,5.3901,5.4202,5.4791,5.4318,5.4241,5.4031,5.3294,5.2636,5.2131,5.192,5.0363,5.0019,0.0,5.1471,5.1229,5.1229,5.1229,5.1229,5.1229,5.1229,5.1229,5.1229,5.1229,5.1229,5.1229,5.1229,5.0571,4.9329,4.9329,4.8596,4.7339,4.7309,4.7309,4.7309,4.7309,4.7309,4.7309,4.7309,4.6501,4.5304,4.5304,4.4496,4.329,4.329,4.329,4.329,4.329,4.329,4.329,4.329,4.329,4.305,4.1773,4.1422,4.1115,3.9798,3.9373,3.9373,3.9373,3.9373,3.9373,3.9373,3.9373,3.9373,3.9373,3.8362,3.7404,3.7404,3.6387,3.5519,3.5519,3.5519,3.5519,3.5519,3.4352,3.3484,3.3455,3.2318,3.1511,3.1511,3.1481,3.1212,3.0552,3.0462,2.9924,2.8697,2.8577,2.8278,2.7615,2.7585,2.7585,2.7585,2.7585,2.7585,2.7585,2.7585,2.7944,2.8577,2.8577,2.8906,4.664,4.8409,5.0403,5.2386,5.4052,5.5432,5.6042,5.6439,5.6196,5.4536,5.3565,5.2577,5.1243,5.0753,5.0744,5.1426,5.2306,5.2785,5.2576,5.2725,5.2197,5.038,5.0035,0.0,0.0,0.0,0.0,5.1139,5.0764,5.0704,5.1199,5.1229,5.1229,5.1229,5.1229,5.1229,5.1229,5.0734,5.0122,4.9299,4.8386,4.7728,4.7309,4.7309,4.7309,4.7309,4.7309,4.7309,4.7309,4.7309,4.677,4.5933,4.5484,4.4766,4.3888,4.3439,4.329,4.329,4.329,4.329,4.329,4.329,4.329,4.305,4.1773,4.1422,4.1115,3.9798,3.9373,3.9373,3.9373,3.9373,3.9373,3.9373,3.9373,3.9373,3.9373,3.8362,3.7404,3.7404,3.6387,3.5519,3.5519,3.5519,3.534,3.4891,3.4053,3.3185,3.2288,3.178,3.1511,3.1511,3.1511,3.1421,3.1182,3.0761,3.0313,2.9894,2.9475,2.9172,2.8933,2.8933,2.8933,2.8933,2.8487,2.8248,2.8248,2.8248,2.8368,2.8607,2.9056,2.9355,4.7898,4.9044,5.0144,5.2675,5.4204,5.5083,5.5126,5.5254,5.4861,5.313,5.1141,4.9617,4.909,4.8049,4.7878,4.9867,5.075,5.1409,5.2097,5.2366,5.1768,4.9853,4.9763,4.9643,0.0,0.0,0.0,5.078,5.0644,5.0734,5.1199,5.1229,5.1229,5.1229,5.1229,5.1063,5.0823,5.0405,4.9793,4.894,4.7818,4.7495,4.7849,4.7452,4.7495,4.7849,4.7452,4.7309,4.7309,4.7309,4.677,4.5903,4.5454,4.4736,4.3858,4.3439,4.329,4.329,4.329,4.329,4.329,4.329,4.329,4.305,4.1773,4.1422,4.1115,3.9798,3.9373,3.9373,3.9373,3.9373,3.9373,3.9373,3.9373,3.9373,3.9373,3.8362,3.7404,3.7404,3.6387,3.5519,3.5519,3.5519,3.528,3.4623,3.3903,3.3095,3.1989,3.166,3.1511,3.1511,3.1511,3.1511,3.1511,3.1092,3.0761,3.0522,3.0133,2.9804,2.9621,2.9621,2.9621,2.9621,2.9175,2.8966,2.8966,2.8966,2.9056,2.9295,2.9714,3.0043,4.9847,5.0421,5.0607,5.3121,5.3785,5.3513,5.2352,5.2444,5.2065,4.9644,4.8919,4.8368,4.7194,4.6022,4.6232,4.9418,4.9613,4.9972,5.1887,5.1648,5.102,5.0285,4.9673,4.9553,5.0076,0.0,0.0,5.0106,0.0,5.1139,5.1229,5.1229,5.1229,5.1229,5.1229,5.09,5.0196,5.0136,4.9494,4.8237,4.7652,4.7861,4.8759,4.7807,4.7904,4.8759,4.7722,4.7309,4.7309,4.7309,4.6531,4.5334,4.5304,4.4496,4.3349,4.329,4.329,4.329,4.329,4.329,4.329,4.329,4.326,4.3021,4.1773,4.1392,4.1055,3.9768,3.9373,3.9373,3.9373,3.9373,3.9373,3.9373,3.9373,3.9373,3.9373,3.8392,3.7434,3.7434,3.6387,3.5519,3.5519,3.5519,3.528,3.4653,3.3963,3.3305,3.2587,3.1899,3.1511,3.1511,3.1511,3.1511,3.1511,3.1511,3.1241,3.0582,3.0552,3.0283,2.9741,2.9711,2.9711,2.9711,2.9681,2.9651,2.9651,2.9651,2.9924,3.0492,3.0552,3.0883,4.9175,5.0291,5.1031,5.1725,5.2137,5.2127,5.0998,5.0706,4.9982,4.7568,4.5853,4.4448,4.3139,4.3419,4.4436,4.6262,4.8476,5.0331,5.1319,5.1738,5.1528,5.0315,5.0046,4.9853,4.9553,4.9643,0.0,0.0,4.9942,5.0182,5.1169,5.1229,5.1229,5.1229,5.1229,5.09,5.0196,4.9284,4.8356,4.7549,4.8133,4.8553,4.8769,4.8512,4.8553,4.8759,4.7722,4.7309,4.7309,4.7309,4.68,4.6022,4.5514,4.4796,4.3977,4.3469,4.329,4.329,4.329,4.329,4.329,4.329,4.3,4.25,4.1624,4.1025,4.0487,3.9649,3.9373,3.9373,3.9373,3.9373,3.9373,3.9373,3.9373,3.9373,3.9373,3.8751,3.8003,3.7494,3.6387,3.5519,3.5519,3.5519,3.5459,3.528,3.4651,3.3814,3.2647,3.1899,3.1511,3.1511,3.1511,3.1511,3.1511,3.1511,3.1421,3.1241,3.1241,3.1182,3.1002,3.1002,3.1002,3.1002,3.0522,3.0283,3.0283,3.0283,3.0342,3.0522,3.1002,3.1331,4.9763,5.0661,5.1229,5.1229,5.1197,5.0756,4.9269,4.8369,4.7189,4.4689,4.2821,4.1324,4.0277,4.0905,4.2183,4.4137,4.6698,4.9,5.0524,5.1349,5.1498,5.0704,5.0614,5.0541,5.0152,5.0182,5.0315,0.0,5.0331,5.0451,5.1169,5.1229,5.1229,5.1229,5.1229,5.078,4.9823,4.8506,4.7899,4.7946,4.8512,4.9296,5.0133,4.9694,4.9496,4.9456,0.0,4.7722,4.7309,4.7309,4.6741,4.5843,4.5454,4.4706,4.3838,4.3439,4.329,4.329,4.329,4.329,4.329,4.329,4.309,4.2611,4.1654,4.1115,4.0636,3.9679,3.9373,3.9373,3.9373,3.9373,3.9373,3.9373,3.9373,3.9373,3.9373,3.8871,3.8123,3.7195,3.6417,3.5848,3.5549,3.5519,3.5519,3.5519,3.4921,3.4234,3.3455,3.2557,3.1839,3.154,3.1511,3.1511,3.1511,3.1511,3.1511,3.1511,3.1511,3.1511,3.1511,3.1511,3.1511,3.1511,3.1122,3.0941,3.0941,3.0941,3.0941,3.0943,3.1331,3.1511,5.09,5.1229,5.1229,5.1229,5.0601,4.9448,4.7608,4.5992,4.4197,4.1654,4.0008,3.8841,3.8242,3.8751,4.0157,4.2722,4.4945,4.7206,4.9837,5.0674,5.1109,5.1199,5.1229,5.1229,5.1229,5.0644,5.0554,5.1169,5.1229,5.1229,5.1229,5.1229,5.1169,5.1079,5.102,5.0361,4.9179,4.7908,4.7807,4.88,4.8932,5.0016,5.1885,5.1005,5.0589,5.0512,0.0,0.0,4.7495,4.7352,4.6586,4.5481,4.5436,4.4638,4.3488,4.3459,4.3379,4.329,4.329,4.329,4.329,4.329,4.323,4.2961,4.1863,4.1384,4.0995,3.9858,3.9499,3.9373,3.9373,3.9373,3.9373,3.9373,3.9373,3.9373,3.9373,3.8871,3.8033,3.6836,3.6537,3.6267,3.5609,3.5519,3.5519,3.5519,3.5011,3.4623,3.4503,3.3335,3.2258,3.169,3.154,3.1511,3.1511,3.1511,3.1511,3.1511,3.1511,3.1511,3.1511,3.1511,3.1511,3.1511,3.1511,3.1511,3.1511,3.1511,3.1511,3.1511,3.1511,3.1511,5.102,5.1229,5.1229,5.1229,4.9912,4.8237,4.683,4.4616,4.2321,4.0187,3.8272,3.6956,3.6836,3.7793,3.9439,4.2141,4.4676,4.7206,4.9837,5.0285,5.0554,5.1139,5.1229,5.1229,5.1229,5.1063,0.0,0.0,0.0,5.1229,5.1229,5.1229,5.0913,5.0375,4.9883,4.9224,4.8476,4.7698,4.7807,4.8841,4.9694,5.0741,5.1885,5.174,5.1667,5.1525,0.0,0.0,4.8501,4.7636,4.6978,4.6423,4.6237,4.5506,4.4496,4.4248,4.3768,4.329,4.329,4.329,4.329,4.329,4.297,4.253,4.2291,4.1482,4.0516,4.0277,3.9828,3.9373,3.9373,3.9373,3.9373,3.9373,3.9373,3.9373,3.9373,3.8871,3.8153,3.7404,3.6836,3.6267,3.5609,3.5519,3.5519,3.5519,3.54,3.513,3.4563,3.3335,3.2467,3.2318,3.1839,3.1511,3.1511,3.1511,3.1511,3.1511,3.1511,3.1511,3.1511,3.1511,3.1511,3.1511,3.1511,3.1511,3.1511,3.1511,3.1511,3.1511,3.1511,3.1511,5.1139,5.1468,5.1648,5.1319,4.9733,4.7668,4.5263,4.2731,4.0068,3.7404,3.5818,3.4831,3.4472,3.6058,3.7913,3.9529,4.2013,4.4915,4.8237,4.8716,4.9344,5.102,5.1229,5.1229,5.1229,5.1229,5.1229,0.0,0.0,5.1229,5.1229,5.1229,5.0853,5.0226,4.9613,4.9,4.8297,4.814,4.8594,4.9655,5.0703,5.174,5.2697,5.2697,5.2418,5.1813,0.0,0.0,4.8759,4.8293,4.7422,4.6528,4.6945,4.6275,4.4999,4.4479,4.4107,4.3848,4.4009,4.4082,4.4082,4.4082,4.3521,4.2791,4.25,4.1722,4.0846,4.0487,3.9918,3.9373,3.9373,3.9373,3.9373,3.9373,3.9373,3.9373,3.9373,3.917,3.8631,3.7614,3.7165,3.6656,3.5669,3.5519,3.5519,3.5519,3.5519,3.54,3.507,3.4143,3.3275,3.2557,3.2198,3.1869,3.154,3.1511,3.1511,3.1511,3.1511,3.1511,3.1511,3.1511,3.1511,3.1511,3.1511,3.1511,3.1511,3.1511,3.1511,3.1511,3.1511,3.1511,5.1229,5.1708,5.2037,5.1379,4.9643,4.7249,4.4077,4.1205,3.8302,3.5162,3.3844,3.3155,3.2796,3.4442,3.6178,3.7225,3.9409,4.2342,4.6322,4.713,4.8237,5.072,5.1139,5.1229,5.1229,5.1229,0.0,0.0,0.0,0.0,5.1229,5.1079,5.072,5.0062,4.9404,4.8849,4.8377,4.8664,4.9456,5.0741,5.1525,5.2487,5.3518,5.3518,5.3041,5.2205,0.0,0.0,0.0,4.9215,4.8397,4.7313,4.7812,4.7179,4.5839,4.4869,4.4528,4.4609,4.4756,4.4962,4.5079,4.5079,4.4434,4.3485,4.2809,4.2141,4.1444,4.0786,4.0127,3.9589,3.9469,3.9373,3.9373,3.9373,3.9373,3.9373,3.9373,3.9373,3.908,3.7853,3.7494,3.7045,3.5908,3.5609,3.5519,3.5519,3.5519,3.5519,3.5519,3.504,3.4233,3.3066,3.2796,3.2467,3.178,3.172,3.166,3.1511,3.1511,3.1511,3.1511,3.1511,3.1511,3.1511,3.1511,3.1511,3.1511,3.1511,3.1511,3.1511,3.1511,3.1511,5.1229,5.1708,5.2037,5.1379,4.9284,4.6681,4.3988,4.0846,3.7734,3.5073,3.3484,3.2766,3.3305,3.3604,3.4562,3.7015,3.8631,4.0995,4.4915,4.6531,4.8057,5.0046,5.0794,5.1229,5.1229,5.1229,0.0,0.0,0.0,0.0,0.0,5.0614,5.0032,4.9419,4.8716,4.852,4.8728,4.879,4.9781,5.1776,5.1849,5.2487,5.3518,5.3518,5.345,5.3314,0.0,0.0,0.0,5.0627,5.0322,5.0294,4.915,4.8427,4.7801,4.589,4.5374,4.5488,4.4991,4.5342,4.6067,4.6067,4.5416,4.4472,4.3515,4.2791,4.2171,4.1512,4.0816,4.0157,3.9589,3.9373,3.9373,3.9373,3.9373,3.9373,3.9373,3.9373,3.92,3.8452,3.7823,3.7195,3.6507,3.5908,3.5519,3.5519,3.5519,3.5519,3.5519,3.5459,3.513,3.4414,3.3754,3.3155,3.2467,3.2407,3.2138,3.154,3.1511,3.1511,3.1511,3.1511,3.1511,3.1511,3.1511,3.1511,3.1511,3.1511,3.1511,3.1511,3.1511,3.1511,5.0511,5.1409,5.1947,5.09,4.8955,4.6501,4.3519,4.0524,3.7644,3.5043,3.3425,3.2557,3.2856,3.2916,3.3514,3.534,3.6088,3.7823,4.1773,4.315,4.4915,4.8087,4.9404,5.0361,0.0,0.0,0.0,0.0,0.0,0.0,0.0,5.1603,5.09,5.0271,4.8964,4.8473,4.88,4.9456,5.0512,5.1921,5.2557,5.3076,5.3518,5.3518,5.3518,5.3416,0.0,0.0,0.0,5.1451,5.1029,5.0579,5.065,4.9598,4.7941,4.7309,4.6516,4.5794,4.6287,4.6728,4.6968,4.6384,4.5925,4.5452,4.451,4.3084,4.1752,4.1482,4.0636,3.9738,3.9463,3.9373,3.9373,3.9373,3.9373,3.9373,3.9373,3.9373,3.92,3.8512,3.8182,3.7674,3.6656,3.6267,3.5968,3.5579,3.5519,3.5519,3.5519,3.5519,3.54,3.513,3.4502,3.3664,3.2587,3.2527,3.2198,3.154,3.1511,3.1511,3.1511,3.1511,3.1511,3.1511,3.1511,3.1511,3.1511,3.1511,3.1511,3.1511,3.1511,3.1511,4.9733,5.078,5.1409,5.0435,4.8476,4.5933,4.3069,4.0157,3.7473,3.53,3.3758,3.2796,3.2852,3.2825,3.3095,3.4023,3.4563,3.6028,3.9619,4.0846,4.2641,4.6022,4.7608,4.8925,0.0,5.087,0.0,0.0,0.0,0.0,0.0,5.2627,5.1735,5.094,4.9014,4.8389,4.9256,5.0009,5.1043,5.2383,5.3144,5.3518,5.3518,5.3518,5.3518,0.0,0.0,0.0,0.0,5.2348,5.199,5.134,5.151,5.0394,4.8643,4.8132,4.7352,4.6629,4.7366,4.777,4.7901,4.7239,4.6833,4.6488,4.5814,4.3975,4.2047,4.1873,4.0654,3.9373,3.9373,3.9373,3.9373,3.9373,3.9373,3.9373,3.9373,3.9373,3.926,3.8781,3.8542,3.8033,3.6956,3.6596,3.6267,3.5609,3.5519,3.5519,3.5519,3.5519,3.5519,3.5519,3.507,3.4233,3.2916,3.2796,3.2437,3.154,3.1511,3.1511,3.1511,3.1511,3.1511,3.1511,3.1511,3.1511,3.1511,3.1511,3.1511,3.1511,3.1511,3.1511,4.897,4.9763,5.0196,5.0196,4.7758,4.4796,4.286,3.9798,3.7071,3.5829,3.4486,3.3517,3.3661,3.3602,3.3484,3.3514,3.4622,3.6417,3.9014,4.0546,4.2132,4.4107,4.5502,4.686,4.8177,5.0092,0.0,0.0,0.0,0.0,0.0,0.0,5.2073,5.0951,4.8589,4.8282,5.0358,5.0397,5.1447,5.345,5.3518,5.3518,5.3518,5.3518,0.0,0.0,0.0,0.0,0.0,5.345,5.3484,5.3281,5.1516,5.0799,5.046,4.8063,4.7796,4.8493,4.7836,4.8225,4.8954,4.8954,4.8321,4.7572,4.7572,4.5763,4.3561,4.2957,4.1168,3.9373,3.9373,3.9373,3.9373,3.9373,3.9373,3.9373,3.9373,3.9373,3.9373,3.9373,3.8841,3.8182,3.7524,3.6896,3.6267,3.5609,3.5519,3.5519,3.5519,3.5519,3.5519,3.5519,3.5489,3.4951,3.3604,3.3484,3.2916,3.16,3.1511,3.1511,3.1511,3.1511,3.1511,3.1511,3.1511,3.1511,3.1511,3.1511,3.1511,3.1511,3.1511,3.1511,4.5633,4.6711,4.7296,4.6369,4.5024,4.3329,4.0905,3.9602,3.8407,3.6662,3.5999,3.5457,3.4574,3.3975,3.3904,3.4716,3.522,3.6267,3.8422,4.0673,4.265,4.4137,4.7489,4.9823,0.0,0.0,0.0,0.0,0.0,0.0,0.0,0.0,5.1662,5.1302,4.8668,4.8324,5.0358,5.0397,5.1447,5.3518,5.3518,5.3518,5.3518,5.3518,0.0,0.0,0.0,0.0,0.0,5.3518,5.3518,5.3382,5.2236,5.1159,5.0047,4.9393,4.863,4.7968,4.8421,4.8767,4.8892,4.8257,4.7836,4.7572,4.7572,4.5887,4.3608,4.1859,4.0431,3.9373,3.9373,3.9373,3.9373,3.9373,3.9373,3.9373,3.9373,3.9373,3.9373,3.9373,3.926,3.8871,3.8212,3.7913,3.7434,3.6327,3.6178,3.5998,3.5579,3.5519,3.5519,3.5519,3.5519,3.513,3.4264,3.4173,3.3814,3.2916,3.2467,3.2168,3.2168,3.175,3.172,3.2168,3.2168,3.2407,3.2886,3.2886,3.2647,3.2198,3.2647,3.2407,4.312,4.4377,4.5024,4.4466,4.3269,4.1705,3.9822,3.9112,3.8429,3.6964,3.6679,3.6334,3.4967,3.4313,3.4168,3.4658,3.4951,3.5878,3.8093,4.0038,4.2102,4.4407,4.7908,0.0,0.0,0.0,0.0,0.0,0.0,0.0,0.0,0.0,5.1371,5.1076,4.8975,4.8708,5.0358,5.0779,5.1813,5.3518,5.3518,5.3518,5.3518,0.0,0.0,0.0,0.0,0.0,0.0,5.3518,5.3518,5.3382,5.2334,5.1261,5.0293,4.9843,4.9043,4.8225,4.8798,4.9018,4.8892,4.8321,4.8129,4.8062,4.7796,4.6257,4.4235,4.2157,4.077,3.9778,3.9481,3.9373,3.9373,3.9373,3.9373,3.9373,3.9373,3.9373,3.9373,3.9373,3.9373,3.92,3.8512,3.8392,3.8033,3.6985,3.6836,3.6596,3.5968,3.5878,3.5789,3.5519,3.5519,3.534,3.4891,3.4653,3.4234,3.3544,3.3125,3.2886,3.2886,3.2497,3.2437,3.2886,3.2886,3.3095,3.3484,3.3484,3.3275,3.2886,3.3305,3.3066,0.0,4.2462,4.308,4.3688,4.1983,4.0008,3.9349,3.8388,0.0,3.6823,3.673,3.6396,3.5091,3.4687,3.4414,3.3878,3.4292,3.5579,3.8182,3.932,4.1324,4.5125,4.7309,0.0,0.0,0.0,0.0,0.0,0.0,0.0,0.0,0.0,0.0,5.0544,4.9536,4.9456,5.0397,5.1377,5.2418,5.3518,5.3518,5.3518,5.3518,0.0,0.0,0.0,0.0,0.0,0.0,5.3518,5.3484,5.3281,5.1792,5.1183,5.098,4.9526,4.9018,4.9018,4.9018,4.9018,4.9018,4.9018,4.9018,4.8883,4.8176,4.6815,4.5203,4.3654,4.2033,4.0588,3.9809,3.9553,3.9517,3.9589,3.9481,3.9409,3.9481,3.9445,3.9373,3.9373,3.9373,3.92,3.8571,3.8452,3.8242,3.7584,3.7494,3.7255,3.6626,3.6507,3.6237,3.5639,3.5519,3.5519,3.5519,3.4921,3.4324,3.3664,3.3604,3.3574,3.3574,3.3514,3.3514,3.3574,3.3604,3.3634,3.3634,3.3634,3.3604,3.3574,3.3604,3.3574,3.7644,0.0,3.9469,3.911,3.8571,3.7943,0.0,3.7432,3.7499,3.6841,3.719,3.7334,3.6414,3.58,3.5676,3.6378,3.6626,3.7464,3.9619,4.2671,4.5603,4.8101,4.9643,5.0391,0.0,0.0,0.0,0.0,0.0,0.0,0.0,0.0,0.0,5.1557,5.1303,5.093,5.0397,5.1377,5.2418,5.3518,5.3518,5.3518,5.3518,0.0,0.0,0.0,0.0,0.0,0.0,5.3518,5.3145,5.2503,5.1589,5.0879,5.0236,4.9357,4.9018,4.9018,4.9018,4.9018,4.9018,4.9018,4.9018,4.8984,4.8815,4.7214,4.5298,4.4355,4.2943,4.1626,4.1461,4.0894,4.0554,4.1229,4.0343,3.9559,4.0239,3.9849,3.9373,3.9373,3.9373,3.9379,3.92,3.917,3.896,3.8272,3.8153,3.7913,3.7285,3.6776,3.6417,3.6267,3.5818,3.5519,3.5519,3.537,3.519,3.504,3.4532,3.4264,3.4264,3.3754,3.3724,3.4264,3.4771,3.504,3.504,3.504,3.4771,3.4294,3.4801,3.4472,3.6028,3.7195,3.8407,3.8463,3.8196,3.7867,3.7616,3.7666,3.7441,3.6405,3.6854,3.7041,3.5927,3.598,3.641,3.7026,3.759,3.8879,4.1362,4.4377,4.707,4.909,4.9883,0.0,0.0,0.0,0.0,0.0,0.0,0.0,0.0,0.0,0.0,0.0,5.1921,5.1667,5.108,5.2134,5.2904,5.3518,5.3518,5.3518,5.3518,0.0,0.0,0.0,0.0,0.0,5.3484,5.3112,5.2706,5.2198,5.1116,5.0439,4.9999,4.9255,4.9018,4.9018,4.9018,4.9018,4.9018,4.9018,4.9018,4.9018,4.9018,4.7662,4.5957,4.5125,4.3802,4.252,4.2077,4.1658,4.1396,4.1917,4.0961,4.013,4.0588,4.0025,3.9373,3.9373,3.9373,3.9373,3.9373,3.9373,3.929,3.8901,3.8871,3.8631,3.7943,3.7554,3.7135,3.6537,3.6178,3.5818,3.5519,3.5519,3.5519,3.5519,3.516,3.4951,3.4951,3.4592,3.4592,3.4951,3.531,3.5519,3.5519,3.5519,3.531,3.4951,3.534,3.51,3.5459,3.697,3.8568,3.8934,3.8862,3.8622,3.8486,3.8121,3.7472,3.6197,3.6501,3.6654,3.5602,3.647,3.7351,3.7583,3.8779,4.0615,4.3247,4.5533,4.757,4.9177,4.9478,0.0,0.0,0.0,0.0,0.0,0.0,0.0,0.0,0.0,0.0,0.0,5.2137,5.2137,5.2137,5.3076,5.3518,5.3518,5.3518,5.3518,5.3518,5.3518,0.0,0.0,0.0,0.0,5.3281,5.257,5.2164,5.1826,5.0574,5.0033,4.9864,4.9221,4.9018,4.9018,4.9018,4.9018,4.9018,4.9018,4.9018,4.9018,4.9018,4.797,4.6667,4.5901,4.4624,4.332,4.2583,4.23,4.2237,4.2395,4.1626,4.093,4.1095,4.0309,3.9625,3.9625,3.9625,3.9625,3.9625,3.9702,3.9737,3.9595,3.9625,3.9343,3.8667,3.8452,3.7973,3.6896,3.6596,3.6267,3.5699,3.5579,3.5519,3.5519,3.5519,3.5519,3.5519,3.5519,3.5519,3.5519,3.5519,3.5519,3.5519,3.5519,3.5519,3.5519,3.5519,3.5519,3.534,3.7136,3.8388,3.6572,3.7499,3.8515,3.7216,3.7395,3.7735,3.7505,3.7603,3.7993,3.8925,3.938,3.9968,4.1083,4.2973,4.4449,0.0,0.0,4.9764,4.9727,0.0,0.0,0.0,0.0,0.0,0.0,0.0,0.0,0.0,0.0,0.0,0.0,0.0,5.3247,5.3247,5.3416,5.3518,5.3518,5.3518,5.3518,5.3518,5.3518,5.3518,0.0,0.0,0.0,5.2469,5.2367,5.1555,5.0405,5.0168,4.9729,4.9154,4.9052,4.9018,4.9018,4.9018,4.9018,4.9018,4.9018,4.9018,4.9018,4.9018,4.797,4.6756,4.6634,4.5529,4.4384,4.427,4.3651,4.329,4.4035,4.2953,4.1981,4.2738,4.1626,4.0485,4.0485,4.0485,4.0485,4.0485,4.1129,4.133,4.0588,4.0485,4.0209,3.9331,3.8751,3.8332,3.8123,3.7135,3.6447,3.6357,3.5818,3.5519,3.5519,3.5519,3.5519,3.5519,3.5519,3.5519,3.5519,3.5519,3.5519,3.5519,3.5519,3.5519,3.5519,3.5519,3.5519,3.488,3.6629,3.8208,3.7498,3.962,4.1496,4.0025,3.9968,4.0027,3.9224,3.9085,3.9286,3.9902,4.105,4.2575,4.4722,4.6255,4.7232,4.7465,4.8871,5.0051,0.0,0.0,0.0,0.0,0.0,0.0,0.0,0.0,0.0,0.0,0.0,0.0,0.0,0.0,0.0,5.3518,5.3518,5.3518,5.3518,5.3518,5.3518,5.3518,5.3518,5.3281,0.0,0.0,5.2435,5.1691,5.1285,5.071,5.0067,4.9661,4.9289,4.9018,4.9018,4.9018,4.9018,4.9018,4.9018,4.9018,4.9018,4.9018,4.8951,4.8545,4.7665,4.6718,4.6312,4.5432,4.4615,4.4615,4.4298,4.4093,4.4497,4.3621,4.28,4.3199,4.23,4.1396,4.1396,4.1396,4.1396,4.1396,4.1723,4.1853,4.1462,4.1396,4.1095,4.0205,3.9825,3.9347,3.8492,3.7853,3.7225,3.6537,3.6207,3.5878,3.5519,3.5519,3.5519,3.5519,3.5519,3.5519,3.5519,3.5519,3.5519,3.5519,3.5519,3.5519,3.5519,3.5519,3.5519,3.4661,3.6287,3.8091,3.8724,4.1122,4.3277,4.2903,4.2551,4.2117,4.1508,4.1407,4.1384,4.1172,4.2942,4.5244,4.7704,4.8928,4.9546,4.963,5.0052,0.0,0.0,0.0,0.0,0.0,0.0,0.0,0.0,0.0,0.0,0.0,0.0,0.0,0.0,0.0,0.0,5.3518,5.3518,5.3518,5.3518,5.3518,5.3518,5.3484,5.3315,5.2875,5.23,5.2131,5.1623,5.0913,5.0338,4.9999,4.9796,4.9221,4.9018,4.9018,4.9018,4.9018,4.9018,4.9018,4.9018,4.9018,4.9018,4.9018,4.8849,4.8108,4.7394,4.665,4.5906,4.5162,4.4615,4.4615,4.4615,4.4615,4.4615,4.4093,4.3591,4.3591,4.2925,4.23,4.23,4.23,4.23,4.23,4.2489,4.2552,4.2332,4.23,4.1949,4.086,4.069,4.0163,3.8767,3.8482,3.7883,3.6596,3.6357,3.6058,3.5549,3.5519,3.5519,3.5519,3.5519,3.5519,3.5519,3.5519,3.5519,3.5519,3.5519,3.5519,3.5519,3.5519,3.5519,3.5063,3.6695,3.8133,3.8673,3.9608,4.1103,4.3747,4.3294,4.2861,4.4891,4.5297,4.5066,4.4395,4.608,4.8001,4.9321,5.0927,5.1628,5.0472,0.0,0.0,0.0,0.0,0.0,0.0,0.0,0.0,0.0,0.0,0.0,0.0,0.0,0.0,0.0,0.0,0.0,5.3518,5.3518,5.3518,5.3518,5.3518,5.3518,5.3484,5.2739,5.2367,5.2266,5.1589,5.0879,5.0168,5.0101,4.9695,4.9086,4.9018,4.9018,4.9018,4.9018,4.9018,4.9018,4.9018,4.9018,4.9018,4.9018,4.9018,4.8849,4.8108,4.7394,4.665,4.5906,4.5162,4.4615,4.4615,4.4615,4.4615,4.4615,4.4559,4.453,4.453,4.3798,4.3199,4.3199,4.3199,4.3199,4.3199,4.3889,4.4121,4.332,4.3199,4.2583,4.0927,4.069,4.0347,3.9457,3.8781,3.7883,3.6596,3.5938,3.5549,3.5519,3.5519,3.5519,3.5519,3.5519,3.5519,3.5519,3.5519,3.5519,3.5519,3.5519,3.5519,3.5519,3.5519,3.5519,3.4138,3.6093,3.8286,3.9391,4.0568,4.2004,4.4107,4.5192,4.6177,4.7496,4.7767,4.7665,4.7394,4.8376,4.9569,5.0458,5.2,5.2876,0.0,0.0,0.0,0.0,0.0,0.0,0.0,0.0,0.0,0.0,0.0,0.0,0.0,0.0,0.0,0.0,0.0,0.0,0.0,5.3518,5.3247,5.2773,5.3281,5.3247,5.2739,5.2435,5.1792,5.0913,5.0642,5.0101,4.9424,4.9424,4.9255,4.9018,4.9018,4.9018,4.9018,4.9018,4.9018,4.9018,4.9018,4.9018,4.9018,4.9018,4.9018,4.8781,4.7597,4.7022,4.6549,4.5331,4.4818,4.4615,4.4615,4.4615,4.4615,4.4615,4.4615,4.4615,4.4615,4.4355,4.4093,4.4093,4.4093,4.4093,4.4093,4.4384,4.4468,4.415,4.4093,4.368,4.2489,4.2332,4.1949,4.1095,4.0403,3.9427,3.8008,3.7238,3.6495,3.5552,3.5519,3.5519,3.5519,3.5519,3.5519,3.5519,3.5519,3.5519,3.5519,3.5519,3.5519,3.5519,3.5519,3.5519,3.38,3.5483,3.7655,3.9363,4.1033,4.2885,4.5133,4.665,4.8037,4.9695,4.9492,4.9086,4.9289,4.9763,5.0338,0.0,5.2503,0.0,0.0,0.0,0.0,0.0,0.0,0.0,0.0,0.0,0.0,0.0,0.0,0.0,0.0,0.0,0.0,0.0,0.0,0.0,0.0,5.2909,5.2503,5.1961,5.2536,5.2503,5.1961,5.1725,5.1048,5.0067,4.983,4.9458,4.9018,4.9018,4.9018,4.9018,4.9018,4.9018,4.9018,4.9018,4.9018,4.9018,4.9018,4.9018,4.9018,4.9018,4.8849,4.8409,4.7192,4.6616,4.6177,4.4953,4.4615,4.4615,4.4615,4.4615,4.4615,4.4615,4.4615,4.4615,4.4615,4.4615,4.4615,4.4615,4.4615,4.4615,4.4615,4.4615,4.4615,4.4615,4.4615,4.4298,4.3413,4.3323,4.2986,4.2077,4.1405,4.0578,3.9533,3.8371,3.7278,3.6275,3.5999,3.575,3.5519,3.5718,3.5846,3.5846,3.5846,3.5846,3.5846,3.5619,3.5519,3.5519,3.5519,3.5609,3.4477,3.5052,3.6148,3.8329,4.0644,4.3319,4.7046,4.7361,4.7868,5.1555,5.0574,4.9255,4.9965,5.0101,5.0338,5.1116,5.2503,0.0,0.0,0.0,0.0,0.0,0.0,0.0,0.0,0.0,0.0,0.0,0.0,0.0,0.0,0.0,0.0,0.0,0.0,0.0,0.0,5.1589,5.1185,5.1217,5.1217,5.1217,5.1151,5.0439,5.0101,5.0033,4.9323,4.9018,4.9018,4.9018,4.9018,4.9018,4.9018,4.9018,4.9018,4.9018,4.9018,4.9018,4.9018,4.9018,4.9018,4.9018,4.8511,4.7736,4.7022,4.6278,4.5534,4.4818,4.4615,4.4615,4.4615,4.4615,4.4615,4.4615,4.4615,4.4615,4.4615,4.4615,4.4615,4.4615,4.4615,4.4615,4.4615,4.4615,4.4615,4.4615,4.4615,4.4298,4.3443,4.329,4.2986,4.2141,4.1437,4.102,4.102,3.8999,3.7748,3.7716,3.7033,3.629,3.5522,3.6228,3.66,3.66,3.66,3.66,3.66,3.5878,3.5519,3.5519,3.5519,3.5878,3.3336,3.5124,3.7526,3.8782,4.2228,4.6043,4.8829,4.9289,4.9864,5.2604,5.2164,5.1386,5.1623,5.1657,0.0,5.1961,0.0,0.0,0.0,0.0,0.0,0.0,0.0,0.0,0.0,0.0,0.0,0.0,0.0,0.0,0.0,0.0,0.0,0.0,0.0,0.0,0.0,0.0,5.1454,5.0439,5.0439,5.0439,5.0405,5.0202,4.983,4.9323,4.9086,4.9018,4.9018,4.9018,4.9018,4.9018,4.9018,4.9018,4.9018,4.9018,4.9018,4.9018,4.9018,4.9018,4.9018,4.9018,4.8511,4.7736,4.7022,4.6278,4.5534,4.4818,4.4615,4.4615,4.4615,4.4615,4.4615,4.4615,4.4615,4.4615,4.4615,4.4615,4.4615,4.4615,4.4615,4.4615,4.4615,4.4615,4.4615,4.4615,4.4615,4.453,4.427,4.4207,4.4121,4.3856,4.3627,4.3086,4.1996,4.1333,4.0488,3.9369,3.864,3.7617,3.6321,3.7025,3.744,3.744,3.6873,3.66,3.66,3.5878,3.5519,3.5519,3.5968,3.6297,3.4173,3.5849,3.8174,4.0166,4.307,4.6348,4.9626,5.0924,5.1826,5.3213,5.2875,5.23,5.23,5.23,0.0,0.0,0.0,0.0,0.0,0.0,0.0,0.0,0.0,0.0,0.0,0.0,0.0,0.0,0.0,0.0,0.0,0.0,0.0,0.0,0.0,0.0,0.0,0.0,0.0,4.9661,4.9661,4.9661,4.9661,4.9661,4.9424,4.9018,4.9018,4.9018,4.9018,4.9018,4.9018,4.9018,4.9018,4.9018,4.9018,4.9018,4.9018,4.9018,4.9018,4.9018,4.9018,4.9018,4.8308,4.7394,4.6921,4.6075,4.5162,4.475,4.4615,4.4615,4.4615,4.4615,4.4615,4.4615,4.4615,4.4615,4.4615,4.4615,4.4615,4.4615,4.4615,4.4615,4.4615,4.4615,4.4615,4.4615,4.4615,4.4615,4.4615,4.4615,4.4615,4.4615,4.4615,4.421,4.328,4.2659,4.1884,4.0954,4.0212,3.9395,3.8444,3.8309,3.8246,3.8246,3.7758,3.735,3.7054,3.6631,3.6101,3.5519,3.6237,3.6658,3.6001,3.6836,3.8275,4.1877,4.3562,4.5452,4.9886,5.2195,5.3382,5.3484,5.2909,5.2401,5.2401,5.2401,5.2401,0.0,0.0,0.0,0.0,0.0,0.0,0.0,0.0,0.0,0.0,0.0,0.0,0.0,0.0,0.0,0.0,0.0,0.0,0.0,0.0,0.0,0.0,0.0,0.0,0.0,4.9018,4.9018,4.9018,4.9018,4.9018,4.9018,4.9018,4.9018,4.9018,4.9018,4.9018,4.9018,4.9018,4.9018,4.9018,4.9018,4.9018,4.9018,4.9018,4.9018,4.8984,4.8917,4.7936,4.6786,4.6718,4.5732,4.4615,4.4615,4.4615,4.4615,4.4615,4.4615,4.4615,4.4615,4.4615,4.4615,4.4615,4.4615,4.4615,4.4615,4.4615,4.4615,4.4615,4.4615,4.4615,4.4615,4.4615,4.4615,4.4615,4.4615,4.4615,4.4615,4.4615,4.4615,4.4615,4.3313,4.2506,4.2506,4.1815,4.1418,4.1418,3.9974,3.9214,3.9214,3.9067,3.8678,3.8004,3.7947,3.718,3.5838,3.6568,3.721,3.4863,3.6118,3.8275,4.1877,4.5473,4.8733,5.1106,5.1966,5.2487,5.3348,5.3382,5.3247,5.3247,5.3247,0.0,0.0,0.0,0.0,0.0,0.0,0.0,0.0,0.0,0.0,0.0,0.0,0.0,0.0,0.0,0.0,0.0,0.0,0.0,0.0,0.0,0.0,4.9255,4.9661,4.956,0.0,4.9018,4.9018,4.9018,4.9018,4.9018,4.9018,4.9018,4.9018,4.9018,4.9018,4.9018,4.9018,4.9018,4.9018,4.9018,4.9018,4.9018,4.9018,4.9018,4.9018,4.8917,4.8342,4.753,4.6684,4.6109,4.5297,4.4615,4.4615,4.4615,4.4615,4.4615,4.4615,4.4615,4.4615,4.4615,4.4615,4.4615,4.4615,4.4615,4.4615,4.4615,4.4615,4.4615,4.4615,4.4615,4.4615,4.4615,4.4615,4.4615,4.4615,4.4615,4.4615,4.4615,4.4615,4.4615,4.4305,4.4119,4.4119,4.3351,4.2919,4.2919,4.2038,4.1567,4.1567,4.0425,3.977,3.9603,3.8972,3.8503,3.8175,3.8746,3.9465,3.5549,3.7105,3.9247,4.3062,4.6307,4.892,5.0128,5.1192,5.2065,5.2627,5.3144,5.3518,5.3518,0.0,0.0,0.0,0.0,0.0,0.0,0.0,0.0,0.0,0.0,0.0,0.0,0.0,0.0,0.0,0.0,0.0,0.0,0.0,0.0,0.0,0.0,0.0,4.9018,4.939,4.939,4.9018,4.9018,4.9018,4.9018,4.9018,4.9018,4.9018,4.9018,4.9018,4.9018,4.9018,4.9018,4.9018,4.9018,4.9018,4.9018,4.9018,4.9018,4.9018,4.9018,4.8781,4.8409,4.8007,4.7158,4.621,4.5838,4.5162,4.4615,4.4615,4.4615,4.4615,4.4615,4.4615,4.4615,4.4615,4.4615,4.4615,4.4615,4.4615,4.4615,4.4615,4.4615,4.4615,4.4615,4.4615,4.4615,4.4615,4.4615,4.4615,4.4615,4.4615,4.4615,4.4615,4.4615,4.4615,4.4615,4.4615,4.4615,4.4615,4.4215,4.3978,4.3978,4.3606,4.3031,4.2286,4.1198,4.0612,4.0611,4.0193,3.9793,3.9416,4.0124,4.0606,3.5968,3.8033,4.0457,4.4077,4.6275,4.7731,4.8449,5.0069,5.1451,5.1849,5.2765,5.3518,5.3518,0.0,0.0,0.0,0.0,0.0,0.0,0.0,0.0,0.0,0.0,0.0,0.0,0.0,0.0,0.0,0.0,0.0,0.0,0.0,0.0,0.0,0.0,4.912,4.9018,4.9018,4.9018,4.9018,4.9018,4.9018,4.9018,4.9018,4.9018,4.9018,4.9018,4.9018,4.9018,4.9018,4.9018,4.9018,4.9018,4.9018,4.9018,4.9018,4.9018,4.9018,4.9018,4.8545,4.7872,4.7736,4.6819,4.5669,4.5534,4.506,4.4615,4.4615,4.4615,4.4615,4.4615,4.4615,4.4615,4.4615,4.4716,4.4784,4.4649,4.4615,4.4615,4.4615,4.4615,4.4615,4.4615,4.4615,4.4615,4.4615,4.4615,4.4615,4.4615,4.4615,4.4615,4.4615,4.4615,4.4615,4.4615,4.4615,4.4615,4.4615,4.4615,4.4615,4.4615,4.4615,4.4005,4.2726,4.1948,4.1554,4.1569,4.1554,4.1221,4.0605,4.1238,4.1573,3.3066,3.6656,4.0816,4.309,4.5098,4.6754,4.77,4.8609,4.9702,5.1525,5.2765,5.3518,0.0,0.0,0.0,0.0,0.0,0.0,0.0,0.0,0.0,0.0,0.0,0.0,0.0,0.0,0.0,0.0,0.0,0.0,0.0,0.0,4.9898,4.9187,4.9661,0.0,4.9018,4.9018,4.9018,4.9018,4.9018,4.9018,4.9018,4.9018,4.9018,4.9018,4.9018,4.9018,4.9018,4.9018,4.9018,4.9018,4.9018,4.9018,4.9018,4.9018,4.9018,4.9018,4.9018,4.8545,4.777,4.7158,4.638,4.5568,4.4925,4.4682,4.4615,4.4615,4.4615,4.4615,4.4615,4.4615,4.4615,4.4615,4.5094,4.5365,4.475,4.4615,4.4615,4.4615,4.4615,4.4615,4.4615,4.4615,4.4615,4.4615,4.4615,4.4615,4.4615,4.4615,4.4615,4.4615,4.4615,4.4615,4.4615,4.4615,4.4615,4.4615,4.4615,4.4615,4.4615,4.4615,4.4513,4.431,4.3504,4.3111,4.313,4.3111,4.3057,4.2931,4.2995,4.3418,3.4562,3.7494,4.0516,4.324,4.4556,4.5398,4.6223,4.7108,4.8066,4.9349,5.0899,0.0,0.0,0.0,0.0,0.0,0.0,0.0,0.0,0.0,0.0,0.0,0.0,0.0,0.0,0.0,0.0,0.0,0.0,0.0,0.0,5.0304,4.9932,4.9627,4.9526,0.0,4.9018,4.9018,4.9018,4.9018,4.9018,4.9018,4.9018,4.9018,4.9018,4.9018,4.9018,4.9018,4.9018,4.9018,4.9018,4.9018,4.9018,4.9018,4.9018,4.9018,4.9018,4.9018,4.9018,4.824,4.7225,4.6921,4.6007,4.5026,4.4716,4.4615,4.4615,4.4615,4.4615,4.4716,4.5094,4.5196,4.5297,4.5703,4.6075,4.621,4.5872,4.55,4.5094,4.4682,4.4925,4.5094,4.4682,4.4615,4.4615,4.4615,4.4615,4.4615,4.4615,4.4615,4.4615,4.4615,4.4615,4.4615,4.4615,4.4615,4.4615,4.4615,4.4615,4.4615,4.4615,4.4615,4.4615,4.4615,4.3809,4.3639,4.4079,4.3639,4.3639,4.4079,4.4044,4.4241,3.5011,3.7015,3.8751,4.2192,4.3449,4.4018,4.4855,4.5779,4.6674,0.0,4.8827,0.0,0.0,0.0,0.0,0.0,0.0,0.0,0.0,0.0,0.0,0.0,0.0,0.0,0.0,0.0,0.0,0.0,0.0,0.0,5.0608,5.0135,4.983,4.983,4.9289,4.9018,4.9018,4.9018,4.9018,4.9018,4.9018,4.9018,4.9018,4.9018,4.9018,4.9018,4.9018,4.9018,4.9018,4.9018,4.9018,4.9018,4.9018,4.9018,4.9018,4.9018,4.9018,4.9018,4.9018,4.8173,4.709,4.709,4.621,4.5122,4.4953,4.4857,4.4852,4.4649,4.475,4.4993,4.5568,4.5838,4.6109,4.665,4.6921,4.7022,4.6819,4.638,4.5805,4.5292,4.5602,4.5737,4.4993,4.4857,4.4818,4.4649,4.4615,4.4615,4.4615,4.4615,4.4615,4.4615,4.4615,4.4615,4.4615,4.4615,4.4615,4.4615,4.4615,4.4615,4.4615,4.4615,4.4615,4.4615,4.4012,4.4012,4.4615,4.4012,4.4012,4.4615,4.4615,4.4615,3.1839,3.3275,3.4741,3.8691,4.1085,4.283,4.4077,4.4896,4.5686,4.6739,0.0,0.0,0.0,0.0,0.0,0.0,0.0,0.0,0.0,0.0,0.0,0.0,0.0,0.0,0.0,0.0,0.0,0.0,0.0,0.0,4.912,4.9086,4.9052,4.9052,4.9018,4.9018,4.9018,4.9018,4.9018,4.9018,4.9018,4.9018,4.9018,4.9018,4.9018,4.9018,4.9018,4.9018,4.9018,4.9018,4.9018,4.9018,4.9018,4.9018,4.9018,4.9018,4.9018,4.9018,4.9018,4.8511,4.7838,4.7838,4.7327,4.6549,4.5838,4.5635,4.55,4.4818,4.5094,4.5669,4.5703,4.621,4.6752,4.6786,4.7327,4.7665,4.6955,4.6752,4.6718,4.6684,4.6718,4.6515,4.5771,4.5635,4.5399,4.4716,4.4615,4.4615,4.4615,4.4615,4.4615,4.4615,4.4615,4.4615,4.4615,4.4615,4.4615,4.4615,4.4615,4.4615,4.4615,4.4615,4.4615,4.4615,4.4581,4.4581,4.4615,4.4581,4.4581,4.4615,4.4615,4.4615,3.1301,3.2677,3.4143,3.6866,3.902,4.0696,4.1594,4.297,4.4258,4.5052,0.0,0.0,0.0,0.0,0.0,0.0,0.0,0.0,0.0,0.0,0.0,0.0,0.0,0.0,0.0,0.0,0.0,0.0,0.0,0.0,4.9018,4.9018,4.9018,4.9018,4.9018,4.9018,4.9018,4.9018,4.9018,4.9018,4.9018,4.9018,4.9018,4.9018,4.9018,4.9018,4.9018,4.9018,4.9018,4.9018,4.9018,4.9018,4.9018,4.9018,4.9018,4.9018,4.9018,4.9018,4.9018,4.8545,4.7906,4.7906,4.7394,4.6752,4.6481,4.6075,4.5737,4.594,4.5872,4.594,4.6887,4.7327,4.7631,4.8105,4.8409,4.8545,4.8274,4.8206,4.7936,4.6989,4.7192,4.7293,4.6515,4.6413,4.6312,4.6041,4.6036,4.5838,4.5365,4.5297,4.5128,4.4649,4.4615,4.4615,4.4615,4.4615,4.4615,4.4615,4.4615,4.4615,4.4615,4.4615,4.4615,4.4615,4.4615,4.4615,4.4615,4.4615,4.4615,4.4615,4.4615,4.4615,3.0285,3.1509,3.3125,3.5818,3.7135,3.8332,4.0546,4.1713,4.2581,4.3479,0.0,0.0,0.0,0.0,0.0,0.0,0.0,0.0,0.0,0.0,0.0,0.0,0.0,0.0,0.0,0.0,0.0,0.0,0.0,0.0,4.9018,4.9018,4.9018,4.9018,4.9018,4.9018,4.9018,4.9018,4.9018,4.9018,4.9018,4.9018,4.9018,4.9018,4.9018,4.9018,4.9018,4.9018,4.9018,4.9018,4.9018,4.9018,4.9018,4.9018,4.9018,4.9018,4.9018,4.9018,4.9018,4.868,4.8274,4.8274,4.7936,4.7496,4.7259,4.6819,4.6515,4.6718,4.6616,4.6684,4.7635,4.8075,4.8409,4.8883,4.9018,4.9018,4.9018,4.9018,4.8714,4.7733,4.7936,4.8037,4.7293,4.7158,4.709,4.6819,4.6786,4.6616,4.6143,4.6075,4.5771,4.5026,4.4987,4.4886,4.4615,4.4615,4.4615,4.4615,4.4615,4.4615,4.4615,4.4615,4.4615,4.4615,4.4615,4.4615,4.4615,4.4615,4.4615,4.4615,4.4615,4.4615,0.0,0.0,0.0,3.531,3.5372,3.5761,4.0973,4.1145,4.0636,4.2051,0.0,0.0,0.0,0.0,0.0,0.0,0.0,0.0,0.0,0.0,0.0,0.0,0.0,0.0,0.0,0.0,0.0,0.0,0.0,4.9018,4.9018,4.9018,4.9018,4.9018,4.9018,4.9018,4.9018,4.9018,4.9018,4.9018,4.9018,4.9018,4.9018,4.9018,4.9018,4.9018,4.9018,4.9018,4.9018,4.9018,4.9018,4.9018,4.9018,4.9018,4.9018,4.9018,4.9018,4.9018,4.9018,4.9018,4.9018,4.9018,4.9018,4.8883,4.8142,4.7906,4.7736,4.7056,4.7361,4.7906,4.7906,4.8477,4.9018,4.9018,4.9018,4.9018,4.9018,4.9018,4.9018,4.9018,4.9018,4.8781,4.8071,4.7906,4.7699,4.6955,4.6853,4.6853,4.6819,4.6819,4.6549,4.5771,4.5703,4.5399,4.4682,4.4615,4.4615,4.4615,4.4615,4.4615,4.4615,4.4615,4.4615,4.4615,4.4615,4.4615,4.4615,4.4615,4.4615,4.4615,4.4615,4.4615,2.8727,0.0,0.0,0.0,0.0,0.0,0.0,0.0,0.0,0.0,0.0,0.0,0.0,0.0,0.0,0.0,0.0,0.0,0.0,0.0,0.0,0.0,0.0,0.0,0.0,0.0,0.0,0.0,0.0,4.9018,4.9018,4.9018,4.9018,4.9018,4.9018,4.9018,4.9018,4.9018,4.9018,4.9018,4.9018,4.9018,4.9018,4.9018,4.9018,4.9018,4.9018,4.9018,4.9018,4.9018,4.9018,4.9018,4.9018,4.9018,4.9018,4.9018,4.9018,4.9018,4.9018,4.9018,4.9018,4.9018,4.9018,4.8951,4.8781,4.8342,4.797,4.8308,4.8173,4.8007,4.8578,4.8849,4.9018,4.9018,4.9018,4.9018,4.9018,4.9018,4.9018,4.9018,4.9018,4.8951,4.8748,4.8714,4.8646,4.8409,4.8376,4.8206,4.7665,4.7597,4.7124,4.5838,4.5703,4.5399,4.4682,4.4615,4.4615,4.4615,4.4615,4.4615,4.4615,4.4615,4.4615,4.4615,4.4615,4.4615,4.4615,4.4615,4.4615,4.4615,4.4615,4.4615,2.9265,2.9475,3.0163,3.1029,0.0,0.0,0.0,3.51,0.0,0.0,0.0,0.0,0.0,0.0,0.0,0.0,0.0,0.0,0.0,0.0,0.0,0.0,0.0,0.0,0.0,0.0,0.0,0.0,4.9018,4.9018,4.9018,4.9018,4.9018,4.9018,4.9018,4.9018,4.9018,4.9018,4.9018,4.9018,4.9018,4.9018,4.9018,4.9018,4.9018,4.9018,4.9018,4.9018,4.9018,4.9018,4.9018,4.9018,4.9018,4.9018,4.9018,4.9018,4.9018,4.9018,4.9018,4.9018,4.9018,4.9018,4.9018,4.9018,4.9018,4.8714,4.8477,4.8883,4.8714,4.8477,4.8883,4.9018,4.9018,4.9018,4.9018,4.9018,4.9018,4.9018,4.9018,4.9018,4.9018,4.9018,4.9018,4.9018,4.9018,4.9018,4.9018,4.8849,4.8409,4.8376,4.78,4.6312,4.6143,4.5737,4.4682,4.4615,4.4615,4.4615,4.4615,4.4615,4.4615,4.4615,4.4615,4.4615,4.4615,4.4615,4.4615,4.4615,4.4615,4.4615,4.4615,4.4615,3.0253,3.0372,3.124,3.2856,3.1629,0.0,3.5549,3.531,3.504,0.0,0.0,0.0,0.0,0.0,0.0,0.0,0.0,0.0,0.0,0.0,0.0,0.0,0.0,0.0,0.0,0.0,0.0,4.9052,4.9018,4.9018,4.9018,4.9018,4.9018,4.9018,4.9018,4.9018,4.9018,4.9018,4.9018,4.9018,4.9018,4.9018,4.9018,4.9018,4.9018,4.9018,4.9018,4.9018,4.9018,4.9018,4.9018,4.9018,4.9018,4.9018,4.9018,4.9018,4.9018,4.9018,4.9018,4.9018,4.9018,4.9018,4.9018,4.9018,4.9018,4.9018,4.9018,4.9018,4.9018,4.9018,4.9018,4.9018,4.9018,4.9018,4.9018,4.9018,4.9018,4.9018,4.9018,4.9018,4.9018,4.9018,4.9018,4.9018,4.9018,4.9018,4.9018,4.9018,4.9018,4.8951,4.8376,4.7056,4.6786,4.6143,4.4852,4.4649,4.4615,4.4615,4.4615,4.4615,4.4615,4.4615,4.4615,4.4615,4.4615,4.4615,4.4615,4.4615,4.4615,4.4615,4.4615,4.4615,3.2168,3.2407,3.2736,3.2049,0.0,0.0,3.136,3.1629,3.2557,0.0,0.0,0.0,0.0,0.0,0.0,0.0,0.0,0.0,0.0,0.0,0.0,0.0,0.0,0.0,0.0,0.0,4.9796,4.9052,4.9018,4.9018,4.9018,4.9018,4.9018,4.9018,4.9018,4.9018,4.9018,4.9018,4.9018,4.9018,4.9018,4.9018,4.9018,4.9018,4.9018,4.9018,4.9018,4.9018,4.9018,4.9018,4.9018,4.9018,4.9018,4.9018,4.9018,4.9018,4.9018,4.9018,4.9018,4.9018,4.9018,4.9018,4.9018,4.9018,4.9018,4.9018,4.9018,4.9018,4.9018,4.9018,4.9018,4.9018,4.9018,4.9018,4.9018,4.9018,4.9018,4.9018,4.9018,4.9018,4.9018,4.9018,4.9018,4.9018,4.9018,4.9018,4.9018,4.9018,4.9018,4.8477,4.7973,4.7733,4.6616,4.5805,4.55,4.4925,4.4615,4.4615,4.4615,4.4615,4.4615,4.4615,4.4615,4.4615,4.4615,4.4615,4.4615,4.4615,4.4615,4.4615,4.4615,4.4615,3.3365,3.3245,3.3425,3.3095,0.0,0.0,0.0,3.1509,3.1689,3.4023,0.0,0.0,0.0,0.0,0.0,0.0,0.0,0.0,0.0,0.0,0.0,0.0,0.0,0.0,0.0,0.0,4.9796,4.9052,4.9018,4.9018,4.9018,4.9018,4.9018,4.9018,4.9018,4.9018,4.9018,4.9018,4.9018,4.9018,4.9018,4.9018,4.9018,4.9018,4.9018,4.9018,4.9018,4.9018,4.9018,4.9018,4.9018,4.9018,4.9018,4.9018,4.9018,4.9018,4.9018,4.9018,4.9018,4.9018,4.9018,4.9018,4.9018,4.9018,4.9018,4.9018,4.9018,4.9018,4.9018,4.9018,4.9018,4.9018,4.9018,4.9018,4.9018,4.9018,4.9018,4.9018,4.9018,4.9018,4.9018,4.9018,4.9018,4.9018,4.9018,4.9018,4.9018,4.9018,4.9018,4.8376,4.7736,4.7394,4.638,4.5568,4.5162,4.479,4.4615,4.4615,4.4615,4.4615,4.4615,4.4615,4.4615,4.4615,4.4615,4.4615,4.4615,4.4615,4.4615,4.4615,4.4615,4.4615,0.0,0.0,0.0,0.0,0.0,3.3006,0.0,0.0,0.0,3.4053,0.0,0.0,0.0,0.0,0.0,0.0,0.0,0.0,0.0,0.0,0.0,0.0,0.0,0.0,0.0,0.0,4.9187,4.9018,4.8612,4.8545,4.8984,4.9018,4.9018,4.9018,4.9018,4.9018,4.9018,4.9018,4.9018,4.9018,4.9018,4.9018,4.9018,4.9018,4.9018,4.9018,4.9018,4.9018,4.9018,4.9018,4.9018,4.9018,4.9018,4.9018,4.9018,4.9018,4.9018,4.9018,4.9018,4.9018,4.9018,4.9018,4.9018,4.9018,4.9018,4.9018,4.9018,4.9018,4.9018,4.9018,4.9018,4.9018,4.9018,4.9018,4.9018,4.9018,4.9018,4.9018,4.9018,4.9018,4.9018,4.9018,4.9018,4.9018,4.9018,4.9018,4.9018,4.8951,4.8815,4.8274,4.7631,4.6887,4.6143,4.5466,4.4857,4.4682,4.4615,4.4615,4.4615,4.4615,4.4615,4.4615,4.4615,4.4615,4.4615,4.4615,4.4615,4.4615,4.4615,4.4615,4.4615,4.4615,0.0,0.0,0.0,0.0,3.6058,0.0,0.0,0.0,3.2766,3.136,0.0,0.0,0.0,0.0,0.0,0.0,0.0,0.0,0.0,0.0,0.0,0.0,0.0,0.0,0.0,0.0,0.0,4.8849,4.7192,4.6921,4.8917,4.9018,4.9018,4.9018,4.9018,4.9018,4.9018,4.9018,4.9018,4.9018,4.9018,4.9018,4.9018,4.9018,4.9018,4.9018,4.9018,4.9018,4.9018,4.9018,4.9018,4.9018,4.9018,4.9018,4.9018,4.9018,4.9018,4.9018,4.9018,4.9018,4.9018,4.9018,4.9018,4.9018,4.9018,4.9018,4.9018,4.9018,4.9018,4.9018,4.9018,4.9018,4.9018,4.9018,4.9018,4.9018,4.9018,4.9018,4.9018,4.9018,4.9018,4.9018,4.9018,4.9018,4.9018,4.9018,4.9018,4.8781,4.8139,4.7939,4.7631,4.6887,4.6143,4.5669,4.5602,4.4959,4.4615,4.4615,4.4615,4.4615,4.4615,4.4615,4.4615,4.4615,4.4615,4.4615,4.4615,4.4615,4.4615,4.4615,4.4615,4.4615,0.0,0.0,0.0,0.0,0.0,0.0,3.2916,0.0,3.1749,0.0,0.0,0.0,0.0,0.0,0.0,0.0,0.0,0.0,0.0,0.0,0.0,0.0,0.0,0.0,0.0,0.0,0.0,0.0,0.0,4.6481,4.8274,4.8781,4.9018,4.9018,4.9018,4.9018,4.9018,4.9018,4.9018,4.9018,4.9018,4.9018,4.9018,4.9018,4.9018,4.9018,4.9018,4.9018,4.9018,4.9018,4.9018,4.9018,4.9018,4.9018,4.9018,4.9018,4.9018,4.9018,4.9018,4.9018,4.9018,4.9018,4.9018,4.9018,4.9018,4.9018,4.9018,4.9018,4.9018,4.9018,4.9018,4.9018,4.9018,4.9018,4.9018,4.9018,4.9018,4.9018,4.9018,4.9018,4.9018,4.9018,4.9018,4.9018,4.9018,4.9018,4.9018,4.8883,4.8578,4.8173,4.7631,4.6887,4.6143,4.5703,4.5703,4.5432,4.5399,4.5838,4.5466,4.5026,4.4615,4.4615,4.4615,4.4615,4.4615,4.4615,4.4615,4.4615,4.4615,4.4615,4.4615,4.4615,3.8601,0.0,0.0,0.0,0.0,0.0,0.0,0.0,0.0,0.0,0.0,0.0,0.0,0.0,0.0,0.0,0.0,0.0,0.0,0.0,0.0,0.0,0.0,0.0,0.0,0.0,0.0,0.0,0.0,0.0,4.777,4.8409,4.8815,4.8984,4.9018,4.9018,4.9018,4.9018,4.9018,4.9018,4.9018,4.9018,4.9018,4.9018,4.9018,4.9018,4.9018,4.9018,4.9018,4.9018,4.9018,4.9018,4.9018,4.9018,4.9018,4.9018,4.9018,4.9018,4.9018,4.9018,4.9018,4.9018,4.9018,4.9018,4.9018,4.9018,4.9018,4.9018,4.9018,4.9018,4.9018,4.9018,4.9018,4.9018,4.9018,4.9018,4.9018,4.9018,4.9018,4.9018,4.9018,4.9018,4.9018,4.9018,4.9018,4.9018,4.9018,4.8951,4.8714,4.8409,4.7834,4.6887,4.6515,4.621,4.6007,4.6007,4.6244,4.6752,4.6109,4.5466,4.4925,4.4716,4.4615,4.4615,4.4615,4.4615,4.4615,4.4615,4.4615,4.4615,4.4615,4.4615,0.0,0.0,0.0,3.6507,0.0,0.0,0.0,0.0,3.4204,0.0,0.0,0.0,0.0,0.0,3.4174,3.3544,0.0,0.0,0.0,0.0,0.0,0.0,0.0,0.0,0.0,0.0,0.0,0.0,0.0,0.0,4.7669,4.7906,4.8244,4.8984,4.9018,4.9018,4.9018,4.9018,4.9018,4.9018,4.9018,4.9018,4.9018,4.9018,4.9018,4.9018,4.9018,4.9018,4.9018,4.9018,4.9018,4.9018,4.9018,4.9018,4.9018,4.9018,4.9018,4.9018,4.9018,4.9018,4.9018,4.9018,4.9018,4.9018,4.9018,4.9018,4.9018,4.9018,4.9018,4.9018,4.9018,4.9018,4.9018,4.9018,4.9018,4.9018,4.9018,4.9018,4.9018,4.9018,4.9018,4.9018,4.9018,4.9018,4.9018,4.9018,4.9018,4.8748,4.8007,4.8545,4.8409,4.6955,4.7428,4.7564,4.6819,4.6752,4.6752,4.6786,4.6109,4.5703,4.5669,4.4959,4.4615,4.4615,4.4615,4.4615,4.4615,4.4615,4.4615,4.4615,4.4615,4.4615,0.0,0.0,4.1923,3.8871,0.0,0.0,0.0,0.0,0.0,0.0,0.0,0.0,0.0,0.0,3.4951,3.4294,3.3784,0.0,0.0,0.0,0.0,0.0,0.0,0.0,0.0,0.0,0.0,0.0,0.0,0.0,0.0,4.7365,4.8007,4.8244,4.8748,4.9018,4.9018,4.9018,4.9018,4.9018,4.9018,4.9018,4.9018,4.9018,4.9018,4.9018,4.9018,4.9018,4.9018,4.9018,4.9018,4.9018,4.9018,4.9018,4.9018,4.9018,4.9018,4.9018,4.9018,4.9018,4.9018,4.9018,4.9018,4.9018,4.9018,4.9018,4.9018,4.9018,4.9018,4.9018,4.9018,4.9018,4.9018,4.9018,4.9018,4.9018,4.9018,4.9018,4.9018,4.9018,4.9018,4.9018,4.9018,4.9018,4.9018,4.9018,4.9018,4.8917,4.868,4.8849,4.8612,4.7631,4.7736,4.7804,4.7564,4.797,4.8037,4.7564,4.6853,4.621,4.5737,4.4993,4.4615,4.4615,4.4615,4.4615,4.4615,4.4615,4.4615,4.4615,4.4615,4.4615,4.312,4.3359,0.0,0.0,3.9798,0.0,3.5579,0.0,0.0,0.0,0.0,0.0,0.0,0.0,3.6297,3.5639,3.4592,3.2976,0.0,0.0,0.0,0.0,0.0,0.0,0.0,0.0,3.9289,4.2091,0.0,0.0,0.0,0.0,4.7631,4.7872,4.8612,4.9018,4.9018,4.9018,4.9018,4.9018,4.9018,4.9018,4.9018,4.9018,4.9018,4.9018,4.9018,4.9018,4.9018,4.9018,4.9018,4.9018,4.9018,4.9018,4.9018,4.9018,4.9018,4.9018,4.9018,4.9018,4.9018,4.9018,4.9018,4.9018,4.9018,4.9018,4.9018,4.9018,4.9018,4.9018,4.9018,4.9018,4.9018,4.9018,4.9018,4.9018,4.9018,4.9018,4.9018,4.9018,4.9018,4.9018,4.9018,4.9018,4.9018,4.9018,4.9018,4.9018,4.9018,4.9018,4.8815,4.8342,4.8308,4.8308,4.8308,4.8748,4.8815,4.8342,4.7597,4.6989,4.6515,4.55,4.4993,4.4993,4.475,4.4615,4.4615,4.4615,4.4615,4.4615,4.4615,4.4615]}]]